Date StartTime U_cm/s V_cm/s W_cm/s Ustd_cm/s Vstd_cm/s Wstd_cm/s Uvar_(cm/s)^2 Vvar_(cm/s)^2 Wvar_(cm/s)^2 KE_(m/s)^2 TurbulentKE_(m/s)^2 HorizWindSpeed_cm/s FrictionSpeec_cm/s DragCoef SpeedOfSound_m/s SonicTemperature_C Pressure_mb 
11/24/2013  00:00:00     -142.557      -53.555       -8.240       24.101       22.125       14.586      580.857      489.496      212.764        1.227        0.064      152.285       11.145        0.005      331.267       -0.827      864.855
11/24/2013  00:01:00     -125.998      -53.324       -3.431       21.353       19.397       15.960      455.945      376.260      254.732        0.991        0.054      136.818       13.474        0.010      331.229       -0.890      864.853
11/24/2013  00:02:00     -115.543      -58.202       -9.678       15.401       19.215       13.077      237.181      369.234      171.007        0.880        0.039      129.374        7.964        0.004      331.283       -0.802      864.852
11/24/2013  00:03:00     -131.370      -62.388       -5.228       35.255       22.946       16.629     1242.913      526.531      276.514        1.161        0.102      145.432       15.555        0.011      331.239       -0.873      864.847
11/24/2013  00:04:00     -148.331      -66.102       -5.672       27.251       19.964       16.172      742.637      398.563      261.517        1.390        0.070      162.393       12.608        0.006      331.219       -0.906      864.841
11/24/2013  00:05:00     -122.766      -59.263      -10.456       22.313       26.089       16.484      497.858      680.629      271.737        1.007        0.073      136.321        8.868        0.004      331.126       -1.061      864.848
11/24/2013  00:06:00     -109.333      -19.383      -13.815       34.190       25.747       19.894     1168.964      662.897      395.780        0.737        0.111      111.038       19.729        0.032      331.089       -1.121      864.848
11/24/2013  00:07:00     -145.562       -8.992      -13.631       41.152       41.886       30.386     1693.517     1754.397      923.286        1.291        0.219      145.840       27.351        0.035      331.077       -1.143      864.840
11/24/2013  00:08:00     -181.616      -17.641      -14.443       38.503       34.568       25.105     1482.515     1194.919      630.285        1.841        0.165      182.471       19.699        0.012      331.144       -1.031      864.827
11/24/2013  00:09:00     -164.193        3.541       -9.533       35.738       30.069       27.336     1277.187      904.173      747.251        1.500        0.146      164.231       19.580        0.014      331.152       -1.018      864.819
11/24/2013  00:10:00     -162.625       13.470      -11.337       60.321       42.992       29.171     3638.570     1848.306      850.918        1.655        0.317      163.182       29.131        0.032      331.154       -1.016      864.821
11/24/2013  00:11:00     -147.811       -2.859       -9.312       69.787       39.197       30.609     4870.174     1536.406      936.905        1.464        0.367      147.839       38.181        0.067      331.160       -1.004      864.808
11/24/2013  00:12:00     -118.597        3.710      -12.131       38.638       42.997       25.129     1492.870     1848.722      631.452        0.910        0.199      118.655       18.978        0.026      331.143       -1.032      864.795
11/24/2013  00:13:00     -159.444       24.800      -17.488       52.604       43.993       30.112     2767.201     1935.410      906.738        1.598        0.280      161.361       29.211        0.033      331.155       -1.015      864.790
11/24/2013  00:14:00     -130.922       12.317      -23.726       31.134       41.105       20.122      969.334     1689.613      404.890        1.046        0.153      131.500        9.900        0.006      331.115       -1.077      864.786
11/24/2013  00:15:00     -148.731       10.619      -21.626       18.728       24.697       15.753      350.737      609.942      248.172        1.195        0.060      149.109        9.184        0.004      331.173       -0.982      864.790
11/24/2013  00:16:00     -135.069        8.011      -12.790       29.294       44.296       24.129      858.131     1962.117      582.197        1.094        0.170      135.307       11.862        0.008      331.135       -1.046      864.788
11/24/2013  00:17:00     -128.896      -24.074      -11.505       38.264       47.160       19.955     1464.134     2224.088      398.192        1.071        0.204      131.124       18.710        0.020      331.126       -1.060      864.789
11/24/2013  00:18:00     -127.161      -27.137      -22.379       32.199       40.301       19.765     1036.750     1624.181      390.660        1.023        0.153      130.024       13.916        0.011      331.093       -1.114      864.791
11/24/2013  00:19:00     -131.971       -9.522      -17.518       38.702       43.778       18.948     1497.862     1916.552      359.012        1.079        0.189      132.314        8.177        0.004      331.103       -1.097      864.793
11/24/2013  00:20:00      -76.716      -18.819       -0.979       38.849       32.446       26.736     1509.273     1052.759      714.815        0.476        0.164       78.991       20.208        0.065      331.028       -1.221      864.794
11/24/2013  00:21:00      -98.326      -44.039       -6.592       38.531       26.782       22.942     1484.661      717.270      526.325        0.719        0.136      107.738       17.638        0.027      331.074       -1.145      864.788
11/24/2013  00:22:00     -119.726      -55.485       -6.998       19.794       26.769       17.771      391.804      716.559      315.792        0.944        0.071      131.958       12.214        0.009      331.125       -1.060      864.784
11/24/2013  00:23:00      -78.499      -47.609       -1.188       30.933       24.885       15.489      956.830      619.274      239.898        0.512        0.091       91.808        9.324        0.010      331.042       -1.197      864.794
11/24/2013  00:24:00      -96.456      -63.908       -3.886       43.315       28.495       18.033     1876.199      811.957      325.185        0.821        0.151      115.707       16.976        0.022      331.111       -1.085      864.791
11/24/2013  00:25:00     -102.026      -54.072       -3.699       40.179       24.656       18.697     1614.368      607.920      349.593        0.796        0.129      115.469       21.447        0.034      331.106       -1.093      864.785
11/24/2013  00:26:00      -78.589      -51.830        3.032       44.080       29.683       25.632     1943.072      881.084      656.975        0.618        0.174       94.141       22.867        0.059      331.036       -1.208      864.783
11/24/2013  00:27:00      -91.132      -21.480       -0.146       33.248       32.868       22.242     1105.440     1080.328      494.719        0.572        0.134       93.630       19.633        0.044      330.987       -1.290      864.800
11/24/2013  00:28:00     -140.191       -8.095       -9.393       32.611       24.235       22.373     1063.486      587.354      500.543        1.098        0.108      140.425       13.106        0.009      330.952       -1.345      864.824
11/24/2013  00:29:00     -137.942      -20.221       -7.692       39.078       33.790       24.765     1527.125     1141.753      613.282        1.139        0.164      139.416       21.991        0.025      330.944       -1.359      864.846
11/24/2013  00:30:00     -137.830      -28.460      -11.803       33.228       27.694       22.292     1104.127      766.948      496.948        1.116        0.118      140.738       18.735        0.018      330.907       -1.418      864.870
11/24/2013  00:31:00     -106.592      -25.398       -9.008       37.190       32.904       28.504     1383.089     1082.669      812.485        0.768        0.164      109.576       15.762        0.021      330.857       -1.500      864.873
11/24/2013  00:32:00      -99.487      -60.578       -7.158       30.350       27.566       22.924      921.121      759.878      525.496        0.791        0.110      116.479       17.255        0.022      330.884       -1.458      864.850
11/24/2013  00:33:00      -32.284      -23.333       14.866       38.656       32.398       22.457     1494.321     1049.659      504.305        0.243        0.152       39.834       22.948        0.332      330.854       -1.505      864.821
11/24/2013  00:34:00      -40.587       -8.632       -6.186       22.018       15.692       18.764      484.799      246.233      352.106        0.142        0.054       41.494       13.503        0.106      330.915       -1.405      864.802
11/24/2013  00:35:00     -122.666       -4.067      -15.502       28.409       22.734       15.850      807.043      516.815      251.232        0.844        0.079      122.733       13.204        0.012      330.848       -1.515      864.810
11/24/2013  00:36:00     -103.579      -15.760      -10.286       29.113       25.045       24.133      847.595      627.245      582.399        0.657        0.103      104.771       21.595        0.042      330.828       -1.549      864.817
11/24/2013  00:37:00     -116.090      -37.334       -5.990       24.343       28.609       20.148      592.564      818.457      405.934        0.836        0.091      121.946       14.307        0.014      330.771       -1.643      864.818
11/24/2013  00:38:00     -107.365      -23.148      -12.986       44.501       28.980       23.381     1980.367      839.847      546.648        0.780        0.168      109.832       20.892        0.036      330.858       -1.500      864.807
11/24/2013  00:39:00      -36.482      -38.715       -6.184       51.811       28.528       23.548     2684.365      813.841      554.500        0.346        0.203       53.196       28.649        0.290      330.956       -1.339      864.809
11/24/2013  00:40:00      -64.459      -58.058       -0.506       43.800       40.205       23.005     1918.451     1616.466      529.238        0.579        0.203       86.751       26.344        0.092      330.911       -1.413      864.822
11/24/2013  00:41:00     -130.564      -34.754      -12.220       21.598       18.497       13.541      466.492      342.137      183.349        0.970        0.050      135.110        8.598        0.004      330.943       -1.360      864.819
11/24/2013  00:42:00     -123.137      -33.252      -15.854       19.483       21.383       14.269      379.588      457.253      203.614        0.878        0.052      127.548       11.865        0.009      331.058       -1.170      864.813
11/24/2013  00:43:00     -109.857      -33.243      -18.866       10.226       17.887        9.561      104.577      319.936       91.420        0.702        0.026      114.777        4.355        0.001      331.049       -1.186      864.802
11/24/2013  00:44:00      -94.227      -56.916      -12.406       23.689       14.254       14.376      561.164      203.174      206.672        0.662        0.049      110.083       14.023        0.016      331.044       -1.196      864.804
11/24/2013  00:45:00      -75.129      -51.083       -5.927       33.609       28.322       20.440     1129.541      802.157      417.781        0.532        0.117       90.851       21.761        0.057      331.020       -1.234      864.815
11/24/2013  00:46:00      -60.754      -40.675       -8.248       38.238       23.339       15.956     1462.116      544.726      254.585        0.384        0.113       73.113       11.584        0.025      331.000       -1.267      864.830
11/24/2013  00:47:00      -83.377      -61.567        5.122       27.923       24.565       18.175      779.698      603.417      330.316        0.624        0.086      103.645       13.258        0.016      330.963       -1.327      864.833
11/24/2013  00:48:00     -128.716      -56.701      -20.537       26.547       17.201       19.796      704.764      295.876      391.884        1.080        0.070      140.651       14.219        0.010      330.940       -1.364      864.824
11/24/2013  00:49:00     -139.416      -49.550      -20.942       12.304       15.504       11.062      151.393      240.389      122.376        1.142        0.026      147.960        4.568        0.001      330.892       -1.442      864.805
11/24/2013  00:50:00     -131.174      -57.386      -12.161       19.551       18.534       13.093      382.239      343.510      171.422        1.077        0.045      143.177       10.582        0.005      330.868       -1.484      864.794
11/24/2013  00:51:00     -127.143      -37.795       -9.526       17.327       21.691       14.832      300.216      470.487      219.992        0.934        0.050      132.642        8.140        0.004      330.861       -1.493      864.795
11/24/2013  00:52:00     -118.595      -53.373       -1.444       20.495       18.721       14.012      420.049      350.490      196.336        0.894        0.048      130.051       10.567        0.007      330.897       -1.436      864.810
11/24/2013  00:53:00     -129.370      -41.500       -2.675       28.737       21.509       15.533      825.832      462.630      241.288        1.000        0.076      135.863       14.564        0.011      330.882       -1.461      864.811
11/24/2013  00:54:00      -93.238      -50.534       -3.829       36.349       22.327       17.488     1321.281      498.476      305.819        0.669        0.106      106.052        9.189        0.008      330.910       -1.415      864.816
11/24/2013  00:55:00      -64.950      -39.935       -2.792       39.520       30.437       18.185     1561.853      926.407      330.690        0.432        0.141       76.245       12.119        0.025      330.853       -1.507      864.814
11/24/2013  00:56:00     -100.488      -55.927      -10.385       25.885       20.740       17.734      670.049      430.163      314.505        0.737        0.071      115.003        8.245        0.005      330.905       -1.422      864.825
11/24/2013  00:57:00     -103.103      -47.818      -12.420       24.333       14.789       13.913      592.079      218.707      193.569        0.704        0.050      113.652        9.757        0.007      330.872       -1.476      864.846
11/24/2013  00:58:00      -76.242      -34.732       -0.892       26.088       26.603       15.950      680.603      707.727      254.413        0.433        0.082       83.781        9.114        0.012      330.816       -1.570      864.867
11/24/2013  00:59:00      -88.772      -45.926        1.164       30.819       30.464       20.328      949.789      928.074      413.222        0.614        0.115       99.948       20.065        0.040      330.828       -1.550      864.890
11/24/2013  01:00:00     -102.331      -42.189       -3.686       23.456       26.871       15.155      550.190      722.058      229.686        0.688        0.075      110.686       10.873        0.010      330.891       -1.446      864.893
11/24/2013  01:01:00     -131.105      -60.325       -7.050       18.210       19.167       14.978      331.613      367.375      224.327        1.090        0.046      144.318        7.573        0.003      330.890       -1.447      864.889
11/24/2013  01:02:00     -114.368      -58.714        0.365       32.742       20.469       17.172     1072.070      418.978      294.866        0.916        0.089      128.559       16.944        0.017      330.871       -1.478      864.881
11/24/2013  01:03:00     -117.337      -47.474      -10.586       13.225       19.325       14.018      174.889      373.448      196.509        0.844        0.037      126.577       11.187        0.008      330.879       -1.465      864.879
11/24/2013  01:04:00     -115.471      -34.489       -4.716       17.765       24.864       11.460      315.584      618.223      131.327        0.780        0.053      120.511        9.010        0.006      330.898       -1.434      864.883
11/24/2013  01:05:00     -115.203      -41.661       -3.805       19.131       15.233       12.428      365.978      232.031      154.459        0.789        0.038      122.505       10.296        0.007      330.893       -1.442      864.900
11/24/2013  01:06:00     -123.380      -37.796       -7.549       23.157       19.730       13.891      536.268      389.282      192.946        0.891        0.056      129.039       13.876        0.012      330.909       -1.417      864.913
11/24/2013  01:07:00     -119.917      -37.312       -5.920       24.638       15.340       12.996      607.026      235.318      168.899        0.841        0.051      125.588       13.922        0.012      330.891       -1.446      864.928
11/24/2013  01:08:00     -101.417      -39.696       -4.875       17.792       19.776       13.703      316.560      391.095      187.779        0.639        0.045      108.909       12.555        0.013      330.869       -1.481      864.918
11/24/2013  01:09:00      -86.841      -22.281       -1.363       28.153       22.129       14.926      792.571      489.710      222.790        0.477        0.075       89.654       13.317        0.022      330.840       -1.529      864.918
11/24/2013  01:10:00     -131.871      -43.149       -7.226       18.072       15.056       11.167      326.609      226.691      124.708        0.999        0.034      138.751        8.966        0.004      330.941       -1.362      864.923
11/24/2013  01:11:00     -120.573      -28.925       -9.285       28.407       17.148       13.781      806.961      294.061      189.923        0.838        0.065      123.994       13.522        0.012      330.921       -1.397      864.931
11/24/2013  01:12:00     -116.386      -43.476      -10.331       17.873       17.389       13.775      319.460      302.363      189.753        0.818        0.041      124.241       10.680        0.007      330.929       -1.384      864.940
11/24/2013  01:13:00     -105.246      -26.465       -8.016       28.905       22.119       13.430      835.485      489.241      180.378        0.667        0.075      108.523        6.590        0.004      330.801       -1.595      864.965
11/24/2013  01:14:00     -121.435      -29.079       -7.649       16.619       16.641       14.130      276.203      276.921      199.666        0.820        0.038      124.868       10.961        0.008      330.807       -1.585      864.985
11/24/2013  01:15:00     -100.951      -33.495       -7.298       18.418       18.586       13.365      339.238      345.443      178.622        0.611        0.043      106.362       11.264        0.011      330.828       -1.550      865.001
11/24/2013  01:16:00     -113.644      -26.261       -7.405       23.098       22.012       15.556      533.497      484.531      241.984        0.746        0.063      116.639       11.208        0.009      330.826       -1.552      865.008
11/24/2013  01:17:00     -127.206      -47.318      -15.296       11.915       10.555       12.309      141.966      111.410      151.515        0.953        0.020      135.722        8.182        0.004      330.930       -1.381      865.012
11/24/2013  01:18:00     -126.857      -35.284      -18.114       17.508       18.221       12.708      306.533      332.016      161.505        0.923        0.040      131.672        5.931        0.002      330.906       -1.420      865.003
11/24/2013  01:19:00     -143.005      -41.828      -12.791       19.885       13.647       12.362      395.432      186.230      152.829        1.155        0.037      148.997        6.821        0.002      330.822       -1.559      865.002
11/24/2013  01:20:00     -136.850      -44.661      -10.574       23.438       20.217       13.726      549.339      408.740      188.405        1.099        0.057      143.953       13.425        0.009      330.758       -1.664      864.995
11/24/2013  01:21:00     -135.651      -46.642      -10.762       21.060       20.711       11.638      443.504      428.961      135.445        1.085        0.050      143.446        7.296        0.003      330.751       -1.676      864.993
11/24/2013  01:22:00     -128.978      -32.726      -10.182       22.037       33.810       15.853      485.618     1143.147      251.324        0.984        0.094      133.065       12.575        0.009      330.661       -1.823      864.992
11/24/2013  01:23:00     -131.781      -21.285      -20.578       23.364       22.725       16.050      545.899      516.445      257.613        0.978        0.066      133.489       14.563        0.012      330.593       -1.935      864.998
11/24/2013  01:24:00     -137.595       -9.109      -16.740       22.220       18.080       18.213      493.719      326.872      331.719        1.022        0.058      137.897       12.595        0.008      330.529       -2.040      865.005
11/24/2013  01:25:00     -136.640      -16.556       -8.000       28.573       24.143       21.900      816.440      582.863      479.623        1.044        0.094      137.640       18.675        0.018      330.508       -2.075      865.018
11/24/2013  01:26:00     -119.730      -29.546       -7.577       42.424       35.742       18.498     1799.798     1277.511      342.158        0.934        0.171      123.322       13.737        0.012      330.496       -2.094      865.030
11/24/2013  01:27:00      -87.236      -40.265       -4.582       35.976       30.276       20.358     1294.305      916.615      414.449        0.594        0.131       96.080       19.045        0.039      330.519       -2.056      865.036
11/24/2013  01:28:00     -126.710      -44.736      -13.264       31.080       28.297       20.231      965.941      800.709      409.285        1.020        0.109      134.375       10.387        0.006      330.609       -1.909      865.047
11/24/2013  01:29:00     -133.236      -40.293      -15.435       29.594       25.112       15.622      875.816      630.595      244.049        1.068        0.088      139.195       12.138        0.008      330.534       -2.032      865.060
11/24/2013  01:30:00      -97.146      -17.885       -6.112       39.560       37.125       20.453     1565.022     1378.237      418.339        0.658        0.168       98.779       20.580        0.043      330.484       -2.114      865.074
11/24/2013  01:31:00     -113.935      -31.554       -9.576       37.016       36.632       22.180     1370.150     1341.892      491.972        0.864        0.160      118.224       19.146        0.026      330.548       -2.008      865.087
11/24/2013  01:32:00      -77.748       -5.903        7.670       42.977       25.268       21.721     1847.005      638.447      471.793        0.455        0.148       77.972       16.877        0.047      330.552       -2.003      865.105
11/24/2013  01:33:00     -107.031      -49.347       -2.355       45.941       36.609       22.151     2110.596     1340.241      490.671        0.892        0.197      117.859       22.502        0.036      330.644       -1.852      865.109
11/24/2013  01:34:00     -101.030      -27.353       -3.387       33.961       32.230       20.913     1153.379     1038.781      437.355        0.680        0.131      104.668       16.493        0.025      330.599       -1.925      865.109
11/24/2013  01:35:00     -103.026      -16.906       -8.473       46.604       33.375       20.579     2171.970     1113.882      423.487        0.734        0.185      104.404       19.127        0.034      330.619       -1.892      865.109
11/24/2013  01:36:00      -94.716        3.769      -14.078       48.322       33.907       18.701     2335.018     1149.697      349.710        0.651        0.192       94.790       16.342        0.030      330.623       -1.885      865.110
11/24/2013  01:37:00      -77.129      -27.122       -4.620       33.423       33.972       21.413     1117.126     1154.078      458.511        0.472        0.136       81.759       11.492        0.020      330.565       -1.981      865.122
11/24/2013  01:38:00      -62.124      -14.854      -15.940       22.558       19.246       14.970      508.857      370.395      224.111        0.272        0.055       63.875        4.245        0.004      330.635       -1.864      865.129
11/24/2013  01:39:00      -60.684      -14.807      -13.107       26.444       20.807       18.358      699.277      432.943      337.003        0.277        0.073       62.464       14.401        0.053      330.622       -1.888      865.134
11/24/2013  01:40:00      -55.202      -15.085      -10.671       28.568       21.684       21.343      816.106      470.192      455.504        0.256        0.087       57.226       13.420        0.055      330.664       -1.818      865.144
11/24/2013  01:41:00      -61.842      -41.547       -4.323       27.314       32.126       22.818      746.072     1032.048      520.680        0.393        0.115       74.502       14.041        0.036      330.654       -1.834      865.153
11/24/2013  01:42:00      -88.275      -14.529      -17.595       25.569       21.113       20.637      653.784      445.750      425.880        0.492        0.076       89.462       14.287        0.026      330.730       -1.709      865.163
11/24/2013  01:43:00      -98.393      -22.393      -12.766       19.766       24.404       18.581      390.685      595.567      345.259        0.584        0.067      100.909       13.733        0.019      330.821       -1.562      865.174
11/24/2013  01:44:00     -109.237      -28.171      -20.030       18.961       21.124       16.703      359.503      446.211      278.999        0.711        0.054      112.811       11.235        0.010      330.808       -1.580      865.195
11/24/2013  01:45:00      -98.060      -35.461       -2.335       28.530       33.104       21.350      813.960     1095.877      455.837        0.662        0.118      104.275        6.148        0.003      330.794       -1.605      865.211
11/24/2013  01:46:00     -102.577      -24.107      -20.634       20.768       19.416       14.033      431.328      376.985      196.924        0.627        0.050      105.371       10.271        0.010      330.760       -1.660      865.224
11/24/2013  01:47:00      -91.022      -20.453      -16.118       21.503       18.301       12.090      462.387      334.924      146.180        0.495        0.047       93.292       10.493        0.013      330.683       -1.787      865.236
11/24/2013  01:48:00     -100.104      -25.892      -14.874       25.884       17.197       13.312      669.983      295.727      177.213        0.603        0.057      103.398       11.556        0.012      330.679       -1.793      865.238
11/24/2013  01:49:00     -126.559      -27.538      -22.092       20.127       22.355       15.141      405.114      499.758      229.260        0.920        0.057      129.520        5.016        0.001      330.668       -1.813      865.228
11/24/2013  01:50:00     -105.558      -38.833      -17.104       28.234       35.357       19.407      797.185     1250.107      376.624        0.768        0.121      112.475       14.442        0.016      330.693       -1.771      865.215
11/24/2013  01:51:00      -72.046      -54.189      -22.060       36.525       27.466       25.010     1334.042      754.355      625.501        0.566        0.136       90.150       15.350        0.029      330.671       -1.807      865.214
11/24/2013  01:52:00     -122.538      -45.208      -16.288       44.438       31.651       25.693     1974.763     1001.817      660.135        1.048        0.182      130.611       28.776        0.049      330.631       -1.872      865.225
11/24/2013  01:53:00      -86.647      -36.849      -15.552       22.042       25.668       13.281      485.838      658.855      176.378        0.521        0.066       94.157       13.030        0.019      330.612       -1.905      865.243
11/24/2013  01:54:00     -106.769      -13.897       -3.751       38.816       33.639       24.447     1506.653     1131.600      597.635        0.742        0.162      107.670       17.819        0.027      330.584       -1.949      865.250
11/24/2013  01:55:00      -86.553      -18.534      -13.078       18.389       25.469       13.235      338.167      648.652      175.158        0.458        0.058       88.516       10.026        0.013      330.655       -1.833      865.259
11/24/2013  01:56:00      -86.666      -31.161      -10.830       19.303       21.804       13.249      372.619      475.413      175.531        0.481        0.051       92.098        8.944        0.009      330.658       -1.828      865.258
11/24/2013  01:57:00      -73.304      -30.975       -8.906       37.392       24.450       18.364     1398.185      597.799      337.250        0.437        0.117       79.579       10.279        0.017      330.725       -1.717      865.256
11/24/2013  01:58:00     -117.483      -30.219       -9.647       37.495       17.171       14.865     1405.870      294.854      220.971        0.836        0.096      121.308       19.615        0.026      330.677       -1.796      865.275
11/24/2013  01:59:00     -115.107      -25.896       -7.037       24.400       14.470       15.468      595.348      209.373      239.250        0.751        0.052      117.984       14.905        0.016      330.681       -1.790      865.288
11/24/2013  02:00:00     -120.626      -33.597      -13.940       17.156       12.896       10.988      294.339      166.303      120.741        0.823        0.029      125.217        6.436        0.003      330.723       -1.722      865.295
11/24/2013  02:01:00      -86.420      -50.254      -10.075       23.230       16.648       13.295      539.620      277.171      176.755        0.554        0.050       99.970       11.942        0.014      330.728       -1.715      865.296
11/24/2013  02:02:00      -62.551      -39.351        0.032       33.767       24.654       17.482     1140.191      607.831      305.626        0.376        0.103       73.899       18.128        0.060      330.709       -1.745      865.304
11/24/2013  02:03:00      -66.434      -20.490       -5.526       26.292       19.444       14.290      691.266      378.060      204.217        0.307        0.064       69.522       12.833        0.034      330.707       -1.749      865.324
11/24/2013  02:04:00      -84.166      -23.396       -3.848       16.095       21.154       11.511      259.064      447.495      132.504        0.424        0.042       87.357       10.340        0.014      330.710       -1.745      865.325
11/24/2013  02:05:00      -60.766      -47.208       -1.879       36.069       16.876       17.232     1300.958      284.816      296.925        0.390        0.094       76.949       17.259        0.050      330.736       -1.701      865.318
11/24/2013  02:06:00      -58.740      -49.044       -4.431       38.130       18.681       15.278     1453.909      348.990      233.404        0.396        0.102       76.522       15.876        0.043      330.758       -1.666      865.311
11/24/2013  02:07:00      -72.187      -70.457       -3.131       34.684       42.797       22.106     1202.970     1831.611      488.663        0.685        0.176      100.872       24.446        0.059      330.717       -1.731      865.301
11/24/2013  02:08:00      -98.696      -49.444       -3.142       43.395       23.131       20.588     1883.164      535.036      423.864        0.752        0.142      110.389       18.393        0.028      330.723       -1.722      865.288
11/24/2013  02:09:00     -107.984      -58.099       -3.142       22.828       20.099       17.501      521.119      403.977      306.281        0.814        0.062      122.621       10.538        0.007      330.640       -1.858      865.282
11/24/2013  02:10:00     -120.291      -51.110      -15.402       15.140       16.110       14.748      229.230      259.530      217.493        0.901        0.035      130.699        5.136        0.002      330.624       -1.885      865.272
11/24/2013  02:11:00     -122.518      -51.588      -16.252       19.164       21.031       10.653      367.255      442.314      113.493        0.943        0.046      132.936        7.256        0.003      330.602       -1.921      865.260
11/24/2013  02:12:00     -111.860      -43.094      -16.111       14.742       21.464       13.663      217.340      460.719      186.670        0.775        0.043      119.874        8.289        0.005      330.574       -1.966      865.252
11/24/2013  02:13:00     -126.416      -43.543       -1.653       21.537       21.332       13.854      463.833      455.036      191.941        0.949        0.056      133.704       12.973        0.009      330.612       -1.903      865.256
11/24/2013  02:14:00     -113.901      -33.419       -4.983       23.522       28.704       15.960      553.284      823.936      254.715        0.787        0.082      118.703       10.692        0.008      330.592       -1.936      865.261
11/24/2013  02:15:00      -99.438      -49.076       -3.696       26.715       23.651       18.148      713.686      559.348      329.355        0.696        0.080      110.889       14.965        0.018      330.622       -1.887      865.278
11/24/2013  02:16:00     -112.182      -29.584       -0.840       24.836       18.151       14.361      616.811      329.444      206.242        0.731        0.058      116.018        9.057        0.006      330.655       -1.834      865.286
11/24/2013  02:17:00     -101.109      -38.999       -5.973       24.878       27.239       14.925      618.937      741.947      222.764        0.668        0.079      108.370       11.718        0.012      330.631       -1.873      865.295
11/24/2013  02:18:00     -105.751      -38.301      -13.361       15.100       20.656       15.384      228.002      426.669      236.679        0.686        0.045      112.473        3.640        0.001      330.622       -1.887      865.297
11/24/2013  02:19:00     -111.532      -30.021      -11.537       25.106       16.585       15.074      630.299      275.063      227.230        0.730        0.057      115.502       13.695        0.014      330.592       -1.937      865.290
11/24/2013  02:20:00     -108.877      -28.910       -3.372       28.278       16.247       13.595      799.648      263.956      184.817        0.697        0.062      112.650       13.993        0.015      330.572       -1.969      865.286
11/24/2013  02:21:00     -101.451      -24.578       -7.349       24.107       19.227       15.615      581.155      369.663      243.825        0.607        0.060      104.386       16.017        0.024      330.515       -2.064      865.277
11/24/2013  02:22:00      -93.740      -15.454       -5.321       14.540       14.016        9.817      211.416      196.449       96.383        0.478        0.025       95.005        7.558        0.006      330.491       -2.102      865.265
11/24/2013  02:23:00      -98.588      -37.970       -2.349       27.919       22.941       14.947      779.475      526.274      223.427        0.635        0.076      105.647       13.878        0.017      330.516       -2.061      865.254
11/24/2013  02:24:00      -79.665      -28.310       -1.361       31.623       22.807       14.629     1000.024      520.138      214.017        0.444        0.087       84.546       14.546        0.030      330.513       -2.067      865.249
11/24/2013  02:25:00      -91.335      -34.663        0.080       19.183       22.161       15.451      368.001      491.111      238.736        0.532        0.055       97.691       11.739        0.014      330.566       -1.980      865.254
11/24/2013  02:26:00      -90.215      -27.535       -6.615       23.158       26.964       12.342      536.273      727.063      152.334        0.518        0.071       94.323        8.641        0.008      330.614       -1.900      865.258
11/24/2013  02:27:00     -120.120      -21.910       -9.782       26.471       21.665       14.773      700.701      469.393      218.250        0.820        0.069      122.102       14.727        0.015      330.541       -2.021      865.255
11/24/2013  02:28:00     -105.136      -30.218      -12.584       19.598       11.827       11.436      384.095      139.876      130.783        0.639        0.033      109.392        9.219        0.007      330.571       -1.971      865.253
11/24/2013  02:29:00      -98.514      -27.928       -4.219       22.287       16.902       11.628      496.700      285.667      135.212        0.571        0.046      102.396       11.639        0.013      330.542       -2.019      865.253
11/24/2013  02:30:00     -100.829      -22.583       -7.334       22.092       15.896       12.238      488.043      252.674      149.761        0.581        0.045      103.327       10.367        0.010      330.524       -2.048      865.254
11/24/2013  02:31:00     -101.201      -16.217       -9.354       14.710       15.492       13.197      216.374      240.012      174.153        0.561        0.032      102.492        7.448        0.005      330.486       -2.111      865.245
11/24/2013  02:32:00     -111.167      -12.705      -13.878       18.649       14.933       13.832      347.797      222.998      191.320        0.674        0.038      111.890       12.007        0.012      330.461       -2.151      865.242
11/24/2013  02:33:00     -114.092      -18.933      -14.229       14.057       15.536       11.221      197.587      241.366      125.904        0.707        0.028      115.653        9.625        0.007      330.447       -2.174      865.230
11/24/2013  02:34:00     -103.226      -16.001      -12.837       10.192       12.066        9.981      103.878      145.600       99.619        0.571        0.017      104.459        3.774        0.001      330.407       -2.240      865.217
11/24/2013  02:35:00      -74.633      -21.420      -11.548       15.922       13.407        7.088      253.499      179.743       50.235        0.332        0.024       77.646        8.083        0.011      330.372       -2.301      865.210
11/24/2013  02:36:00      -76.710      -15.364      -10.047       10.004        8.344        7.992      100.084       69.631       63.865        0.323        0.012       78.233        2.987        0.001      330.358       -2.323      865.212
11/24/2013  02:37:00      -86.714      -16.311      -16.585        9.143        7.787        8.705       83.586       60.639       75.774        0.414        0.011       88.235        4.320        0.002      330.325       -2.373      865.211
11/24/2013  02:38:00      -74.532      -28.374       -5.982       17.035       18.378        9.913      290.187      337.765       98.259        0.356        0.036       79.750        7.525        0.009      330.313       -2.392      865.210
11/24/2013  02:39:00      -87.206       -8.855      -13.748       12.615        9.535       10.566      159.136       90.914      111.646        0.412        0.018       87.655        4.700        0.003      330.253       -2.493      865.216
11/24/2013  02:40:00      -74.118      -16.185      -13.264       13.922        9.490        7.563      193.820       90.052       57.206        0.314        0.017       75.865        3.161        0.002      330.274       -2.456      865.217
11/24/2013  02:41:00      -84.288      -12.725       -9.534        9.295       11.324       10.326       86.404      128.230      106.620        0.384        0.016       85.244        7.285        0.007      330.264       -2.475      865.207
11/24/2013  02:42:00      -82.953       -4.800      -10.291        7.211        7.834        7.620       51.993       61.373       58.066        0.359        0.009       83.092        2.154        0.001      330.246       -2.502      865.195
11/24/2013  02:43:00      -64.876       -3.599      -10.922        8.821        8.345        5.803       77.807       69.639       33.680        0.226        0.009       64.976        2.897        0.002      330.274       -2.458      865.177
11/24/2013  02:44:00      -42.887      -13.453       -6.256       13.305        9.487        6.900      177.017       89.995       47.608        0.119        0.016       44.948        7.553        0.028      330.340       -2.350      865.167
11/24/2013  02:45:00      -35.915       -4.698       -5.803       11.909        9.071        7.128      141.828       82.284       50.813        0.081        0.014       36.221        4.295        0.014      330.319       -2.386      865.162
11/24/2013  02:46:00      -46.223      -12.264       -5.825       12.821        8.421        7.592      164.377       70.917       57.632        0.131        0.015       47.822        5.914        0.015      330.363       -2.313      865.148
11/24/2013  02:47:00      -62.733      -17.030      -12.343        8.861        8.898        5.710       78.518       79.175       32.601        0.228        0.010       65.003        4.759        0.005      330.324       -2.375      865.129
11/24/2013  02:48:00      -86.709      -22.474      -13.260       13.653       11.541        8.654      186.403      133.196       74.891        0.430        0.020       89.575        6.222        0.005      330.374       -2.295      865.108
11/24/2013  02:49:00     -104.825      -13.953      -13.899       15.111       11.569        8.765      228.329      133.840       76.833        0.591        0.022      105.750        6.972        0.004      330.282       -2.445      865.085
11/24/2013  02:50:00     -108.622      -18.266      -14.381       16.203       13.521       11.386      262.546      182.818      129.645        0.646        0.029      110.147       10.448        0.009      330.223       -2.541      865.073
11/24/2013  02:51:00     -102.606      -12.477      -13.045       19.318       10.387       11.300      373.169      107.896      127.685        0.573        0.030      103.361       12.142        0.014      330.250       -2.497      865.078
11/24/2013  02:52:00      -89.041      -12.887       -9.458       22.217       14.317       11.401      493.593      204.964      129.987        0.451        0.041       89.969       11.095        0.015      330.198       -2.583      865.087
11/24/2013  02:53:00      -84.509       -3.491      -10.468       23.461       13.992       12.021      550.421      195.786      144.510        0.408        0.045       84.581       11.120        0.017      330.181       -2.611      865.109
11/24/2013  02:54:00     -114.369       -1.240      -13.750       18.825        9.933       10.663      354.362       98.656      113.706        0.692        0.028      114.376        8.675        0.006      330.212       -2.560      865.112
11/24/2013  02:55:00     -107.800       -4.557      -12.001       16.095        8.259       11.298      259.041       68.214      127.642        0.612        0.023      107.896       11.615        0.012      330.222       -2.544      865.120
11/24/2013  02:56:00      -89.809      -11.425      -12.075       17.155       15.478       13.820      294.304      239.567      190.985        0.453        0.036       90.533       11.635        0.017      330.166       -2.634      865.123
11/24/2013  02:57:00     -109.631      -19.778      -13.218       27.441       17.603       13.486      753.007      309.878      181.861        0.691        0.062      111.401       12.038        0.012      330.129       -2.698      865.112
11/24/2013  02:58:00     -104.878      -27.763      -13.394       15.164       14.350       14.008      229.932      205.928      196.212        0.629        0.032      108.491        3.384        0.001      330.083       -2.771      865.105
11/24/2013  02:59:00      -99.204      -15.070      -10.816       10.654       10.406        6.091      113.510      108.276       37.096        0.522        0.013      100.342        4.220        0.002      330.126       -2.701      865.105
11/24/2013  03:00:00      -91.917      -19.585      -10.555       16.483       10.073       12.401      271.701      101.459      153.783        0.474        0.026       93.981        9.725        0.011      330.108       -2.732      865.106
11/24/2013  03:01:00     -100.070      -20.533      -11.863        8.450        6.820        8.761       71.398       46.518       76.761        0.539        0.010      102.155        4.375        0.002      330.131       -2.695      865.103
11/24/2013  03:02:00      -99.879      -27.303      -13.992       11.100       10.412        7.963      123.215      108.401       63.416        0.561        0.015      103.544        5.168        0.002      330.164       -2.640      865.098
11/24/2013  03:03:00      -80.475      -28.672      -10.798       17.565       10.988        9.685      308.532      120.737       93.798        0.397        0.026       85.430        7.647        0.008      330.169       -2.631      865.097
11/24/2013  03:04:00      -89.991      -18.981       -7.913        8.589        8.252        6.343       73.763       68.094       40.228        0.435        0.009       91.971        3.729        0.002      330.228       -2.534      865.104
11/24/2013  03:05:00      -97.249      -10.436      -10.436       18.190       11.395        8.874      330.861      129.855       78.757        0.511        0.027       97.807        4.746        0.002      330.156       -2.651      865.114
11/24/2013  03:06:00      -89.129      -13.860       -8.611       25.422       14.188       12.614      646.277      201.302      159.124        0.461        0.050       90.200       12.629        0.020      330.091       -2.760      865.125
11/24/2013  03:07:00      -99.411      -19.639      -11.331       15.554       12.548       10.281      241.932      157.458      105.697        0.545        0.025      101.333        7.841        0.006      330.108       -2.732      865.128
11/24/2013  03:08:00      -87.529      -17.114      -11.516       17.478       10.010        8.763      305.465      100.206       76.797        0.428        0.024       89.186        4.986        0.003      330.122       -2.710      865.117
11/24/2013  03:09:00      -84.158      -13.659       -9.730       16.316       11.966        8.207      266.228      143.177       67.360        0.392        0.024       85.259        7.882        0.009      330.018       -2.875      865.105
11/24/2013  03:10:00      -83.923      -18.320      -16.577       21.844       15.417       10.622      477.177      237.677      112.817        0.424        0.041       85.899       10.766        0.016      330.043       -2.836      865.110
11/24/2013  03:11:00      -71.777      -12.295      -12.644       18.043       13.177       10.906      325.557      173.642      118.949        0.304        0.031       72.823        7.997        0.012      330.032       -2.855      865.120
11/24/2013  03:12:00      -94.770       -8.561       -8.310       18.913       13.772       10.141      357.718      189.676      102.837        0.489        0.033       95.155       11.119        0.014      330.023       -2.868      865.111
11/24/2013  03:13:00      -78.098      -21.139      -10.385       10.270        7.659        8.030      105.466       58.667       64.477        0.344        0.011       80.908        5.392        0.004      330.014       -2.885      865.106
11/24/2013  03:14:00      -71.008      -20.716      -14.223       16.235       12.648        9.171      263.570      159.984       84.100        0.309        0.025       73.968        7.219        0.010      329.943       -3.001      865.094
11/24/2013  03:15:00      -72.566       -6.561      -13.698       17.470       13.778       12.653      305.208      189.826      160.103        0.308        0.033       72.862        5.770        0.006      329.938       -3.008      865.087
11/24/2013  03:16:00      -76.944       -7.430      -10.610       12.944        7.062        8.246      167.539       49.877       67.989        0.319        0.014       77.302        5.353        0.005      329.928       -3.026      865.079
11/24/2013  03:17:00      -70.284      -14.606      -10.862       18.994       16.921       10.463      360.780      286.308      109.485        0.301        0.038       71.785        9.398        0.017      329.927       -3.027      865.073
11/24/2013  03:18:00      -83.355       -8.663      -10.789       15.531       15.886       11.956      241.205      252.355      142.937        0.389        0.032       83.804        7.917        0.009      329.861       -3.134      865.063
11/24/2013  03:19:00      -59.028      -20.406       -9.950       14.285       14.063       11.734      204.064      197.771      137.697        0.227        0.027       62.456        8.181        0.017      329.891       -3.087      865.071
11/24/2013  03:20:00      -69.893      -14.962      -15.618       11.863        9.693        9.538      140.728       93.961       90.969        0.284        0.016       71.477        4.046        0.003      329.864       -3.130      865.081
11/24/2013  03:21:00      -61.137      -18.779      -15.473        9.005        9.981        7.077       81.088       99.614       50.090        0.228        0.012       63.956        4.584        0.005      329.892       -3.083      865.075
11/24/2013  03:22:00      -59.853      -12.337      -16.507       14.436       11.792        9.710      208.396      139.047       94.287        0.222        0.022       61.111        5.884        0.009      329.830       -3.185      865.068
11/24/2013  03:23:00      -49.187      -20.270      -14.283       14.379       16.854       13.623      206.752      284.043      185.599        0.186        0.034       53.200        8.123        0.023      329.859       -3.140      865.055
11/24/2013  03:24:00      -68.264      -33.171      -13.574       13.862       12.861       14.104      192.159      165.404      198.933        0.325        0.028       75.896        5.185        0.005      329.840       -3.169      865.042
11/24/2013  03:25:00      -85.521      -16.730       -8.063       17.667       14.391       14.664      312.111      207.101      215.034        0.420        0.037       87.142       12.190        0.020      329.770       -3.283      865.036
11/24/2013  03:26:00      -83.323       -7.302       -8.625       18.510       15.198       13.391      342.613      230.990      179.314        0.391        0.038       83.642        7.256        0.008      329.784       -3.261      865.033
11/24/2013  03:27:00      -57.600      -14.869       -9.673       27.049       13.952       15.597      731.646      194.658      243.260        0.240        0.058       59.488       14.486        0.059      329.797       -3.238      865.023
11/24/2013  03:28:00      -64.274       -6.966      -18.104       20.084       10.841       13.798      403.370      117.536      190.396        0.261        0.036       64.650       11.021        0.029      329.877       -3.110      865.014
11/24/2013  03:29:00      -70.295      -26.644       -9.650       13.374       13.006        9.361      178.869      169.167       87.634        0.309        0.022       75.175        4.203        0.003      329.884       -3.097      865.003
11/24/2013  03:30:00      -73.335       -6.636      -10.244       13.367        7.451        8.071      178.674       55.518       65.133        0.291        0.015       73.635        4.567        0.004      329.924       -3.033      865.004
11/24/2013  03:31:00      -75.758       -6.240      -12.042       14.183        8.152        8.200      201.159       66.459       67.242        0.313        0.017       76.014        5.276        0.005      329.867       -3.126      865.007
11/24/2013  03:32:00      -73.534      -15.928      -13.591        8.669       10.100        7.513       75.147      102.009       56.444        0.304        0.012       75.239        5.130        0.005      329.867       -3.124      865.001
11/24/2013  03:33:00      -76.375      -21.430       -9.950       13.838       11.316        8.297      191.499      128.060       68.832        0.339        0.019       79.325        4.132        0.003      329.878       -3.107      864.998
11/24/2013  03:34:00      -68.002      -11.552       -9.672       13.192        9.225        7.519      174.029       85.098       56.537        0.258        0.016       68.977        5.003        0.005      329.868       -3.123      865.002
11/24/2013  03:35:00      -75.337      -20.517       -8.149       18.329       11.678        9.232      335.943      136.375       85.221        0.336        0.028       78.081        9.319        0.014      329.842       -3.167      865.010
11/24/2013  03:36:00      -80.820      -24.683      -10.999        8.638       12.161        7.926       74.621      147.892       62.822        0.377        0.014       84.505        3.947        0.002      329.818       -3.205      865.009
11/24/2013  03:37:00      -71.755      -21.767       -7.816       18.359       12.453       13.566      337.047      155.087      184.049        0.318        0.034       74.984       11.929        0.025      329.827       -3.190      865.006
11/24/2013  03:38:00      -72.917      -11.990       -8.453       21.505       12.349       10.141      462.485      152.501      102.835        0.312        0.036       73.896       10.332        0.020      329.801       -3.233      865.003
11/24/2013  03:39:00      -90.095      -18.307       -7.751       25.206       13.012       11.573      635.329      169.315      133.932        0.473        0.047       91.936        9.921        0.012      329.766       -3.289      865.012
11/24/2013  03:40:00      -86.526      -25.126      -10.607       11.286       13.956       10.169      127.368      194.762      103.403        0.433        0.021       90.100        5.953        0.004      329.758       -3.302      865.018
11/24/2013  03:41:00      -96.376      -18.282      -10.170        8.671       10.943        7.745       75.179      119.756       59.982        0.499        0.013       98.095        4.471        0.002      329.765       -3.290      865.014
11/24/2013  03:42:00      -77.252      -16.374       -9.623       14.548       12.052       10.796      211.641      145.259      116.553        0.340        0.024       78.969        7.498        0.009      329.808       -3.221      865.005
11/24/2013  03:43:00     -120.257      -12.706      -16.355       18.057       13.922       11.973      326.054      193.829      143.344        0.778        0.033      120.926        8.822        0.005      329.773       -3.277      865.005
11/24/2013  03:44:00     -105.024      -19.670      -13.531       15.193       12.785        9.729      230.828      163.453       94.649        0.604        0.024      106.850        6.650        0.004      329.753       -3.310      865.012
11/24/2013  03:45:00      -97.946      -20.758       -9.301       21.435       17.173       12.074      459.451      294.922      145.793        0.551        0.045      100.121        9.845        0.010      329.761       -3.298      865.009
11/24/2013  03:46:00     -106.645      -17.381      -11.954       10.099       10.801        9.564      101.999      116.659       91.471        0.606        0.016      108.052        2.878        0.001      329.747       -3.321      865.006
11/24/2013  03:47:00     -108.271      -19.278      -14.825       12.672       10.600        9.045      160.581      112.355       81.810        0.633        0.018      109.974        5.692        0.003      329.706       -3.388      865.011
11/24/2013  03:48:00      -72.769      -11.648       -6.200       22.701       16.242       13.506      515.343      263.803      182.418        0.322        0.048       73.695       14.453        0.038      329.698       -3.401      865.014
11/24/2013  03:49:00     -106.049       -1.847      -14.657       21.770       10.900       10.760      473.951      118.801      115.786        0.609        0.035      106.065        8.656        0.007      329.732       -3.347      865.020
11/24/2013  03:50:00     -100.663       -4.608      -13.775       29.182       14.342       15.836      851.577      205.682      250.768        0.583        0.065      100.769       15.670        0.024      329.671       -3.445      865.024
11/24/2013  03:51:00      -96.411      -19.010       -7.169       21.689       17.755       12.374      470.391      315.242      153.122        0.532        0.047       98.267       11.434        0.014      329.735       -3.340      865.033
11/24/2013  03:52:00     -118.122      -22.088      -12.128       16.354       13.934        9.092      267.444      194.145       82.662        0.757        0.027      120.169        7.061        0.003      329.753       -3.311      865.042
11/24/2013  03:53:00      -81.708      -28.528      -15.341       21.418       16.299       11.552      458.748      265.642      133.441        0.429        0.043       86.545        9.043        0.011      329.661       -3.464      865.065
11/24/2013  03:54:00      -91.173      -20.820       -9.477       22.767       17.813       11.997      518.319      317.310      143.932        0.491        0.049       93.520        7.653        0.007      329.695       -3.406      865.095
11/24/2013  03:55:00      -74.379      -14.784      -11.186       12.333       10.542        8.172      152.095      111.143       66.784        0.310        0.017       75.834        4.906        0.004      329.741       -3.331      865.105
11/24/2013  03:56:00      -53.253      -12.909      -10.843        7.786        9.712        6.828       60.626       94.315       46.625        0.166        0.010       54.795        4.402        0.006      329.695       -3.405      865.113
11/24/2013  03:57:00      -78.994       -4.793       -9.238       14.224        9.075        6.930      202.318       82.358       48.029        0.334        0.017       79.140        5.778        0.005      329.700       -3.396      865.115
11/24/2013  03:58:00      -73.877      -22.135      -11.905        7.009        9.471        6.856       49.122       89.707       47.011        0.314        0.009       77.121        3.206        0.002      329.737       -3.339      865.122
11/24/2013  03:59:00      -65.900      -18.485      -12.431        8.079       11.115        6.545       65.277      123.550       42.841        0.254        0.012       68.443        1.858        0.001      329.765       -3.290      865.120
11/24/2013  04:00:00      -80.693      -17.952       -9.757       15.473       11.483        8.132      239.412      131.858       66.132        0.368        0.022       82.666        5.443        0.004      329.721       -3.362      865.119
11/24/2013  04:01:00      -87.255      -34.674      -14.146       11.783       12.409        7.133      138.842      153.987       50.877        0.468        0.017       93.893        6.038        0.004      329.797       -3.240      865.112
11/24/2013  04:02:00      -81.307      -38.384      -10.028        8.732       11.662        6.748       76.245      135.998       45.533        0.422        0.013       89.911        4.615        0.003      329.819       -3.205      865.109
11/24/2013  04:03:00      -95.276      -28.579      -14.109        8.067       12.304        8.689       65.077      151.394       75.491        0.519        0.015       99.470        4.605        0.002      329.729       -3.350      865.110
11/24/2013  04:04:00      -92.940      -17.702      -11.372       11.945       16.906       11.430      142.685      285.808      130.638        0.482        0.028       94.611        7.063        0.006      329.686       -3.421      865.120
11/24/2013  04:05:00      -89.246      -30.478      -12.719       11.857       10.025        7.916      140.599      100.491       62.666        0.468        0.015       94.307        4.187        0.002      329.802       -3.231      865.139
11/24/2013  04:06:00      -92.403      -30.360      -13.934       11.729       15.927        9.187      137.571      253.663       84.399        0.506        0.024       97.262        6.625        0.005      329.841       -3.168      865.157
11/24/2013  04:07:00      -98.273      -15.100      -14.568       12.033       10.910        8.319      144.799      119.038       69.203        0.522        0.017       99.427        6.278        0.004      329.780       -3.266      865.173
11/24/2013  04:08:00     -107.073      -16.784      -15.090        8.501       10.191        8.201       72.262      103.850       67.259        0.611        0.012      108.381        2.958        0.001      329.690       -3.414      865.183
11/24/2013  04:09:00     -109.388      -22.265      -11.505       20.389       17.064       16.693      415.693      291.178      278.644        0.679        0.049      111.631       14.007        0.016      329.651       -3.479      865.190
11/24/2013  04:10:00      -95.268      -24.683       -4.335       20.366       17.121       12.457      414.757      293.136      155.171        0.528        0.043       98.414       11.380        0.013      329.635       -3.505      865.188
11/24/2013  04:11:00      -92.955      -30.421       -6.349       16.598       13.911       11.790      275.490      193.518      139.003        0.511        0.030       97.806        9.664        0.010      329.630       -3.512      865.179
11/24/2013  04:12:00      -99.766      -26.293       -3.933       25.129       17.930       14.291      631.487      321.471      204.219        0.591        0.058      103.173       12.351        0.014      329.595       -3.571      865.171
11/24/2013  04:13:00     -123.002      -27.084      -19.963       12.332       10.198        8.695      152.087      103.997       75.597        0.830        0.017      125.948        3.860        0.001      329.674       -3.440      865.174
11/24/2013  04:14:00     -124.111      -21.659      -20.909       11.062       12.098        8.093      122.366      146.362       65.503        0.832        0.017      125.986        5.745        0.002      329.668       -3.451      865.182
11/24/2013  04:15:00     -125.274      -20.514      -15.459       14.083       13.904        9.877      198.343      193.318       97.555        0.842        0.024      126.942        7.497        0.003      329.673       -3.443      865.206
11/24/2013  04:16:00     -127.936      -27.195      -16.934       16.400       12.946       11.788      268.971      167.610      138.963        0.898        0.029      130.794        9.480        0.005      329.645       -3.488      865.218
11/24/2013  04:17:00     -119.771      -34.274      -15.203       19.781       12.541       11.284      391.289      157.285      127.326        0.821        0.034      124.579        7.684        0.004      329.680       -3.432      865.220
11/24/2013  04:18:00     -130.420      -24.225      -18.590       16.017       16.157       13.635      256.548      261.050      185.914        0.932        0.035      132.651        9.223        0.005      329.600       -3.562      865.220
11/24/2013  04:19:00     -123.998      -21.937      -20.085       21.393       15.998       12.283      457.675      255.926      150.884        0.856        0.043      125.924       10.419        0.007      329.647       -3.485      865.217
11/24/2013  04:20:00     -111.542      -21.799       -9.943       22.832       15.647       12.537      521.298      244.822      157.169        0.697        0.046      113.652       10.283        0.008      329.609       -3.549      865.207
11/24/2013  04:21:00     -107.597      -12.223       -7.407       22.465       12.417       14.106      504.686      154.176      198.991        0.632        0.043      108.289       12.250        0.013      329.584       -3.588      865.209
11/24/2013  04:22:00     -107.194      -29.276      -11.499       13.248       15.503       10.762      175.502      240.332      115.818        0.651        0.027      111.119        5.752        0.003      329.600       -3.562      865.221
11/24/2013  04:23:00     -117.272      -24.283      -13.109       15.128       15.244       10.369      228.845      232.388      107.526        0.754        0.028      119.760        3.680        0.001      329.614       -3.539      865.223
11/24/2013  04:24:00     -105.541      -37.465      -13.098       11.898        9.447       11.457      141.555       89.250      131.253        0.654        0.018      111.994        9.274        0.007      329.633       -3.508      865.221
11/24/2013  04:25:00      -93.564      -22.531       -9.521       11.701       14.992        8.678      136.918      224.752       75.313        0.489        0.022       96.239        7.315        0.006      329.647       -3.484      865.227
11/24/2013  04:26:00     -122.365      -20.097      -15.537       15.866       13.791       12.967      251.723      190.197      168.140        0.811        0.031      124.004       10.205        0.007      329.633       -3.509      865.233
11/24/2013  04:27:00     -123.231      -42.321      -14.479       14.349       15.267        9.983      205.906      233.081       99.663        0.886        0.027      130.295        6.139        0.002      329.608       -3.549      865.235
11/24/2013  04:28:00      -99.247      -29.069       -8.446       23.665       24.312       15.199      560.036      591.064      231.013        0.607        0.069      103.416       12.684        0.015      329.555       -3.636      865.237
11/24/2013  04:29:00     -104.667      -34.818      -13.801       27.596       25.590       16.372      761.550      654.863      268.032        0.702        0.084      110.306       14.435        0.017      329.561       -3.626      865.248
11/24/2013  04:30:00      -64.447      -27.598       -2.660       20.334       17.998       12.350      413.484      323.926      152.534        0.291        0.044       70.108        9.757        0.019      329.594       -3.573      865.251
11/24/2013  04:31:00      -90.769      -29.055       -9.156       13.466       20.719       10.839      181.337      429.297      117.477        0.495        0.036       95.306        6.334        0.004      329.632       -3.509      865.250
11/24/2013  04:32:00      -83.048      -40.710       -4.323       26.696       30.153       20.984      712.694      909.211      440.339        0.532        0.103       92.490       19.387        0.044      329.585       -3.586      865.253
11/24/2013  04:33:00     -109.584      -42.876      -17.545       21.437       15.796       10.585      459.560      249.525      112.048        0.749        0.041      117.673        8.220        0.005      329.565       -3.619      865.253
11/24/2013  04:34:00      -94.456      -46.985      -13.971       13.258       18.178       11.176      175.771      330.441      124.908        0.598        0.032      105.497        8.279        0.006      329.591       -3.579      865.258
11/24/2013  04:35:00      -99.879      -26.334       -8.106       22.616       17.385       14.546      511.481      302.247      211.574        0.588        0.051      103.292        8.187        0.006      329.602       -3.560      865.265
11/24/2013  04:36:00      -89.552      -37.972       -9.321       14.533       20.996       15.459      211.222      440.816      238.977        0.522        0.045       97.270        7.054        0.005      329.569       -3.613      865.264
11/24/2013  04:37:00     -106.288      -31.862      -15.529        9.108        8.572        7.781       82.951       73.475       60.544        0.639        0.011      110.960        4.180        0.001      329.568       -3.617      865.273
11/24/2013  04:38:00     -112.267      -24.754      -13.326       12.959       11.258        9.634      167.931      126.750       92.808        0.689        0.019      114.963        5.087        0.002      329.649       -3.482      865.270
11/24/2013  04:39:00     -119.406      -28.052      -14.894       13.199       12.479       10.220      174.214      155.724      104.459        0.785        0.022      122.657        6.177        0.003      329.664       -3.456      865.260
11/24/2013  04:40:00     -126.782      -24.217      -15.998       13.692       12.443       13.102      187.482      154.831      171.663        0.871        0.026      129.074        8.251        0.004      329.676       -3.437      865.260
11/24/2013  04:41:00     -146.477      -18.112      -17.497       17.566       17.191       13.226      308.550      295.522      174.914        1.143        0.039      147.593        7.215        0.002      329.576       -3.599      865.265
11/24/2013  04:42:00     -150.537       -6.062      -14.583       28.657       23.149       21.643      821.219      535.863      468.412        1.237        0.091      150.659       17.285        0.013      329.474       -3.767      865.273
11/24/2013  04:43:00     -127.080      -27.003       -4.791       25.659       19.824       12.845      658.403      392.982      164.998        0.906        0.061      129.918       11.260        0.008      329.406       -3.878      865.264
11/24/2013  04:44:00      -99.963      -32.199       -9.676       18.363       25.485       16.328      337.191      649.465      266.591        0.619        0.063      105.021        6.969        0.004      329.459       -3.791      865.257
11/24/2013  04:45:00      -90.211      -39.141      -11.821       25.051       25.072       16.820      627.536      628.589      282.903        0.567        0.077       98.336        6.724        0.005      329.513       -3.704      865.264
11/24/2013  04:46:00      -93.713      -35.821       -7.211       19.590       22.724       13.357      383.781      516.387      178.400        0.560        0.054      100.326       10.229        0.010      329.541       -3.658      865.289
11/24/2013  04:47:00     -101.430      -50.470      -11.645       15.582       15.923       10.372      242.811      253.527      107.578        0.679        0.030      113.293        8.310        0.005      329.639       -3.499      865.300
11/24/2013  04:48:00     -121.530      -47.487      -17.216       11.943       15.275       11.247      142.635      233.312      126.485        0.891        0.025      130.478        7.791        0.004      329.737       -3.337      865.304
11/24/2013  04:49:00      -93.855      -55.177       -4.518       28.005       22.959       13.695      784.265      527.095      187.565        0.669        0.075      108.873       13.257        0.015      329.689       -3.416      865.306
11/24/2013  04:50:00     -105.140      -55.894       -3.076       26.479       17.059       14.232      701.133      291.003      202.537        0.769        0.060      119.073       12.448        0.011      329.682       -3.426      865.305
11/24/2013  04:51:00      -97.045      -54.255       -6.499       21.335       12.476       13.064      455.164      155.662      170.664        0.659        0.039      111.181        7.995        0.005      329.672       -3.444      865.313
11/24/2013  04:52:00     -112.800      -33.634       -9.894       23.537       17.430       12.489      553.993      303.815      155.973        0.748        0.051      117.708       12.536        0.011      329.674       -3.439      865.320
11/24/2013  04:53:00     -120.256      -34.728       -7.235       22.941       16.914       12.664      526.273      286.099      160.366        0.835        0.049      125.170       11.440        0.008      329.652       -3.476      865.323
11/24/2013  04:54:00     -108.239      -41.403        2.979       23.630       20.778       12.459      558.387      431.708      155.234        0.729        0.057      115.888        9.884        0.007      329.606       -3.553      865.325
11/24/2013  04:55:00     -100.532      -55.246        5.052       26.088       28.504       17.196      680.564      812.460      295.712        0.749        0.089      114.712        8.226        0.005      329.613       -3.541      865.329
11/24/2013  04:56:00     -100.569      -42.834        0.590       33.816       22.060       21.234     1143.528      486.652      450.890        0.701        0.104      109.311       18.781        0.030      329.570       -3.610      865.339
11/24/2013  04:57:00      -71.926      -37.359        6.133       25.394       20.229       14.206      644.840      409.210      201.804        0.393        0.063       81.050       10.382        0.016      329.530       -3.675      865.362
11/24/2013  04:58:00      -91.569      -35.622       -3.635       22.370       17.399       12.041      500.406      302.726      144.975        0.531        0.047       98.254        8.452        0.007      329.598       -3.565      865.379
11/24/2013  04:59:00      -61.614      -34.918       -4.600       33.771       14.291       13.063     1140.450      204.226      170.644        0.328        0.076       70.820       13.843        0.038      329.498       -3.729      865.383
11/24/2013  05:00:00      -97.520      -40.125        1.008       15.674       16.921       14.196      245.689      286.318      201.529        0.593        0.037      105.452        9.634        0.008      329.519       -3.696      865.393
11/24/2013  05:01:00      -93.697      -45.974       -1.935       20.640       17.553       11.029      425.998      308.112      121.645        0.588        0.043      104.368        8.928        0.007      329.589       -3.580      865.398
11/24/2013  05:02:00      -71.940      -43.407        0.626       30.066       17.352       11.687      903.942      301.099      136.590        0.420        0.067       84.021        9.226        0.012      329.583       -3.590      865.398
11/24/2013  05:03:00      -35.348      -31.798        5.504       32.660       21.797       18.205     1066.697      475.107      331.406        0.208        0.094       47.545       15.814        0.111      329.629       -3.513      865.392
11/24/2013  05:04:00      -75.972      -31.103       -4.388       13.366       16.843       10.903      178.643      283.695      118.884        0.367        0.029       82.093        7.302        0.008      329.598       -3.564      865.387
11/24/2013  05:05:00      -69.790      -35.400       -4.762       17.155       16.191       11.400      294.297      262.152      129.964        0.342        0.034       78.255        7.581        0.009      329.607       -3.550      865.392
11/24/2013  05:06:00      -80.996      -22.910       -5.518       12.686       12.467       12.254      160.945      155.434      150.165        0.379        0.023       84.174        6.211        0.005      329.589       -3.580      865.402
11/24/2013  05:07:00      -92.115      -18.838      -13.589       12.214       14.449       11.375      149.170      208.760      129.389        0.476        0.024       94.021        1.226        0.000      329.551       -3.641      865.415
11/24/2013  05:08:00      -85.605       -5.789       -9.031       23.623       13.471       10.814      558.052      181.480      116.951        0.415        0.043       85.801        5.947        0.005      329.448       -3.810      865.430
11/24/2013  05:09:00      -84.439      -11.429      -11.347       13.850       12.313       10.329      191.826      151.604      106.685        0.392        0.023       85.209        4.261        0.003      329.460       -3.790      865.445
11/24/2013  05:10:00      -76.245      -22.019       -8.974       12.298       12.515        9.232      151.237      156.618       85.223        0.339        0.020       79.361        6.084        0.006      329.478       -3.760      865.456
11/24/2013  05:11:00      -73.598      -17.746       -1.819        8.649        9.816        6.791       74.797       96.362       46.120        0.298        0.011       75.707        3.299        0.002      329.500       -3.723      865.459
11/24/2013  05:12:00      -62.318      -17.977       -0.738       13.469       10.788        8.896      181.401      116.372       79.142        0.229        0.019       64.859        6.204        0.009      329.499       -3.727      865.456
11/24/2013  05:13:00      -80.955       -5.843       -8.686       22.009        9.097        9.178      484.401       82.762       84.244        0.366        0.033       81.166        9.362        0.013      329.466       -3.780      865.449
11/24/2013  05:14:00      -98.354       -7.167      -13.512        8.906        9.093        8.047       79.316       82.687       64.752        0.507        0.011       98.615        4.233        0.002      329.452       -3.803      865.449
11/24/2013  05:15:00      -98.914      -19.761      -17.881        8.956        9.038        7.922       80.215       81.683       62.764        0.536        0.011      100.868        4.817        0.002      329.492       -3.738      865.453
11/24/2013  05:16:00      -96.982      -23.164      -11.235       12.997       13.766        9.943      168.922      189.501       98.864        0.526        0.023       99.710        5.708        0.003      329.372       -3.935      865.457
11/24/2013  05:17:00      -96.556      -20.042       -9.006       16.006       16.136       15.183      256.196      260.355      230.533        0.528        0.037       98.614       11.459        0.014      329.297       -4.057      865.466
11/24/2013  05:18:00      -89.427      -28.379      -15.445       19.945       22.778       12.015      397.803      518.837      144.364        0.505        0.053       93.822       14.089        0.023      329.241       -4.148      865.475
11/24/2013  05:19:00      -88.790      -27.258       -7.461       17.355       15.601       12.676      301.188      243.404      160.672        0.469        0.035       92.880        4.594        0.002      329.184       -4.241      865.478
11/24/2013  05:20:00      -68.841      -16.435       -5.278       21.885       17.407       10.838      478.968      302.986      117.462        0.297        0.045       70.775        8.927        0.016      329.142       -4.310      865.495
11/24/2013  05:21:00      -64.435      -16.354       -7.907       14.321       12.050       11.406      205.099      145.210      130.094        0.248        0.024       66.478        8.758        0.017      329.138       -4.318      865.510
11/24/2013  05:22:00      -79.320       -8.981       -6.640       20.787       14.805       12.647      432.091      219.183      159.945        0.361        0.041       79.827       11.612        0.021      329.202       -4.212      865.511
11/24/2013  05:23:00      -92.617       -4.969       -9.992       22.239       12.505       10.632      494.557      156.383      113.032        0.473        0.038       92.750        9.400        0.010      329.199       -4.218      865.517
11/24/2013  05:24:00      -93.340      -11.188       -9.629       16.117       10.556        9.172      259.770      111.420       84.133        0.469        0.023       94.008        5.592        0.004      329.175       -4.258      865.535
11/24/2013  05:25:00      -92.761      -19.846      -14.019       15.459       14.160       11.056      238.973      200.505      122.241        0.488        0.028       94.860        7.041        0.006      329.156       -4.287      865.549
11/24/2013  05:26:00      -86.463       -9.891      -15.131       16.913        9.603       10.088      286.038       92.209      101.763        0.414        0.024       87.026        9.245        0.011      329.151       -4.296      865.565
11/24/2013  05:27:00      -81.547      -19.789      -11.333       14.162       10.809        9.057      200.574      116.827       82.028        0.378        0.020       83.914        5.173        0.004      329.174       -4.258      865.580
11/24/2013  05:28:00      -87.480      -12.185      -12.779       12.550       11.430        7.203      157.494      130.634       51.885        0.415        0.017       88.325        4.262        0.002      329.165       -4.274      865.589
11/24/2013  05:29:00      -84.159       -7.918      -11.691       17.190       11.044        7.765      295.487      121.978       60.298        0.388        0.024       84.531        7.372        0.008      329.232       -4.163      865.600
11/24/2013  05:30:00      -95.279       -9.971       -9.965       15.565       10.696        8.898      242.280      114.403       79.179        0.486        0.022       95.800        7.436        0.006      329.181       -4.246      865.602
11/24/2013  05:31:00      -98.585       -6.969       -8.884       10.775        8.337        7.494      116.101       69.505       56.158        0.504        0.012       98.831        4.970        0.003      329.173       -4.260      865.609
11/24/2013  05:32:00      -99.330      -13.021      -13.738       10.072       10.054        7.469      101.454      101.074       55.779        0.524        0.013      100.180        4.706        0.002      329.205       -4.208      865.620
11/24/2013  05:33:00     -102.174      -16.857       -9.052       16.512       13.038       10.427      272.640      169.989      108.720        0.568        0.028      103.555        7.773        0.006      329.150       -4.297      865.629
11/24/2013  05:34:00     -100.053      -14.701      -10.888       15.987       13.774       12.707      255.576      189.720      161.460        0.548        0.030      101.127        9.228        0.008      329.188       -4.235      865.646
11/24/2013  05:35:00      -99.561       -7.406      -12.648        8.751       11.770        7.710       76.573      138.543       59.448        0.520        0.014       99.836        3.416        0.001      329.307       -4.041      865.656
11/24/2013  05:36:00      -73.119       -8.649       -4.732       13.712       11.059       10.410      188.022      122.304      108.358        0.293        0.021       73.629        7.579        0.011      329.288       -4.071      865.665
11/24/2013  05:37:00      -74.729      -16.292      -13.169        6.322        9.876        6.675       39.971       97.526       44.556        0.310        0.009       76.485        2.608        0.001      329.260       -4.118      865.673
11/24/2013  05:38:00      -63.713       -7.814       -4.311       14.031        9.337        8.575      196.870       87.186       73.534        0.225        0.018       64.190        7.541        0.014      329.201       -4.214      865.681
11/24/2013  05:39:00      -80.494       -5.147       -6.084       12.146       10.973        7.287      147.518      120.411       53.107        0.343        0.016       80.658        3.187        0.002      329.179       -4.250      865.689
11/24/2013  05:40:00      -74.238      -12.042       -5.944       14.890        9.887        8.439      221.706       97.760       71.210        0.304        0.020       75.208        3.655        0.002      329.254       -4.129      865.698
11/24/2013  05:41:00      -66.560       -5.548       -9.355        9.495        5.899        7.093       90.154       34.804       50.317        0.236        0.009       66.790        2.212        0.001      329.318       -4.025      865.719
11/24/2013  05:42:00      -54.463      -10.214       -7.193        8.498        6.868        7.405       72.219       47.176       54.834        0.165        0.009       55.412        3.760        0.005      329.346       -3.978      865.745
11/24/2013  05:43:00      -43.257      -14.656       -5.457        8.245        7.827        5.074       67.984       61.257       25.744        0.114        0.008       45.672        3.914        0.007      329.376       -3.931      865.764
11/24/2013  05:44:00      -43.750       -8.028       -5.063        6.891        8.336        6.076       47.489       69.487       36.922        0.108        0.008       44.480        2.616        0.003      329.401       -3.888      865.790
11/24/2013  05:45:00      -46.203        3.435       -7.320        6.297        6.146        5.296       39.654       37.776       28.050        0.115        0.005       46.331        3.397        0.005      329.404       -3.882      865.806
11/24/2013  05:46:00      -45.827        4.107       -5.073       10.664        6.776        5.278      113.730       45.909       27.859        0.117        0.009       46.010        2.962        0.004      329.399       -3.890      865.819
11/24/2013  05:47:00      -52.800      -14.299       -5.974        8.415       10.199        5.815       70.814      104.026       33.819        0.162        0.010       54.702        4.386        0.006      329.396       -3.897      865.825
11/24/2013  05:48:00      -44.694      -18.244       -9.207       16.646        7.102        6.203      277.101       50.438       38.472        0.139        0.018       48.274        4.021        0.007      329.378       -3.925      865.819
11/24/2013  05:49:00      -30.724      -11.242      -12.180        8.859        6.182        6.549       78.474       38.212       42.887        0.069        0.008       32.716        3.883        0.014      329.351       -3.971      865.824
11/24/2013  05:50:00      -49.244      -13.040       -8.511        4.276        6.546        4.949       18.288       42.854       24.488        0.138        0.004       50.942        2.281        0.002      329.428       -3.842      865.838
11/24/2013  05:51:00      -39.431      -12.396       -5.410        9.275        7.382        5.256       86.030       54.499       27.630        0.095        0.008       41.333        4.434        0.012      329.405       -3.882      865.854
11/24/2013  05:52:00      -36.480      -13.721      -10.408        6.190        6.603        6.314       38.315       43.604       39.873        0.087        0.006       38.975        4.080        0.011      329.409       -3.873      865.874
11/24/2013  05:53:00      -29.530      -13.089       -5.221       12.870        8.640        5.671      165.628       74.655       32.160        0.067        0.014       32.301        2.040        0.004      329.434       -3.835      865.894
11/24/2013  05:54:00      -17.216      -13.632       -3.885       11.224        6.218        7.154      125.970       38.663       51.186        0.036        0.011       21.960        7.794        0.126      329.290       -4.070      865.918
11/24/2013  05:55:00      -43.816      -17.447       -8.445        7.015       11.059        5.896       49.211      122.309       34.767        0.125        0.010       47.162        5.135        0.012      329.328       -4.007      865.930
11/24/2013  05:56:00      -39.914      -17.210      -10.958       10.493        6.255        8.331      110.105       39.125       69.399        0.111        0.011       43.466        4.222        0.009      329.209       -4.201      865.933
11/24/2013  05:57:00      -11.965      -21.499      -14.627       13.281       11.808        8.600      176.373      139.419       73.964        0.060        0.019       24.604        7.953        0.104      329.304       -4.045      865.935
11/24/2013  05:58:00      -33.605      -14.466       -6.347        8.101        9.945        6.006       65.621       98.906       36.072        0.079        0.010       36.587        4.114        0.013      329.376       -3.928      865.941
11/24/2013  05:59:00      -30.337      -13.832       -7.252       13.390        9.430        7.657      179.296       88.934       58.633        0.075        0.016       33.342        4.260        0.016      329.209       -4.203      865.942
11/24/2013  06:00:00      -40.412      -13.331       -9.572       11.908       11.407        8.981      141.790      130.125       80.658        0.113        0.018       42.554        5.096        0.014      329.139       -4.315      865.950
11/24/2013  06:01:00      -49.412      -12.514      -11.854       11.011        8.373        9.635      121.251       70.111       92.824        0.151        0.014       50.972        4.600        0.008      329.128       -4.334      865.955
11/24/2013  06:02:00      -47.137       -9.123      -11.003       10.432       10.433        8.268      108.818      108.849       68.361        0.136        0.014       48.012        2.986        0.004      329.127       -4.334      865.958
11/24/2013  06:03:00      -54.268      -14.678      -13.510        7.224        9.108        7.948       52.184       82.958       63.178        0.177        0.010       56.218        3.062        0.003      329.179       -4.250      865.962
11/24/2013  06:04:00      -61.817      -20.124      -12.235        7.470        7.849        7.824       55.794       61.609       61.221        0.228        0.009       65.010        2.995        0.002      329.163       -4.277      865.959
11/24/2013  06:05:00      -60.319      -20.268       -5.138       13.957       13.203       10.093      194.792      174.316      101.865        0.227        0.024       63.633        8.136        0.016      329.059       -4.446      865.952
11/24/2013  06:06:00      -73.961      -17.210       -7.704       16.179       11.404        8.522      261.764      130.042       72.626        0.315        0.023       75.937        5.691        0.006      329.060       -4.446      865.948
11/24/2013  06:07:00      -84.064      -18.647      -18.191       18.148       17.141       12.683      329.351      293.818      160.854        0.426        0.039       86.107       10.075        0.014      329.012       -4.524      865.935
11/24/2013  06:08:00      -78.451      -16.830      -11.388       25.496       15.462       11.325      650.070      239.073      128.259        0.379        0.051       80.236       10.834        0.018      328.963       -4.603      865.927
11/24/2013  06:09:00      -78.865      -18.904       -8.703       12.043       13.783       10.970      145.043      189.965      120.338        0.355        0.023       81.099        8.233        0.010      328.945       -4.631      865.928
11/24/2013  06:10:00      -59.510      -31.191      -12.953       17.269       16.231       12.314      298.222      263.437      151.636        0.270        0.036       67.189        7.298        0.012      328.968       -4.594      865.930
11/24/2013  06:11:00      -74.142      -26.751      -12.974       10.772       13.404        8.778      116.033      179.661       77.056        0.338        0.019       78.820        7.308        0.009      328.984       -4.569      865.940
11/24/2013  06:12:00     -104.874       -9.663      -15.185       18.937       13.472       10.230      358.595      181.492      104.647        0.598        0.032      105.318        5.869        0.003      328.972       -4.588      865.941
11/24/2013  06:13:00      -90.781      -17.722      -12.106       18.063       15.180       12.813      326.256      230.436      164.175        0.471        0.036       92.495        9.724        0.011      328.949       -4.625      865.950
11/24/2013  06:14:00     -106.683       -3.516      -14.334       19.874       12.316       10.515      394.995      151.690      110.555        0.613        0.033      106.741        5.275        0.002      329.006       -4.534      865.948
11/24/2013  06:15:00      -87.825      -31.762       -8.255       20.054       19.025       14.828      402.180      361.970      219.879        0.489        0.049       93.392        7.339        0.006      328.986       -4.565      865.948
11/24/2013  06:16:00     -112.846      -19.962       -5.795       20.544       25.531       17.069      422.041      651.857      291.362        0.727        0.068      114.598       12.419        0.012      328.974       -4.586      865.941
11/24/2013  06:17:00      -86.796      -20.402       -7.945       19.826       37.129       15.554      393.088     1378.550      241.934        0.501        0.101       89.162        6.503        0.005      328.934       -4.649      865.930
11/24/2013  06:18:00      -79.654      -16.916       -7.241       29.351       24.435       14.481      861.480      597.064      209.689        0.418        0.083       81.430       11.224        0.019      328.952       -4.621      865.937
11/24/2013  06:19:00      -95.213      -38.974      -13.552       25.984       19.982       14.548      675.190      399.266      211.650        0.603        0.064      102.881       13.961        0.018      328.963       -4.601      865.952
11/24/2013  06:20:00      -54.957      -24.804       -4.927       29.327       22.483       18.221      860.063      505.469      332.011        0.268        0.085       60.295       16.257        0.073      329.031       -4.491      865.971
11/24/2013  06:21:00      -86.127      -20.756      -12.123       21.255       24.605       13.886      451.789      605.415      192.818        0.462        0.063       88.593        6.113        0.005      329.002       -4.539      865.979
11/24/2013  06:22:00      -76.402      -20.645       -6.431       24.910       27.865       18.020      620.501      776.479      324.731        0.401        0.086       79.142        6.353        0.006      328.984       -4.569      865.989
11/24/2013  06:23:00      -73.389      -24.162      -19.218       21.044       21.546       14.280      442.852      464.232      203.918        0.372        0.056       77.264        9.912        0.016      328.997       -4.546      866.001
11/24/2013  06:24:00      -62.983      -22.118      -10.178       22.535       22.697       17.594      507.818      515.159      309.560        0.295        0.067       66.754       14.192        0.045      329.029       -4.495      866.011
11/24/2013  06:25:00      -67.308      -36.272      -21.625       14.661       14.382        9.900      214.948      206.849       98.011        0.342        0.026       76.459        5.212        0.005      329.073       -4.423      866.019
11/24/2013  06:26:00      -49.035      -31.350      -14.578       17.046       14.363       13.982      290.563      206.283      195.487        0.215        0.035       58.200        8.299        0.020      329.207       -4.205      866.041
11/24/2013  06:27:00      -55.136      -34.566      -19.125       18.740       15.178       15.168      351.192      230.376      230.063        0.271        0.041       65.076        7.669        0.014      329.228       -4.170      866.057
11/24/2013  06:28:00      -80.090      -37.877      -14.162       15.204       16.560       12.925      231.149      274.239      167.048        0.436        0.034       88.595        8.312        0.009      329.042       -4.474      866.049
11/24/2013  06:29:00     -102.024      -18.812      -15.320       12.734       13.993        9.917      162.165      195.808       98.355        0.573        0.023      103.744        6.956        0.004      328.930       -4.658      866.041
11/24/2013  06:30:00     -110.741       -6.977      -18.965       15.932       14.204        9.611      253.822      201.756       92.372        0.661        0.027      110.960        3.799        0.001      328.944       -4.634      866.032
11/24/2013  06:31:00      -86.316      -28.196      -10.058       20.491       19.500       16.920      419.866      380.235      286.276        0.472        0.054       90.804       14.030        0.024      329.042       -4.473      866.032
11/24/2013  06:32:00     -113.141      -16.338      -14.859       34.232       21.438       13.846     1171.841      459.592      191.704        0.756        0.091      114.315       13.809        0.015      328.928       -4.660      866.028
11/24/2013  06:33:00      -75.613      -19.452      -11.439       33.256       22.207       15.564     1105.930      493.150      242.229        0.403        0.092       78.075       10.736        0.019      328.929       -4.659      866.034
11/24/2013  06:34:00      -70.059      -10.192       -9.634       34.533       29.551       18.407     1192.552      873.241      338.832        0.375        0.120       70.797       14.117        0.040      328.880       -4.737      866.048
11/24/2013  06:35:00      -48.477        2.040      -14.874       29.407       29.378       19.874      864.769      863.059      394.963        0.235        0.106       48.520       10.337        0.045      328.968       -4.597      866.079
11/24/2013  06:36:00      -49.318       18.673       -5.891       29.360       36.910       21.215      862.038     1362.313      450.091        0.274        0.134       52.734       14.120        0.072      329.122       -4.343      866.097
11/24/2013  06:37:00      -94.639       25.962       -7.809       46.157       35.600       24.808     2130.449     1267.379      615.451        0.685        0.201       98.136       23.079        0.055      329.146       -4.304      866.104
11/24/2013  06:38:00      -86.389       14.512      -13.472       52.130       44.504       27.813     2717.549     1980.618      773.547        0.666        0.274       87.599       24.213        0.076      329.145       -4.305      866.112
11/24/2013  06:39:00     -120.856       19.927      -18.591       40.676       37.674       22.314     1654.540     1419.351      497.909        0.946        0.179      122.488       11.725        0.009      329.303       -4.047      866.108
11/24/2013  06:40:00      -63.023        8.183      -14.703       54.055       26.065       18.776     2921.947      679.364      352.542        0.410        0.198       63.552       21.997        0.120      329.087       -4.401      866.102
11/24/2013  06:41:00      -35.474       -5.171       -1.544       39.035       31.818       21.825     1523.751     1012.376      476.328        0.215        0.151       35.848       18.889        0.278      329.073       -4.423      866.095
11/24/2013  06:42:00      -92.755       -8.869      -15.209       30.539       25.211       18.542      932.611      635.615      343.822        0.541        0.096       93.178       15.395        0.027      329.027       -4.499      866.099
11/24/2013  06:43:00      -70.689      -28.277       -5.789       20.298       22.212       17.560      411.998      493.378      308.359        0.352        0.061       76.135       12.245        0.026      329.028       -4.496      866.120
11/24/2013  06:44:00      -77.780      -24.586      -10.233       17.738       22.788       10.292      314.641      519.313      105.931        0.385        0.047       81.573        2.711        0.001      328.926       -4.662      866.139
11/24/2013  06:45:00      -68.766      -36.631      -19.126       23.593       22.222       13.235      556.649      493.822      175.171        0.383        0.061       77.914        7.037        0.008      328.979       -4.576      866.149
11/24/2013  06:46:00      -76.933      -22.942       -8.781       19.829       20.051       12.786      393.198      402.024      163.481        0.374        0.048       80.281        5.997        0.006      328.925       -4.665      866.152
11/24/2013  06:47:00      -96.266      -20.985      -17.345       25.411       24.973       14.435      645.712      623.630      208.356        0.574        0.074       98.526       13.971        0.020      328.890       -4.722      866.154
11/24/2013  06:48:00     -116.042      -33.845      -12.995       19.554       21.893       13.563      382.339      479.296      183.963        0.791        0.052      120.876        7.329        0.004      328.885       -4.729      866.155
11/24/2013  06:49:00      -98.345      -34.535       -8.264       28.359       27.751       18.060      804.238      770.124      326.148        0.642        0.095      104.232       12.635        0.015      328.891       -4.721      866.154
11/24/2013  06:50:00      -75.525      -26.405       -4.421       33.185       31.583       18.893     1101.249      997.479      356.929        0.444        0.123       80.008       12.242        0.023      328.955       -4.616      866.163
11/24/2013  06:51:00      -89.223      -39.820       -5.456       25.364       18.226       14.885      643.351      332.169      221.551        0.539        0.060       97.706       10.490        0.012      328.994       -4.552      866.172
11/24/2013  06:52:00     -107.885      -53.605       -7.543       38.175       31.947       16.822     1457.344     1020.610      282.990        0.866        0.138      120.469       11.833        0.010      328.985       -4.565      866.165
11/24/2013  06:53:00      -88.746      -41.696        2.730       45.429       34.753       21.737     2063.773     1207.765      472.494        0.668        0.187       98.053       23.452        0.057      328.961       -4.607      866.157
11/24/2013  06:54:00     -125.904      -25.815       -6.352       41.453       30.163       17.494     1718.364      909.811      306.024        0.975        0.147      128.523       18.400        0.020      328.980       -4.575      866.154
11/24/2013  06:55:00      -93.735      -27.524       -4.460       37.973       25.456       14.891     1441.986      648.004      221.745        0.594        0.116       97.692       18.629        0.036      328.934       -4.650      866.163
11/24/2013  06:56:00      -89.393      -24.576       -4.839       21.555       21.090       15.380      464.617      444.773      236.539        0.488        0.057       92.710        9.472        0.010      328.936       -4.646      866.171
11/24/2013  06:57:00      -67.879      -24.797       -8.995       17.218       12.211        9.655      296.457      149.116       93.211        0.292        0.027       72.267        5.992        0.007      328.975       -4.583      866.185
11/24/2013  06:58:00      -67.077      -13.704      -20.603       13.543       10.669       11.712      183.426      113.824      137.180        0.277        0.022       68.463       10.295        0.023      329.048       -4.465      866.194
11/24/2013  06:59:00      -84.459      -18.670      -19.485       19.166       18.651       15.587      367.326      347.873      242.969        0.441        0.048       86.498       10.417        0.015      329.107       -4.368      866.205
11/24/2013  07:00:00     -100.791      -12.920      -15.724       17.407        9.783        9.660      303.017       95.707       93.311        0.553        0.025      101.616        8.188        0.006      329.189       -4.234      866.218
11/24/2013  07:01:00      -98.089      -18.730      -16.163       17.556       14.876       10.884      308.207      221.304      118.468        0.544        0.032       99.862        8.519        0.007      329.168       -4.268      866.232
11/24/2013  07:02:00      -92.889      -27.491       -8.270       23.484       14.074       11.612      551.485      198.074      134.837        0.517        0.044       96.872       12.171        0.016      329.174       -4.257      866.237
11/24/2013  07:03:00      -91.632      -21.917       -5.635       20.060       15.369       11.294      402.400      236.195      127.548        0.484        0.038       94.217       10.121        0.012      329.069       -4.430      866.246
11/24/2013  07:04:00      -96.653      -16.588       -6.205       20.901       13.852       12.104      436.831      191.877      146.519        0.522        0.039       98.066       11.132        0.013      329.116       -4.354      866.245
11/24/2013  07:05:00      -54.865      -21.897        4.357       35.301       19.217       14.520     1246.151      369.300      210.825        0.267        0.091       59.073       17.690        0.090      329.074       -4.422      866.246
11/24/2013  07:06:00      -79.917       -9.106       -2.467       30.406       19.438       14.271      924.519      377.839      203.672        0.399        0.075       80.434       13.589        0.029      329.090       -4.397      866.243
11/24/2013  07:07:00      -93.022      -27.766      -12.978       12.246       15.179        9.734      149.964      230.415       94.752        0.503        0.024       97.077        4.117        0.002      329.207       -4.205      866.240
11/24/2013  07:08:00      -83.759      -21.432       -5.705       19.538       15.878       12.298      381.739      252.102      151.230        0.415        0.039       86.458       10.115        0.014      329.199       -4.217      866.237
11/24/2013  07:09:00      -97.727      -24.749       -6.647       18.716       16.781       10.693      350.296      281.617      114.350        0.548        0.037      100.813        6.478        0.004      329.166       -4.271      866.241
11/24/2013  07:10:00      -85.696      -12.413       -5.606       19.984       15.550       10.499      399.355      241.812      110.219        0.414        0.038       86.591        6.980        0.006      329.161       -4.281      866.250
11/24/2013  07:11:00      -99.645      -20.295       -9.436       13.349       13.622       10.430      178.206      185.566      108.792        0.545        0.024      101.691        7.140        0.005      329.158       -4.284      866.267
11/24/2013  07:12:00      -72.835      -19.673       -2.684       27.382       12.683       12.609      749.752      160.860      158.974        0.338        0.053       75.445       13.979        0.034      329.155       -4.289      866.277
11/24/2013  07:13:00     -102.061      -35.709       -5.119       18.330       14.561       11.167      335.998      212.029      124.712        0.620        0.034      108.127        7.590        0.005      329.189       -4.232      866.285
11/24/2013  07:14:00      -99.687      -32.196       -0.140       18.837       16.770       12.609      354.848      281.237      158.997        0.588        0.040      104.757        6.630        0.004      329.202       -4.213      866.303
11/24/2013  07:15:00      -96.201      -32.398       -0.157       28.609       18.163       18.014      818.472      329.890      324.518        0.589        0.074      101.510       18.289        0.032      329.183       -4.243      866.324
11/24/2013  07:16:00     -115.996      -40.705       -7.520       23.371       17.134       12.542      546.207      293.579      157.308        0.808        0.050      122.931       11.076        0.008      329.229       -4.168      866.351
11/24/2013  07:17:00     -120.575      -42.142       -7.763       25.120       18.778       13.145      631.028      352.614      172.780        0.877        0.058      127.727       10.984        0.007      329.218       -4.187      866.378
11/24/2013  07:18:00     -125.252      -45.815       -7.120       18.155       18.603       14.268      329.591      346.089      203.587        0.936        0.044      133.368       11.073        0.007      329.189       -4.233      866.404
11/24/2013  07:19:00     -115.989      -34.861       -3.132       25.845       24.606       13.972      667.963      605.451      195.228        0.807        0.073      121.115       12.329        0.010      329.184       -4.240      866.427
11/24/2013  07:20:00     -121.724      -28.113        0.700       35.920       20.604       15.810     1290.220      424.531      249.954        0.879        0.098      124.928       18.160        0.021      329.203       -4.209      866.434
11/24/2013  07:21:00     -112.907      -31.234       -3.631       32.361       20.864       14.450     1047.220      435.325      208.808        0.771        0.085      117.148       15.937        0.019      329.212       -4.195      866.446
11/24/2013  07:22:00     -141.581      -36.306      -13.249       19.349       14.040       12.602      374.384      197.134      158.818        1.113        0.037      146.162        8.453        0.003      329.271       -4.098      866.457
11/24/2013  07:23:00     -107.566      -39.221       -8.222       19.688       19.990       11.656      387.603      399.614      135.861        0.705        0.046      114.494       10.725        0.009      329.204       -4.209      866.456
11/24/2013  07:24:00      -93.738      -31.115      -11.748       19.954       19.872       11.518      398.165      394.911      132.675        0.541        0.046       98.767       10.257        0.011      329.228       -4.170      866.465
11/24/2013  07:25:00      -74.347      -15.438      -11.411       14.822       10.733       10.071      219.691      115.188      101.423        0.317        0.022       75.932        7.101        0.009      329.226       -4.173      866.475
11/24/2013  07:26:00      -78.659      -28.233       -9.519       13.589       18.181       12.384      184.670      330.543      153.366        0.387        0.033       83.572        8.187        0.010      329.283       -4.079      866.493
11/24/2013  07:27:00      -89.208       -8.445      -14.118        9.234       10.603        9.835       85.264      112.434       96.735        0.426        0.015       89.607        6.546        0.005      329.267       -4.104      866.492
11/24/2013  07:28:00      -84.250       -5.304      -10.075        9.680       11.851        9.735       93.706      140.443       94.766        0.378        0.016       84.417        3.686        0.002      329.283       -4.079      866.491
11/24/2013  07:29:00      -71.527      -10.903       -5.086       12.033       14.010        7.818      144.804      196.293       61.114        0.283        0.020       72.353        3.612        0.002      329.275       -4.093      866.488
11/24/2013  07:30:00      -60.983       -5.151       -9.081       16.216       13.822       10.299      262.953      191.038      106.079        0.219        0.028       61.200        7.941        0.017      329.250       -4.133      866.503
11/24/2013  07:31:00      -47.122       -1.837       -5.647        9.454        8.845        6.454       89.371       78.236       41.653        0.123        0.010       47.158        4.190        0.008      329.260       -4.116      866.519
11/24/2013  07:32:00      -52.212       -2.631       -6.974        7.877        5.952        7.181       62.040       35.421       51.569        0.147        0.007       52.278        4.691        0.008      329.309       -4.039      866.539
11/24/2013  07:33:00      -50.288      -12.620       -6.626        9.183        7.112        6.170       84.327       50.579       38.064        0.145        0.009       51.847        4.710        0.008      329.394       -3.900      866.552
11/24/2013  07:34:00      -48.033      -19.466       -4.867        8.540        6.931        4.928       72.927       48.045       24.284        0.143        0.007       51.827        3.666        0.005      329.419       -3.857      866.566
11/24/2013  07:35:00      -47.936       -6.790       -6.343        6.017        6.005        6.189       36.202       36.058       38.306        0.125        0.006       48.414        4.145        0.007      329.419       -3.857      866.571
11/24/2013  07:36:00      -58.900       -2.619       -7.972        8.986        7.461        7.750       80.749       55.670       60.057        0.187        0.010       58.959        4.106        0.005      329.463       -3.786      866.579
11/24/2013  07:37:00      -46.969       -4.478       -5.304       10.022        8.463        8.929      100.447       71.629       79.729        0.125        0.013       47.182        6.388        0.018      329.492       -3.738      866.580
11/24/2013  07:38:00      -51.198       -8.499       -6.300        8.544        8.477        6.286       73.008       71.853       39.519        0.146        0.009       51.898        4.669        0.008      329.519       -3.694      866.575
11/24/2013  07:39:00      -51.699       -8.704       -7.614        6.774        8.327        6.279       45.885       69.337       39.423        0.148        0.008       52.427        3.415        0.004      329.517       -3.697      866.571
11/24/2013  07:40:00      -58.866       -9.121       -8.020       10.952        9.709        7.408      119.946       94.256       54.871        0.194        0.013       59.569        5.271        0.008      329.582       -3.591      866.566
11/24/2013  07:41:00      -64.408       -6.915       -5.866       15.830        9.380        7.925      250.601       87.986       62.805        0.232        0.020       64.778        7.178        0.012      329.609       -3.547      866.579
11/24/2013  07:42:00      -75.904       -2.538       -7.380       14.660       10.057        7.175      214.904      101.147       51.488        0.309        0.018       75.946        2.282        0.001      329.659       -3.466      866.600
11/24/2013  07:43:00      -69.066       -1.338       -6.117       12.857        9.287        7.875      165.306       86.252       62.022        0.256        0.016       69.079        5.636        0.007      329.697       -3.402      866.621
11/24/2013  07:44:00      -68.850      -11.254       -8.871       14.940       12.297       10.162      223.197      151.218      103.262        0.271        0.024       69.764        3.348        0.002      329.717       -3.369      866.630
11/24/2013  07:45:00      -43.126       -6.249       -4.374       19.900        9.107       10.204      396.003       82.931      104.124        0.125        0.029       43.577       10.024        0.053      329.742       -3.329      866.640
11/24/2013  07:46:00      -51.600      -10.336       -3.614       13.600       12.027        9.163      184.969      144.651       83.969        0.160        0.021       52.625        6.697        0.016      329.701       -3.395      866.658
11/24/2013  07:47:00      -52.849       -9.224       -7.627       14.141        8.870        9.213      199.979       78.683       84.873        0.165        0.018       53.648        5.175        0.009      329.699       -3.400      866.676
11/24/2013  07:48:00      -42.258        4.370       -9.091       12.213        7.514        7.200      149.162       56.458       51.838        0.107        0.013       42.483        5.132        0.015      329.767       -3.288      866.686
11/24/2013  07:49:00      -41.291        2.257       -1.388        8.500        5.679       10.431       72.242       32.256      108.798        0.096        0.011       41.353        7.038        0.029      329.831       -3.185      866.692
11/24/2013  07:50:00      -47.931        2.780       -5.343        5.234        3.788        3.783       27.392       14.347       14.312        0.119        0.003       48.012        2.332        0.002      329.869       -3.120      866.696
11/24/2013  07:51:00      -37.365        2.637       -5.053        5.929        3.970        5.630       35.153       15.763       31.697        0.076        0.004       37.458        4.120        0.012      329.985       -2.931      866.694
11/24/2013  07:52:00      -40.037        8.113       -4.749        5.943        5.329        4.083       35.322       28.403       16.674        0.089        0.004       40.850        2.367        0.003      330.048       -2.830      866.690
11/24/2013  07:53:00      -35.450        9.521        0.191        5.600        5.092        3.666       31.358       25.926       13.443        0.071        0.004       36.706        2.508        0.005      330.091       -2.758      866.688
11/24/2013  07:54:00      -34.657        2.526        1.932        8.292       10.700        5.846       68.754      114.494       34.172        0.071        0.011       34.749        5.261        0.023      330.180       -2.612      866.685
11/24/2013  07:55:00      -12.782       -8.962       -7.004       11.892        9.056        6.005      141.415       82.010       36.057        0.028        0.013       15.611        5.031        0.104      330.266       -2.472      866.695
11/24/2013  07:56:00      -17.440      -10.422       -0.287       13.219       11.706        6.008      174.744      137.023       36.095        0.038        0.017       20.317        6.405        0.099      330.225       -2.539      866.702
11/24/2013  07:57:00      -24.873       -8.962       -4.777        5.526        4.677        4.192       30.542       21.873       17.570        0.040        0.003       26.438        2.546        0.009      330.215       -2.556      866.711
11/24/2013  07:58:00      -26.266       -9.547       -3.607        5.950        5.653        4.114       35.401       31.958       16.926        0.044        0.004       27.947        3.266        0.014      330.244       -2.508      866.722
11/24/2013  07:59:00      -26.962       -9.463       -3.383        7.426        4.077        3.546       55.143       16.621       12.575        0.046        0.004       28.575        3.078        0.012      330.287       -2.437      866.723
11/24/2013  08:00:00      -36.839       -9.864       -4.852        6.682        5.312        5.086       44.645       28.220       25.872        0.079        0.005       38.137        2.737        0.005      330.333       -2.360      866.728
11/24/2013  08:01:00      -42.111       -9.834       -7.855        6.246        4.736        4.621       39.015       22.433       21.354        0.101        0.004       43.244        3.805        0.008      330.332       -2.362      866.721
11/24/2013  08:02:00      -35.903      -11.890       -3.540        9.558        8.062        6.019       91.358       64.996       36.232        0.082        0.010       37.820        5.510        0.021      330.401       -2.250      866.718
11/24/2013  08:03:00      -44.681       -2.579       -3.138        7.187        8.176        5.726       51.649       66.839       32.783        0.108        0.008       44.756        3.241        0.005      330.360       -2.318      866.735
11/24/2013  08:04:00      -31.284       -1.245       -6.456        5.721        6.560        5.619       32.725       43.028       31.575        0.056        0.005       31.309        3.225        0.011      330.428       -2.206      866.761
11/24/2013  08:05:00      -27.130        2.472       -5.389        4.387        5.618        4.664       19.250       31.562       21.756        0.042        0.004       27.242        1.878        0.005      330.495       -2.095      866.775
11/24/2013  08:06:00      -25.304        4.203        0.419        9.406        6.471        7.126       88.472       41.872       50.783        0.042        0.009       25.651        6.546        0.065      330.590       -1.939      866.788
11/24/2013  08:07:00      -22.556       -1.305       -2.716       11.800        6.286        4.396      139.235       39.519       19.323        0.036        0.010       22.594        2.165        0.009      330.630       -1.873      866.793
11/24/2013  08:08:00      -12.305        2.372        0.822       10.933        8.052        7.321      119.529       64.833       53.600        0.020        0.012       12.531        4.080        0.106      330.897       -1.437      866.803
11/24/2013  08:09:00      -10.186        6.214       -6.449        9.161       11.227        9.847       83.918      126.050       96.958        0.025        0.015       11.932        6.151        0.266      330.863       -1.492      866.809
11/24/2013  08:10:00      -16.478       -0.448       -5.589        6.214        5.360        3.926       38.608       28.729       15.414        0.019        0.004       16.485        3.401        0.043      330.775       -1.637      866.819
11/24/2013  08:11:00      -30.871       -2.678       -6.721        5.353        5.447        6.335       28.655       29.672       40.133        0.055        0.005       30.987        3.694        0.014      330.657       -1.829      866.830
11/24/2013  08:12:00      -22.933       -5.074       -5.461        4.657        8.973        4.648       21.688       80.514       21.601        0.035        0.006       23.488        4.459        0.036      330.754       -1.671      866.848
11/24/2013  08:13:00      -15.975       -8.243        0.532        7.628        6.946        4.737       58.188       48.248       22.439        0.023        0.006       17.976        3.621        0.041      330.842       -1.527      866.862
11/24/2013  08:14:00      -28.844      -14.014       -1.371       12.419        8.579        7.341      154.223       73.604       53.887        0.066        0.014       32.069        3.653        0.013      330.803       -1.590      866.873
11/24/2013  08:15:00      -24.944       -7.144       -3.823        6.424        9.667        4.226       41.274       93.447       17.858        0.042        0.008       25.947        2.537        0.010      330.828       -1.550      866.862
11/24/2013  08:16:00      -14.656        2.168        3.430        7.415       10.647        8.681       54.981      113.368       75.366        0.024        0.012       14.816        8.053        0.295      331.077       -1.141      866.865
11/24/2013  08:17:00      -13.353        1.082       -1.863       15.556        7.369       12.956      241.986       54.309      167.852        0.032        0.023       13.396       10.106        0.569      331.208       -0.924      866.868
11/24/2013  08:18:00      -11.296      -16.127        3.750        8.208       12.109       12.573       67.367      146.635      158.080        0.039        0.019       19.690        7.493        0.145      331.092       -1.115      866.876
11/24/2013  08:19:00      -28.125       -5.527       -4.159        7.233        6.631        6.768       52.311       43.971       45.803        0.049        0.007       28.662        3.544        0.015      330.915       -1.405      866.887
11/24/2013  08:20:00      -26.834      -17.133        4.056        7.615        8.985        9.015       57.982       80.724       81.264        0.062        0.011       31.837        5.233        0.027      331.011       -1.249      866.895
11/24/2013  08:21:00      -14.171        5.532       33.903       13.889       23.256       19.221      192.903      540.835      369.449        0.124        0.055       15.213       15.966        1.101      331.575       -0.322      866.908
11/24/2013  08:22:00       17.324       61.133       67.467       25.216       23.274       12.927      635.830      541.687      167.115        0.497        0.067       63.541       10.475        0.027      331.306       -0.763      866.921
11/24/2013  08:23:00       24.297       60.674       57.895       36.811       30.050       26.010     1355.054      903.028      676.528        0.528        0.147       65.358       19.173        0.086      331.199       -0.939      866.930
11/24/2013  08:24:00       55.074       73.581       43.116       55.317       35.783       38.906     3060.005     1280.389     1513.686        0.808        0.293       91.909       36.209        0.155      331.061       -1.166      866.937
11/24/2013  08:25:00       20.007       51.005       53.434       40.398       35.253       25.633     1631.988     1242.752      657.040        0.469        0.177       54.789       26.219        0.229      331.209       -0.924      866.939
11/24/2013  08:26:00       54.632       51.981       54.551       29.596       33.093       26.034      875.902     1095.171      677.781        0.566        0.132       75.410       23.601        0.098      331.234       -0.882      866.945
11/24/2013  08:27:00       68.789       70.152       47.910       33.445       26.047       29.792     1118.581      678.452      887.550        0.732        0.134       98.251       20.580        0.044      331.080       -1.136      866.944
11/24/2013  08:28:00       26.859       52.104       57.775       34.656       26.432       22.211     1201.039      698.675      493.310        0.458        0.120       58.620       16.732        0.081      331.388       -0.629      866.950
11/24/2013  08:29:00        5.842       53.754       67.902       31.265       31.127       24.607      977.494      968.870      605.501        0.504        0.128       54.071       16.714        0.096      331.434       -0.554      866.960
11/24/2013  08:30:00       24.674       73.077       82.950       42.898       43.293       27.730     1840.244     1874.312      768.957        0.866        0.224       77.130       25.815        0.112      331.343       -0.703      866.969
11/24/2013  08:31:00       83.782       98.156       82.115       36.973       27.943       27.923     1367.015      780.811      779.713        1.316        0.146      129.050       14.509        0.013      331.046       -1.192      866.980
11/24/2013  08:32:00       48.443      106.431       90.366       42.510       34.150       28.288     1807.112     1166.225      800.212        1.281        0.189      116.937       24.006        0.042      331.132       -1.050      866.992
11/24/2013  08:33:00       47.724      115.751       97.404       57.265       36.229       42.015     3279.264     1312.550     1765.222        1.576        0.318      125.203       33.444        0.071      331.148       -1.024      867.000
11/24/2013  08:34:00      116.382      109.193       62.089       33.906       40.034       35.805     1149.622     1602.727     1281.997        1.668        0.202      159.586       29.680        0.035      331.023       -1.229      867.018
11/24/2013  08:35:00       78.469       85.630       62.028       66.972       36.447       39.101     4485.262     1328.372     1528.900        1.234        0.367      116.146       36.342        0.098      331.197       -0.943      867.026
11/24/2013  08:36:00       39.658       66.792       78.517       47.342       40.620       40.264     2241.272     1649.986     1621.174        0.885        0.276       77.678       30.608        0.155      331.340       -0.708      867.038
11/24/2013  08:37:00       90.048       93.140       66.029       34.754       33.228       32.112     1207.845     1104.103     1031.158        1.224        0.167      129.553       16.569        0.016      331.087       -1.125      867.050
11/24/2013  08:38:00       74.729       68.572       55.253       41.599       32.492       26.512     1730.500     1055.757      702.906        0.841        0.174      101.423       11.665        0.013      331.126       -1.060      867.057
11/24/2013  08:39:00       69.825      110.563       97.854       39.778       34.922       27.662     1582.254     1219.532      765.192        1.512        0.178      130.766       17.957        0.019      331.152       -1.017      867.060
11/24/2013  08:40:00      108.153       89.462       45.057       17.188       27.472       34.100      295.438      754.716     1162.786        1.197        0.111      140.359       23.325        0.028      331.027       -1.223      867.069
11/24/2013  08:41:00       59.287       74.255       62.065       45.735       40.257       45.068     2091.677     1620.643     2031.122        0.931        0.287       95.020       39.610        0.174      331.144       -1.030      867.070
11/24/2013  08:42:00      109.446       95.273       55.819       29.964       20.071       30.612      897.859      402.845      937.089        1.320        0.112      145.104       24.271        0.028      331.013       -1.244      867.063
11/24/2013  08:43:00       99.492       62.367       26.870       29.119       27.709       31.513      847.910      767.775      993.058        0.856        0.130      117.423       22.406        0.036      331.066       -1.158      867.069
11/24/2013  08:44:00       66.448       67.916        6.293       30.603       24.001       28.298      936.516      576.030      800.805        0.569        0.116       95.015       18.788        0.039      331.088       -1.122      867.070
11/24/2013  08:45:00       73.943       53.360       14.182       29.722       29.487       26.927      883.376      869.501      725.037        0.550        0.124       91.186        8.501        0.009      331.284       -0.799      867.077
11/24/2013  08:46:00       82.730       52.537       11.078       34.064       27.253       17.779     1160.336      742.700      316.076        0.597        0.111       98.002        5.867        0.004      331.262       -0.837      867.082
11/24/2013  08:47:00      122.008       80.991        4.967       27.633       25.184       32.209      763.589      634.246     1037.448        1.195        0.122      146.443       19.754        0.018      331.148       -1.025      867.080
11/24/2013  08:48:00       73.380       92.049       46.288       43.354       31.738       42.280     1879.527     1007.309     1787.591        1.034        0.234      117.718       34.016        0.083      331.376       -0.648      867.078
11/24/2013  08:49:00       23.914       49.869       66.949       34.953       31.862       22.789     1221.725     1015.201      519.343        0.515        0.138       55.307       22.679        0.168      331.595       -0.288      867.076
11/24/2013  08:50:00       21.522       -4.425       35.910       27.663       51.805       31.131      765.266     2683.803      969.149        0.309        0.221       21.972       32.879        2.239      331.575       -0.322      867.065
11/24/2013  08:51:00       11.899       45.060       66.940       27.156       27.003       18.871      737.439      729.175      356.112        0.424        0.091       46.605       11.641        0.062      331.633       -0.226      867.057
11/24/2013  08:52:00       67.535       25.917       10.366       33.766       29.675       24.713     1140.129      880.624      610.740        0.399        0.132       72.337       20.709        0.082      331.358       -0.679      867.056
11/24/2013  08:53:00       49.139       56.861        1.270       37.353       34.225       28.318     1395.227     1171.376      801.914        0.451        0.168       75.152       25.060        0.111      331.565       -0.338      867.053
11/24/2013  08:54:00       64.828       31.744        3.659       23.514       25.229       26.157      552.922      636.521      684.175        0.355        0.094       72.183       16.150        0.050      331.327       -0.728      867.063
11/24/2013  08:55:00       41.460       42.583       -0.402       17.776       22.576       28.694      315.995      509.698      823.325        0.259        0.082       59.433       19.892        0.112      331.363       -0.669      867.077
11/24/2013  08:56:00       59.688       43.725       10.341       17.901       19.221       21.660      320.440      369.454      469.154        0.337        0.058       73.990       13.818        0.035      331.475       -0.487      867.075
11/24/2013  08:57:00       36.721       37.473       26.862       33.490       26.355       20.285     1121.570      694.567      411.470        0.285        0.111       52.466       16.771        0.102      331.865        0.156      867.062
11/24/2013  08:58:00       16.846       39.209       12.861       25.559       33.656       30.572      653.247     1132.749      934.640        0.235        0.136       42.675       20.664        0.234      331.921        0.247      867.062
11/24/2013  08:59:00       47.060       32.916       13.032       29.254       49.608       19.926      855.818     2460.935      397.041        0.359        0.186       57.429       25.319        0.194      331.746       -0.040      867.063
11/24/2013  09:00:00       15.103       47.534       47.909       39.397       36.662       26.917     1552.162     1344.094      724.537        0.420        0.181       49.875       21.513        0.186      332.058        0.474      867.063
11/24/2013  09:01:00       56.812       53.287        5.909       38.346       30.787       32.249     1470.441      947.853     1039.967        0.478        0.173       77.891       27.804        0.127      331.893        0.203      867.073
11/24/2013  09:02:00       26.103       36.104       17.819       38.069       28.520       24.998     1449.286      813.392      624.922        0.259        0.144       44.552       15.012        0.114      332.012        0.399      867.094
11/24/2013  09:03:00       46.250       68.255       -3.985       38.727       46.771       22.221     1499.767     2187.524      493.779        0.550        0.209       82.449       17.466        0.045      331.938        0.276      867.108
11/24/2013  09:04:00        8.382       58.585       69.688       28.288       48.705       41.793      800.219     2372.205     1746.694        0.664        0.246       59.181       33.280        0.316      332.096        0.538      867.109
11/24/2013  09:05:00       20.991       69.531       80.939       39.104       49.361       22.841     1529.112     2436.508      521.719        0.816        0.224       72.630       19.916        0.075      331.824        0.089      867.120
11/24/2013  09:06:00       55.041       27.113       25.614       48.911       27.029       37.315     2392.266      730.571     1392.403        0.447        0.226       61.357       36.103        0.346      331.972        0.333      867.122
11/24/2013  09:07:00       51.653       72.398       57.599       31.537       27.874       32.066      994.554      776.980     1028.256        0.701        0.140       88.936       20.365        0.052      331.700       -0.115      867.116
11/24/2013  09:08:00       16.364       53.604       60.882       30.957       29.454       22.876      958.328      867.510      523.311        0.460        0.117       56.046       19.197        0.117      331.972        0.333      867.107
11/24/2013  09:09:00       69.343       69.900       67.574       43.547       33.352       32.441     1896.315     1112.340     1052.387        0.916        0.203       98.460       33.190        0.114      331.845        0.124      867.116
11/24/2013  09:10:00       68.429       78.708       53.438       36.581       31.594       27.987     1338.175      998.185      783.298        0.843        0.156      104.295       18.782        0.032      331.697       -0.121      867.127
11/24/2013  09:11:00       89.129       75.599       42.475       16.533       14.214       20.139      273.347      202.025      405.562        0.817        0.044      116.873        9.473        0.007      331.630       -0.231      867.137
11/24/2013  09:12:00       31.957       50.238       28.653       29.943       20.521       26.599      896.609      421.100      707.520        0.320        0.101       59.541       20.700        0.121      331.820        0.081      867.146
11/24/2013  09:13:00       52.590       33.041       48.026       18.008       30.078       14.147      324.281      904.659      200.132        0.380        0.071       62.108       13.523        0.047      331.896        0.208      867.149
11/24/2013  09:14:00       20.767       41.524       42.766       29.467       27.732       42.022      868.333      769.073     1765.825        0.369        0.170       46.427       32.718        0.497      331.993        0.367      867.151
11/24/2013  09:15:00       63.163       60.742       23.189       34.469       32.964       40.105     1188.083     1086.607     1608.396        0.605        0.194       87.631       24.761        0.080      332.098        0.539      867.145
11/24/2013  09:16:00       46.640       86.550       21.222       45.692       32.680       51.218     2087.765     1067.976     2623.241        0.795        0.289       98.317       40.315        0.168      332.151        0.627      867.149
11/24/2013  09:17:00       30.666       65.043       48.319       44.307       30.971       38.294     1963.092      959.201     1466.454        0.595        0.219       71.910       30.929        0.185      332.305        0.881      867.155
11/24/2013  09:18:00       34.394       24.735       27.740       24.265       39.107       28.600      588.775     1529.326      817.958        0.275        0.147       42.364       19.110        0.203      332.065        0.486      867.169
11/24/2013  09:19:00       70.713       79.671       -2.306       28.300       28.038       36.064      800.892      786.138     1300.644        0.712        0.144      106.527       24.658        0.054      332.073        0.498      867.168
11/24/2013  09:20:00       47.858       29.838       17.667       44.449       55.256       34.975     1975.677     3053.199     1223.248        0.487        0.313       56.398       28.313        0.252      332.478        1.166      867.175
11/24/2013  09:21:00       49.465       30.362       31.036       49.249       37.293       39.644     2425.448     1390.757     1571.632        0.486        0.269       58.040       39.436        0.462      332.233        0.764      867.195
11/24/2013  09:22:00       -8.799       39.885       55.619       32.499       52.859       47.416     1056.183     2794.117     2248.296        0.543        0.305       40.844       43.469        1.133      332.517        1.232      867.195
11/24/2013  09:23:00       36.433       72.496       82.527       38.097       35.157       20.903     1451.406     1236.041      436.926        0.826        0.156       81.136       16.927        0.044      332.360        0.971      867.198
11/24/2013  09:24:00       53.767       42.521       20.998       32.990       51.043       29.580     1088.345     2605.408      874.964        0.485        0.228       68.549       16.028        0.055      332.303        0.877      867.204
11/24/2013  09:25:00       49.806       45.884       40.954       47.169       29.242       32.630     2224.869      855.104     1064.741        0.520        0.207       67.720       21.217        0.098      332.439        1.102      867.196
11/24/2013  09:26:00       58.561       42.176       12.436       37.664       38.227       34.120     1418.598     1461.283     1164.182        0.470        0.202       72.168       15.952        0.049      332.293        0.861      867.197
11/24/2013  09:27:00       87.375       56.357        2.385       45.590       37.927       23.631     2078.462     1438.489      558.425        0.744        0.204      103.974       24.971        0.058      332.278        0.835      867.206
11/24/2013  09:28:00       97.230       63.766        1.957       39.462       27.531       28.341     1557.222      757.955      803.212        0.832        0.156      116.274       10.893        0.009      332.363        0.977      867.207
11/24/2013  09:29:00       28.161       52.496       14.997       39.106       35.048       42.837     1529.270     1228.389     1835.039        0.418        0.230       59.572       27.692        0.216      332.864        1.804      867.216
11/24/2013  09:30:00       67.644       62.679       16.513       57.503       35.681       46.259     3306.598     1273.138     2139.854        0.775        0.336       92.219       34.911        0.143      332.588        1.350      867.220
11/24/2013  09:31:00       60.644       58.016       -6.775       49.101       37.399       27.424     2410.941     1398.689      752.096        0.582        0.228       83.926       20.833        0.062      332.451        1.122      867.231
11/24/2013  09:32:00       40.865       44.842        8.135       36.988       47.573       35.012     1368.081     2263.159     1225.873        0.430        0.243       60.670       31.189        0.264      332.530        1.253      867.229
11/24/2013  09:33:00       74.249       54.638       -8.216       41.112       31.793       25.640     1690.208     1010.811      657.397        0.596        0.168       92.186       22.956        0.062      332.595        1.360      867.225
11/24/2013  09:34:00       40.987       70.907       71.168       44.326       41.529       32.858     1964.808     1724.666     1079.640        0.827        0.238       81.901       19.002        0.054      332.623        1.406      867.231
11/24/2013  09:35:00       69.249       65.363       60.122       39.459       43.808       38.159     1556.998     1919.179     1456.109        0.881        0.247       95.225       28.780        0.091      332.389        1.018      867.245
11/24/2013  09:36:00       54.395       91.980       72.772       55.407       41.556       45.222     3069.978     1726.900     2044.999        1.178        0.342      106.861       32.397        0.092      332.317        0.900      867.233
11/24/2013  09:37:00       39.524       79.439       78.273       34.642       33.288       18.872     1200.089     1108.092      356.145        0.833        0.133       88.728        8.021        0.008      332.335        0.932      867.228
11/24/2013  09:38:00       20.676       38.213       45.076       26.110       26.419       20.657      681.741      697.952      426.693        0.286        0.090       43.448       14.808        0.116      332.620        1.400      867.233
11/24/2013  09:39:00       34.545       26.298       29.412       40.987       29.942       26.232     1679.894      896.532      688.094        0.301        0.163       43.416       24.177        0.310      332.660        1.467      867.236
11/24/2013  09:40:00       76.614       66.412       48.463       58.824       40.254       36.981     3460.236     1620.408     1367.558        0.954        0.322      101.392       35.580        0.123      332.857        1.793      867.236
11/24/2013  09:41:00       81.714       65.300       30.332       44.246       28.513       50.992     1957.671      812.983     2600.165        0.861        0.269      104.601       24.076        0.053      332.549        1.285      867.250
11/24/2013  09:42:00       23.295       56.493       64.364       31.597       36.019       22.054      998.368     1297.358      486.400        0.533        0.139       61.107       18.800        0.095      332.781        1.666      867.265
11/24/2013  09:43:00       60.894       47.238       71.562       42.392       36.338       21.706     1797.045     1320.486      471.145        0.732        0.179       77.068       19.676        0.065      332.594        1.359      867.284
11/24/2013  09:44:00       54.467      -50.497        3.246       20.725       24.558       20.605      429.512      603.094      424.563        0.349        0.073       74.274       14.172        0.036      332.377        1.001      867.293
11/24/2013  09:45:00       43.550      -17.011       20.785       48.648       42.953       28.509     2366.620     1844.949      812.761        0.382        0.251       46.755       25.229        0.291      332.720        1.566      867.287
11/24/2013  09:46:00       33.349       40.058        4.822       49.090       33.857       35.527     2409.788     1146.303     1262.138        0.378        0.241       52.123       19.460        0.139      332.875        1.823      867.280
11/24/2013  09:47:00       29.426       44.757       47.256       44.383       40.966       48.678     1969.869     1678.244     2369.530        0.556        0.301       53.563       39.851        0.554      332.906        1.873      867.279
11/24/2013  09:48:00       72.354       78.185       65.172       59.633       46.067       54.016     3556.117     2122.129     2917.732        1.209        0.430      106.527       51.107        0.230      332.549        1.285      867.284
11/24/2013  09:49:00       86.128       60.070       20.423       26.654       19.445       30.319      710.445      378.119      919.234        0.673        0.100      105.007       19.756        0.035      332.340        0.940      867.299
11/24/2013  09:50:00       19.746       44.251       -7.174       46.876       23.023       31.115     2197.395      530.079      968.128        0.305        0.185       48.456       20.785        0.184      332.529        1.249      867.290
11/24/2013  09:51:00       19.113       54.141       40.649       28.490       33.489       38.158      811.673     1121.488     1456.016        0.417        0.169       57.416       26.257        0.209      333.049        2.110      867.288
11/24/2013  09:52:00       68.449      -84.708       12.288       33.457       55.173       32.550     1119.341     3044.076     1059.526        0.862        0.261      108.907       23.587        0.047      332.523        1.241      867.294
11/24/2013  09:53:00      -10.257       43.240       87.942       27.593       52.521       38.048      761.398     2758.489     1447.658        0.734        0.248       44.440       38.503        0.751      333.196        2.353      867.285
11/24/2013  09:54:00       17.027       71.925       93.436       40.013       46.691       38.228     1601.070     2180.078     1461.395        0.972        0.262       73.913       37.286        0.254      333.021        2.065      867.296
11/24/2013  09:55:00       24.153       50.695       65.375       34.683       41.195       38.428     1202.876     1697.048     1476.682        0.590        0.219       56.155       33.454        0.355      332.991        2.013      867.312
11/24/2013  09:56:00       23.765       85.205       86.766       44.180       57.099       43.527     1951.861     3260.263     1894.606        1.123        0.355       88.457       35.373        0.160      332.957        1.957      867.309
11/24/2013  09:57:00       70.443       59.743       63.881       54.980       47.362       32.648     3022.841     2243.114     1065.860        0.947        0.317       92.366       20.227        0.048      333.025        2.071      867.319
11/24/2013  09:58:00      122.597       85.341        1.372       36.080       30.840       27.292     1301.751      951.124      744.858        1.266        0.150      149.376       11.482        0.006      332.980        1.995      867.313
11/24/2013  09:59:00       50.148       54.503      -16.419       56.972       32.029       21.861     3245.813     1025.875      477.896        0.525        0.237       74.063       14.114        0.036      333.103        2.197      867.306
11/24/2013  10:00:00        0.305       35.937       54.709       24.714       43.920       30.553      610.760     1928.987      933.466        0.388        0.174       35.938       27.666        0.593      333.494        2.846      867.301
11/24/2013  10:01:00       61.434       90.504       64.616       66.329       37.412       36.670     4399.597     1399.670     1344.717        1.164        0.357      109.385       36.983        0.114      333.141        2.260      867.302
11/24/2013  10:02:00      116.906       59.580       21.102       33.918       40.887       34.918     1150.441     1671.715     1219.247        1.085        0.202      131.213       28.746        0.048      332.635        1.426      867.317
11/24/2013  10:03:00      145.156       76.416       38.720       47.851       49.326       49.460     2289.743     2433.026     2446.259        1.779        0.358      164.042       37.545        0.052      332.805        1.707      867.332
11/24/2013  10:04:00      147.667       80.832        4.016       50.663       34.026       34.293     2566.709     1157.776     1175.986        1.663        0.245      168.342       16.560        0.010      332.597        1.362      867.343
11/24/2013  10:05:00        7.743       21.623       39.939       24.954       33.641       26.721      622.714     1131.709      713.988        0.230        0.123       22.968       11.196        0.238      333.465        2.796      867.345
11/24/2013  10:06:00       56.906       76.374       58.924       52.393       36.481       41.351     2745.005     1330.848     1709.914        0.916        0.289       95.243       32.546        0.117      333.218        2.389      867.344
11/24/2013  10:07:00       59.932       66.077       28.561       56.119       44.616       44.212     3149.349     1990.590     1954.700        0.793        0.355       89.208       40.092        0.202      333.183        2.331      867.318
11/24/2013  10:08:00       99.027       81.930        4.815       35.179       20.668       36.798     1237.589      427.179     1354.093        0.978        0.151      128.526       15.187        0.014      332.806        1.708      867.307
11/24/2013  10:09:00       31.941       -9.232       11.822       24.367       30.652       33.277      593.736      939.572     1107.336        0.194        0.132       33.248       21.713        0.426      333.005        2.039      867.312
11/24/2013  10:10:00       39.705       24.594       13.132       63.089       35.927       23.802     3980.216     1290.729      566.512        0.409        0.292       46.705       12.458        0.071      333.064        2.135      867.307
11/24/2013  10:11:00       85.085       65.299        7.966       33.936       33.981       30.070     1151.672     1154.711      904.222        0.739        0.161      107.254       17.360        0.026      332.956        1.957      867.300
11/24/2013  10:12:00       80.146       78.314        5.601       56.983       41.799       33.559     3247.047     1747.183     1126.204        0.935        0.306      112.056       24.221        0.047      333.202        2.364      867.294
11/24/2013  10:13:00       85.220       64.059       19.396       48.346       54.959       45.287     2337.366     3020.492     2050.955        0.957        0.370      106.611       36.971        0.120      333.380        2.655      867.292
11/24/2013  10:14:00       83.648       51.734        8.094       47.922       35.028       28.434     2296.516     1226.991      808.476        0.703        0.217       98.353       20.327        0.043      333.061        2.129      867.292
11/24/2013  10:15:00       18.451       28.139       42.723       32.745       50.063       39.943     1072.265     2506.280     1595.450        0.406        0.259       33.649       19.446        0.334      333.605        3.029      867.296
11/24/2013  10:16:00       17.993       91.701      110.427       41.748       47.828       24.384     1742.875     2287.496      594.601        1.278        0.231       93.449       26.023        0.078      333.274        2.482      867.290
11/24/2013  10:17:00       40.483       90.992       85.041       36.153       39.541       28.765     1307.038     1563.479      827.433        1.042        0.185       99.591       20.232        0.041      333.254        2.448      867.301
11/24/2013  10:18:00       30.385      104.911      103.295       46.370       47.849       46.271     2150.153     2289.534     2141.007        1.459        0.329      109.223       37.916        0.121      333.328        2.571      867.307
11/24/2013  10:19:00       26.051       54.288       61.615       29.006       35.281       39.633      841.370     1244.765     1570.786        0.554        0.183       60.215       13.021        0.047      333.549        2.936      867.327
11/24/2013  10:20:00       52.625       84.377       68.688       45.799       36.098       43.894     2097.580     1303.077     1926.702        0.997        0.266       99.443       35.592        0.128      333.239        2.424      867.339
11/24/2013  10:21:00       47.903       46.600       40.328       23.910       20.984       19.118      571.708      440.325      365.499        0.373        0.069       66.830       14.810        0.049      333.212        2.379      867.359
11/24/2013  10:22:00       28.343      106.230       96.366       39.508       37.761       33.953     1560.914     1425.911     1152.817        1.276        0.207      109.946       29.137        0.070      333.294        2.515      867.354
11/24/2013  10:23:00      116.079       95.854       37.656       75.806       41.497       46.699     5746.556     1721.991     2180.771        1.686        0.482      150.541       42.390        0.079      333.112        2.213      867.358
11/24/2013  10:24:00       81.894       66.664       -0.311       48.572       41.054       35.103     2359.263     1685.415     1232.232        0.821        0.264      105.597       25.082        0.056      333.258        2.453      867.342
11/24/2013  10:25:00       33.168       66.800        6.996       42.351       59.950       37.067     1793.634     3594.045     1373.972        0.619        0.338       74.582       31.033        0.173      333.444        2.763      867.341
11/24/2013  10:26:00       37.005       48.588       58.914       47.462       47.643       41.713     2252.683     2269.848     1740.008        0.673        0.313       61.076       26.711        0.191      333.657        3.116      867.329
11/24/2013  10:27:00       53.990       57.588       57.631       45.229       41.390       31.571     2045.635     1713.104      996.734        0.715        0.238       78.939       22.294        0.080      333.783        3.324      867.333
11/24/2013  10:28:00       78.249       42.658       -2.795       35.880       30.747       31.897     1287.348      945.393     1017.423        0.560        0.163       89.121       27.569        0.096      333.219        2.390      867.330
11/24/2013  10:29:00       52.570      -40.017      -12.482       31.817       48.358       24.767     1012.295     2338.507      613.425        0.424        0.198       66.068       25.387        0.148      333.258        2.455      867.325
11/24/2013  10:30:00       28.282      -70.540       -4.868       26.231       36.194       20.329      688.040     1310.017      413.282        0.410        0.121       75.999        8.961        0.014      333.356        2.617      867.305
11/24/2013  10:31:00      -42.868       -4.715      -12.067       17.148       19.059       16.486      294.067      363.245      271.785        0.147        0.046       43.126       12.961        0.090      333.328        2.570      867.301
11/24/2013  10:32:00      -59.453        0.335      -20.155       15.479       12.836        9.366      239.594      164.764       87.719        0.222        0.025       59.454        4.325        0.005      333.155        2.284      867.281
11/24/2013  10:33:00      -72.892       12.749       -7.885       28.330       19.241       15.005      802.612      370.205      225.158        0.347        0.070       73.998       10.908        0.022      333.257        2.453      867.282
11/24/2013  10:34:00      -73.019       13.375       -6.854       15.206       15.371        9.297      231.215      236.254       86.440        0.306        0.028       74.234        3.696        0.002      333.196        2.351      867.277
11/24/2013  10:35:00       -5.299       19.387       12.982       37.600       28.426       29.773     1413.792      808.039      886.414        0.184        0.155       20.099       24.672        1.507      333.752        3.272      867.267
11/24/2013  10:36:00       32.832       59.165       52.680       39.668       33.543       36.559     1573.533     1125.144     1336.582        0.569        0.202       67.664       29.633        0.192      334.045        3.758      867.260
11/24/2013  10:37:00      115.160       89.337       28.293       38.233       26.491       32.129     1461.784      701.778     1032.244        1.262        0.160      145.750       12.485        0.007      333.579        2.985      867.245
11/24/2013  10:38:00       71.792       70.888       12.347       35.338       44.932       38.368     1248.788     2018.853     1472.134        0.753        0.237      100.892       17.331        0.030      333.977        3.645      867.232
11/24/2013  10:39:00       58.584       88.290       11.975       49.173       38.967       43.082     2417.954     1518.454     1856.100        0.858        0.290      105.958       31.788        0.090      333.819        3.383      867.210
11/24/2013  10:40:00       98.337       90.362       14.505       45.707       40.133       37.681     2089.130     1610.625     1419.857        1.158        0.256      133.550       19.502        0.021      334.068        3.797      867.198
11/24/2013  10:41:00       96.635       98.415       -0.022       45.022       32.466       33.570     2027.015     1054.016     1126.958        1.162        0.210      137.927       20.902        0.023      333.498        2.851      867.173
11/24/2013  10:42:00       63.717       63.002       11.734       21.854       23.937       30.559      477.613      572.986      933.836        0.508        0.099       89.605       14.406        0.026      333.681        3.156      867.170
11/24/2013  10:43:00       58.823       46.526       19.782       24.437       20.241       31.972      597.153      409.701     1022.207        0.402        0.101       74.999       23.777        0.101      333.513        2.876      867.148
11/24/2013  10:44:00       23.354       22.950        6.747       21.927       13.088       25.305      480.806      171.302      640.365        0.120        0.065       32.743       20.857        0.406      333.751        3.271      867.148
11/24/2013  10:45:00       30.407       38.608       35.797       40.817       43.577       33.597     1666.051     1898.973     1128.758        0.419        0.235       49.144       25.387        0.267      334.180        3.983      867.139
11/24/2013  10:46:00        1.851       35.146       65.678       34.399       50.814       37.123     1183.315     2582.072     1378.093        0.535        0.257       35.195       28.230        0.643      334.258        4.112      867.136
11/24/2013  10:47:00       30.570       58.489       71.303       41.193       41.164       36.262     1696.865     1694.465     1314.916        0.707        0.235       65.996       29.955        0.206      333.997        3.679      867.113
11/24/2013  10:48:00       47.924       66.025       35.114       52.197       45.116       44.111     2724.567     2035.463     1945.787        0.730        0.335       81.584       29.576        0.131      334.065        3.792      867.095
11/24/2013  10:49:00       11.367      121.318       -7.839       25.215       54.495       25.871      635.812     2969.722      669.313        0.959        0.214      121.849       27.763        0.052      333.936        3.578      867.068
11/24/2013  10:50:00       13.696      121.631      -12.260       26.112       47.176       25.766      681.835     2225.565      663.881        0.935        0.179      122.399       21.166        0.030      333.839        3.416      867.053
11/24/2013  10:51:00       19.903       52.667        3.436       34.882       34.608       27.698     1216.780     1197.738      767.157        0.318        0.159       56.302       22.232        0.156      334.149        3.931      867.027
11/24/2013  10:52:00        4.996       90.807        6.692       54.593       60.375       38.159     2980.383     3645.167     1456.093        0.820        0.404       90.944       24.117        0.070      334.272        4.136      867.012
11/24/2013  10:53:00       55.585       54.218       10.207       30.105       36.343       22.888      906.289     1320.813      523.880        0.444        0.138       77.648       11.734        0.023      334.251        4.100      867.003
11/24/2013  10:54:00       20.605       35.116       58.164       32.666       25.635       25.577     1067.061      657.154      654.196        0.371        0.119       40.715       20.038        0.242      334.443        4.419      867.001
11/24/2013  10:55:00       10.504       66.289       78.859       30.123       45.903       33.327      907.398     2107.047     1110.697        0.742        0.206       67.117       29.965        0.199      334.376        4.307      866.981
11/24/2013  10:56:00       58.157       83.451       77.678       47.100       31.870       35.412     2218.383     1015.723     1253.991        1.043        0.224      101.717       29.024        0.081      334.199        4.014      866.980
11/24/2013  10:57:00       77.350       34.934       23.399       33.194       44.231       29.497     1101.868     1956.389      870.065        0.584        0.196       84.873       22.818        0.072      334.196        4.010      866.979
11/24/2013  10:58:00       41.599       38.222       11.874       39.980       46.784       26.623     1598.380     2188.767      708.760        0.391        0.225       56.493       13.562        0.058      334.356        4.274      866.969
11/24/2013  10:59:00      114.998       76.005        3.684       46.828       32.927       33.150     2192.826     1084.217     1098.904        1.169        0.219      137.845       23.167        0.028      334.383        4.320      866.944
11/24/2013  11:00:00      112.983       90.693       -4.680       30.521       19.660       21.035      931.562      386.510      442.472        1.139        0.088      144.881        7.288        0.003      333.897        3.513      866.933
11/24/2013  11:01:00       58.810       44.962        9.623       34.492       26.715       21.894     1189.693      713.668      479.369        0.398        0.119       74.028       14.906        0.041      334.144        3.923      866.923
11/24/2013  11:02:00       69.286       85.235       13.845       55.995       41.991       45.629     3135.490     1763.267     2082.015        0.962        0.349      109.843       34.270        0.097      334.183        3.987      866.913
11/24/2013  11:03:00       57.000       55.684       -2.643       45.561       48.059       33.614     2075.792     2309.636     1129.934        0.593        0.276       79.685       32.668        0.168      334.272        4.136      866.901
11/24/2013  11:04:00       49.327       55.291       63.514       66.159       45.757       53.153     4377.018     2093.661     2825.257        0.941        0.465       74.096       49.149        0.440      334.449        4.430      866.909
11/24/2013  11:05:00       96.128       85.679       30.423       42.074       37.686       41.470     1770.235     1420.245     1719.800        1.121        0.246      128.769       27.062        0.044      334.235        4.075      866.902
11/24/2013  11:06:00       75.612       79.811       58.716       60.620       39.222       38.593     3674.775     1538.338     1489.458        1.112        0.335      109.941       21.907        0.040      334.350        4.265      866.896
11/24/2013  11:07:00       44.232       75.287       63.537       42.260       46.338       40.404     1785.883     2147.176     1632.492        0.861        0.278       87.319       34.456        0.156      334.455        4.440      866.892
11/24/2013  11:08:00       44.795       36.715       67.798       44.771       83.663       43.426     2004.478     6999.537     1885.825        0.942        0.544       57.919       54.468        0.884      334.486        4.490      866.891
11/24/2013  11:09:00       91.166     -130.256      -17.242       45.709       50.018       24.622     2089.298     2501.786      606.227        1.539        0.260      158.990       21.186        0.018      334.362        4.284      866.880
11/24/2013  11:10:00       69.010      -35.862       33.081       43.873       65.875       47.319     1924.820     4339.510     2239.085        0.782        0.425       77.772       43.495        0.313      334.790        4.995      866.876
11/24/2013  11:11:00       47.619       68.843       69.910       41.554       38.419       33.992     1726.722     1476.018     1155.451        0.813        0.218       83.708       16.636        0.039      334.670        4.795      866.878
11/24/2013  11:12:00       38.318      -28.168       29.343       27.529       59.139       36.957      757.822     3497.427     1365.823        0.437        0.281       47.558       29.577        0.387      334.541        4.581      866.875
11/24/2013  11:13:00       14.359       31.688       64.478       35.416       37.570       29.260     1254.263     1411.516      856.123        0.444        0.176       34.790       20.778        0.357      334.807        5.023      866.873
11/24/2013  11:14:00       14.152       37.823       67.262       32.166       36.599       23.969     1034.643     1339.472      574.522        0.455        0.147       40.384       20.882        0.267      334.951        5.261      866.863
11/24/2013  11:15:00       64.086       92.264       16.650       45.342       36.453       48.928     2055.856     1328.809     2393.922        0.934        0.289      112.337       24.033        0.046      334.507        4.524      866.850
11/24/2013  11:16:00       63.935       84.741        3.102       49.434       42.416       30.924     2443.761     1799.119      956.265        0.824        0.260      106.154       27.508        0.067      334.474        4.470      866.841
11/24/2013  11:17:00       21.959       15.006       26.824       26.138       28.112       27.068      683.191      790.282      732.690        0.182        0.110       26.596       12.972        0.238      334.884        5.152      866.837
11/24/2013  11:18:00       24.385       -4.556       21.368       44.357       47.348       48.902     1967.580     2241.877     2391.393        0.384        0.330       24.807       42.323        2.911      334.802        5.016      866.822
11/24/2013  11:19:00       47.951       99.136      105.573       51.383       52.067       42.809     2640.179     2710.989     1832.573        1.523        0.359      110.124       39.713        0.130      334.788        4.989      866.809
11/24/2013  11:20:00      105.182      142.916      113.906       45.524       44.782       48.718     2072.408     2005.395     2373.436        2.546        0.323      177.450       36.433        0.042      334.510        4.527      866.787
11/24/2013  11:21:00       92.014       71.655       44.478       54.495       34.308       49.119     2969.702     1177.042     2412.695        1.107        0.328      116.623       37.250        0.102      334.516        4.540      866.778
11/24/2013  11:22:00       40.803       10.599       18.464       52.685       65.674       33.171     2775.731     4313.020     1100.342        0.515        0.409       42.157       36.972        0.769      334.712        4.865      866.764
11/24/2013  11:23:00       49.618      -92.410       -3.358       48.305       46.772       34.858     2333.411     2187.637     1215.054        0.837        0.287      104.888       29.332        0.078      334.704        4.852      866.740
11/24/2013  11:24:00       24.306       25.707       56.884       35.307       59.327       45.732     1246.590     3519.685     2091.370        0.567        0.343       35.379       46.797        1.750      334.857        5.107      866.741
11/24/2013  11:25:00       64.697      -73.218        8.590       34.393       43.703       34.031     1182.855     1909.970     1158.082        0.693        0.213       97.707       27.666        0.080      334.767        4.957      866.738
11/24/2013  11:26:00       53.205      -37.920       14.421       31.334       48.020       33.684      981.819     2305.952     1134.592        0.445        0.221       65.335       33.570        0.264      334.817        5.040      866.740
11/24/2013  11:27:00       24.847       31.231       47.234       40.220       38.360       20.578     1617.642     1471.483      423.443        0.367        0.176       39.909       14.640        0.135      335.222        5.712      866.738
11/24/2013  11:28:00       -2.496       10.491       30.868       20.719       30.861       19.037      429.295      952.382      362.402        0.141        0.087       10.784       10.454        0.940      335.583        6.312      866.730
11/24/2013  11:29:00       70.436       62.140       12.410       49.221       27.706       33.066     2422.721      767.628     1093.380        0.663        0.214       93.929       17.301        0.034      335.127        5.555      866.731
11/24/2013  11:30:00       -0.530       99.305      -14.464       23.565       38.823       23.582      555.295     1507.223      556.132        0.634        0.131       99.307       18.016        0.033      334.925        5.219      866.714
11/24/2013  11:31:00        1.378        2.665       14.180       27.223       30.494       30.283      741.111      929.911      917.057        0.140        0.129        3.000       11.833       15.558      335.480        6.142      866.703
11/24/2013  11:32:00       39.141       10.160       40.874       45.370       52.033       29.947     2058.480     2707.409      896.811        0.448        0.283       40.438       38.777        0.920      335.107        5.522      866.681
11/24/2013  11:33:00       20.933       21.911       28.376       38.240       39.034       24.240     1462.274     1523.690      587.582        0.265        0.179       30.303       18.215        0.361      335.265        5.785      866.657
11/24/2013  11:34:00        6.363       48.296       63.969       21.222       38.881       30.621      450.372     1511.744      937.666        0.468        0.145       48.713       23.454        0.232      335.500        6.174      866.649
11/24/2013  11:35:00      130.901       95.052       42.925       61.458       34.257       52.093     3777.051     1173.546     2713.692        1.784        0.383      161.771       36.029        0.050      334.819        5.041      866.636
11/24/2013  11:36:00       70.069       59.365       28.380       49.566       39.238       35.548     2456.816     1539.591     1263.663        0.725        0.263       91.836       11.318        0.015      335.173        5.631      866.633
11/24/2013  11:37:00       60.030       71.046       76.391       39.685       47.782       30.216     1574.908     2283.089      913.011        0.963        0.239       93.011       31.283        0.113      335.122        5.547      866.637
11/24/2013  11:38:00       31.263       66.131       85.145       65.162       61.591       46.563     4246.097     3793.438     2168.136        1.140        0.510       73.148       42.728        0.341      335.407        6.021      866.625
11/24/2013  11:39:00       44.650       98.760       82.235       57.530       39.251       29.207     3309.697     1540.663      853.069        1.211        0.285      108.385       30.357        0.078      335.372        5.962      866.632
11/24/2013  11:40:00       37.550       68.843       53.820       53.916       44.205       51.897     2906.928     1954.090     2693.266        0.830        0.378       78.418       41.468        0.280      335.551        6.260      866.627
11/24/2013  11:41:00       20.285       65.988       15.846       45.766       32.215       31.242     2094.571     1037.791      976.053        0.456        0.205       69.035       22.617        0.107      335.558        6.272      866.645
11/24/2013  11:42:00       79.884       99.469       44.590       71.968       45.626       44.498     5179.433     2081.691     1980.058        1.375        0.462      127.575       32.233        0.064      335.234        5.732      866.652
11/24/2013  11:43:00       87.647       57.347       -0.703       40.882       30.557       27.557     1671.356      933.734      759.404        0.717        0.168      104.741       10.967        0.011      335.160        5.610      866.659
11/24/2013  11:44:00       24.014       43.831       -5.871       37.602       30.373       27.185     1413.899      922.518      739.040        0.280        0.154       49.978       18.802        0.142      335.487        6.153      866.671
11/24/2013  11:45:00       -1.654       44.224        8.498       26.935       35.941       36.385      725.502     1291.762     1323.904        0.269        0.167       44.254       15.723        0.126      335.512        6.197      866.655
11/24/2013  11:46:00       66.735       72.429       52.153       58.007       60.423       40.384     3364.804     3650.990     1630.896        1.053        0.432       98.486       29.861        0.092      335.292        5.831      866.639
11/24/2013  11:47:00       58.598       73.839       92.419       59.727       82.790       64.514     3567.337     6854.226     4162.062        1.600        0.729       94.265       66.312        0.495      335.327        5.886      866.604
11/24/2013  11:48:00       78.497      152.174      117.113       61.521       41.424       41.440     3784.823     1715.983     1717.305        2.512        0.361      171.227       35.349        0.043      335.147        5.586      866.588
11/24/2013  11:49:00      120.780      108.793       80.575       52.216       33.504       49.684     2726.536     1122.514     2468.537        1.962        0.316      162.554       26.372        0.026      335.065        5.452      866.584
11/24/2013  11:50:00      122.046       90.250       37.482       45.503       35.635       42.331     2070.526     1269.872     1791.906        1.479        0.257      151.790       21.864        0.021      335.254        5.767      866.581
11/24/2013  11:51:00       65.468       67.350       44.010       52.074       51.962       36.916     2711.711     2700.042     1362.771        0.877        0.339       93.926       26.878        0.082      335.371        5.961      866.580
11/24/2013  11:52:00       78.799       75.557       21.279       21.044       23.121       30.666      442.840      534.596      940.393        0.714        0.096      109.171       18.616        0.029      334.951        5.262      866.585
11/24/2013  11:53:00       21.827       56.795       -1.605       47.489       20.044       25.408     2255.234      401.777      645.562        0.350        0.165       60.845       28.125        0.214      335.073        5.467      866.593
11/24/2013  11:54:00       94.318       63.377       38.754       58.741       46.961       40.280     3450.517     2205.305     1622.495        1.084        0.364      113.633       30.938        0.074      335.284        5.814      866.576
11/24/2013  11:55:00      124.225       95.409       75.555       56.489       55.416       47.005     3191.018     3070.939     2209.428        1.936        0.424      156.635       40.875        0.068      335.335        5.898      866.576
11/24/2013  11:56:00       12.379       51.205       66.317       42.758       38.226       29.920     1828.211     1461.249      895.179        0.568        0.209       52.680       23.384        0.197      335.695        6.500      866.580
11/24/2013  11:57:00       20.425      -16.590       49.836       45.977       44.457       35.112     2113.920     1976.420     1232.870        0.425        0.266       26.314       35.936        1.865      335.763        6.613      866.568
11/24/2013  11:58:00       12.780       23.792       40.813       28.442       29.131       23.319      808.955      848.622      543.761        0.230        0.110       27.007       13.879        0.264      335.537        6.236      866.565
11/24/2013  11:59:00       15.975       54.073       79.621       54.406       37.294       40.748     2959.990     1390.860     1660.409        0.776        0.301       56.383       36.320        0.415      335.595        6.336      866.548
11/24/2013  12:00:00       57.521       55.043       50.168       32.042       41.369       25.693     1026.697     1711.387      660.143        0.613        0.170       79.614       23.797        0.089      335.367        5.954      866.526
11/24/2013  12:01:00       51.001       57.061       35.880       57.388       37.603       38.137     3293.398     1413.954     1454.469        0.665        0.308       76.531       21.146        0.076      335.641        6.410      866.509
11/24/2013  12:02:00      100.545       78.493       30.836       43.563       32.787       48.626     1897.743     1074.969     2364.455        1.128        0.267      127.555       35.976        0.080      335.420        6.042      866.483
11/24/2013  12:03:00       23.877       19.056        0.641       54.280       62.602       27.814     2946.298     3918.994      773.594        0.428        0.382       30.550       23.703        0.602      335.572        6.294      866.471
11/24/2013  12:04:00       87.648       90.058       70.757       79.939       71.781       55.120     6390.266     5152.490     3038.191        1.769        0.729      125.669       47.530        0.143      335.351        5.926      866.458
11/24/2013  12:05:00       80.910       58.824       72.541       65.512       59.505       49.149     4291.848     3540.844     2415.624        1.276        0.512      100.033       55.096        0.303      335.502        6.179      866.448
11/24/2013  12:06:00      100.009       91.100       52.676       68.101       36.595       59.749     4637.750     1339.212     3569.989        1.531        0.477      135.281       53.073        0.154      335.448        6.088      866.451
11/24/2013  12:07:00       62.253      103.707       83.601       35.349       39.709       41.615     1249.581     1576.780     1731.794        1.309        0.228      120.957       25.655        0.045      335.447        6.086      866.442
11/24/2013  12:08:00       31.078       87.322       89.094       51.808       45.169       39.147     2684.111     2040.205     1532.476        1.139        0.313       92.688       35.452        0.146      335.764        6.615      866.432
11/24/2013  12:09:00       48.057       46.171       63.575       52.421       51.202       34.130     2747.941     2621.680     1164.864        0.751        0.327       66.642       38.579        0.335      335.687        6.487      866.442
11/24/2013  12:10:00       90.715       39.912       10.287       62.074       38.828       39.354     3853.183     1507.590     1548.741        0.842        0.345       99.107       23.472        0.056      335.527        6.219      866.429
11/24/2013  12:11:00       51.211       44.439       17.120       32.343       31.233       26.314     1046.077      975.505      692.415        0.380        0.136       67.804       19.906        0.086      335.525        6.216      866.413
11/24/2013  12:12:00       21.197       26.781       13.017       19.670       25.764       25.436      386.928      663.804      646.965        0.152        0.085       34.154       19.130        0.314      335.653        6.429      866.405
11/24/2013  12:13:00      -23.398       53.107      -10.800       17.683       24.066       17.715      312.701      579.196      313.823        0.234        0.060       58.033       15.258        0.069      335.655        6.432      866.388
11/24/2013  12:14:00       -6.092       11.747        9.096       22.368       19.814       18.308      500.314      392.591      335.177        0.074        0.061       13.233       15.137        1.308      336.267        7.455      866.368
11/24/2013  12:15:00      -16.497        6.117       -1.792       16.770       14.886       17.347      281.235      221.590      300.932        0.056        0.040       17.595       12.534        0.507      336.130        7.226      866.370
11/24/2013  12:16:00       20.830       18.130       28.591       25.515       16.402       15.510      651.019      269.038      240.569        0.137        0.058       27.615       12.479        0.204      336.182        7.314      866.375
11/24/2013  12:17:00       35.782       33.594        1.988       22.879       26.028       38.046      523.453      677.447     1447.534        0.253        0.132       49.080       24.461        0.248      335.879        6.808      866.378
11/24/2013  12:18:00       78.134       50.236       44.495       75.891       33.526       51.906     5759.397     1124.021     2694.191        1.009        0.479       92.890       53.002        0.326      335.831        6.726      866.380
11/24/2013  12:19:00       85.245       72.816       16.301       45.531       38.961       35.535     2073.087     1517.939     1262.736        0.884        0.243      112.111       24.857        0.049      335.810        6.692      866.347
11/24/2013  12:20:00       -2.200       43.088       46.067       13.471       29.156       24.034      181.479      850.051      577.624        0.280        0.080       43.144       10.912        0.064      336.106        7.187      866.342
11/24/2013  12:21:00       -8.779       79.339        3.110       28.717       42.251       24.806      824.661     1785.168      615.320        0.480        0.161       79.823       26.129        0.107      335.877        6.804      866.342
11/24/2013  12:22:00       -9.920       43.837       -0.019       24.051       36.617       22.813      578.462     1340.811      520.456        0.223        0.122       44.946       25.313        0.317      336.002        7.011      866.346
11/24/2013  12:23:00       30.081       34.464       42.672       42.204       29.537       38.003     1781.179      872.420     1444.233        0.400        0.205       45.745       32.137        0.494      336.115        7.201      866.356
11/24/2013  12:24:00       13.017      -37.482       30.861       34.686       64.328       39.070     1203.108     4138.074     1526.484        0.470        0.343       39.678       46.336        1.364      336.163        7.281      866.351
11/24/2013  12:25:00       53.513      103.655       83.117       64.167       47.001       51.649     4117.356     2209.083     2667.653        1.475        0.450      116.653       41.393        0.126      335.989        6.989      866.340
11/24/2013  12:26:00       76.249       67.798       52.598       64.975       50.625       53.666     4221.720     2562.859     2880.074        1.142        0.483      102.032       43.934        0.185      335.726        6.553      866.344
11/24/2013  12:27:00       13.120       -3.039       19.454       26.167       35.145       23.612      684.735     1235.204      557.539        0.152        0.124       13.467       25.047        3.459      336.120        7.210      866.326
11/24/2013  12:28:00        8.194       48.328       70.247       32.736       63.939       37.410     1071.651     4088.241     1399.486        0.695        0.328       49.018       41.245        0.708      336.112        7.195      866.319
11/24/2013  12:29:00       74.391       39.323       46.156       68.621       42.525       42.273     4708.784     1808.343     1786.984        0.876        0.415       84.145       36.467        0.188      336.212        7.362      866.309
11/24/2013  12:30:00       68.780       50.848       38.503       61.997       45.453       43.505     3843.632     2065.952     1892.650        0.830        0.390       85.535       30.836        0.130      336.078        7.139      866.311
11/24/2013  12:31:00       43.126       62.296       27.579       44.334       47.146       39.470     1965.465     2222.761     1557.863        0.612        0.287       75.767       28.346        0.140      336.261        7.445      866.315
11/24/2013  12:32:00       62.416       54.810       36.260       57.985       38.483       46.437     3362.241     1480.979     2156.390        0.761        0.350       83.066       37.250        0.201      336.026        7.052      866.297
11/24/2013  12:33:00       18.279       29.467       35.334       32.802       29.698       23.932     1075.944      881.974      572.754        0.249        0.127       34.677       19.699        0.323      336.135        7.233      866.292
11/24/2013  12:34:00       49.269       89.832       76.473       55.517       43.798       37.303     3082.178     1918.252     1391.524        1.137        0.320      102.456       27.976        0.075      336.099        7.175      866.270
11/24/2013  12:35:00       50.028       87.393       79.218       53.655       36.993       45.191     2878.881     1368.516     2042.196        1.135        0.314      100.700       38.799        0.148      335.882        6.810      866.238
11/24/2013  12:36:00       66.842       10.672       16.388       30.258       29.534       32.234      915.559      872.260     1039.048        0.384        0.141       67.689       20.082        0.088      335.716        6.534      866.236
11/24/2013  12:37:00       59.511      -13.933      -11.449       28.773       31.242       22.109      827.872      976.040      488.830        0.308        0.115       61.120       18.530        0.092      335.804        6.683      866.220
11/24/2013  12:38:00       46.607       25.793        1.783       34.737       29.197       28.831     1206.676      852.444      831.248        0.286        0.145       53.269       15.779        0.088      336.088        7.154      866.197
11/24/2013  12:39:00       78.847       52.726        1.724       33.831       30.435       29.639     1144.515      926.302      878.445        0.597        0.147       94.852       20.404        0.046      336.007        7.019      866.186
11/24/2013  12:40:00       28.244       70.682       -3.257       47.722       53.028       26.679     2277.369     2811.993      711.767        0.580        0.290       76.116       27.431        0.130      336.192        7.330      866.160
11/24/2013  12:41:00       13.289       59.031       -6.588       35.847       34.375       29.158     1284.997     1181.628      850.175        0.351        0.166       60.508       14.372        0.056      336.197        7.337      866.139
11/24/2013  12:42:00       -7.902       33.076      -12.456       15.782       21.463       14.209      249.077      460.681      201.888        0.111        0.046       34.007        9.615        0.080      336.128        7.221      866.117
11/24/2013  12:43:00       30.285       27.749        3.074       28.333       27.414       15.932      802.737      751.530      253.815        0.175        0.090       41.075       10.762        0.069      336.251        7.428      866.094
11/24/2013  12:44:00       54.290       45.301       66.908       65.401       71.729       52.843     4277.245     5145.048     2792.403        1.084        0.611       70.708       47.900        0.459      336.407        7.687      866.075
11/24/2013  12:45:00      132.012       73.983       24.653       67.221       52.923       50.368     4518.703     2800.839     2536.941        1.668        0.493      151.330       20.285        0.018      336.049        7.088      866.061
11/24/2013  12:46:00       91.448       79.436       84.195       83.595       50.913       53.469     6988.164     2592.162     2858.924        1.710        0.622      121.131       48.150        0.158      336.362        7.613      866.032
11/24/2013  12:47:00       78.220       47.947       42.018       69.120       65.441       41.833     4777.598     4282.590     1750.038        1.049        0.541       91.746       26.109        0.081      336.211        7.360      866.032
11/24/2013  12:48:00       97.626       78.699       25.932       49.630       37.717       22.501     2463.149     1422.578      506.316        1.039        0.220      125.396       12.905        0.011      336.057        7.103      866.023
11/24/2013  12:49:00       46.099       57.072       49.777       49.002       38.968       33.012     2401.203     1518.470     1089.821        0.643        0.250       73.365       21.481        0.086      336.384        7.650      866.004
11/24/2013  12:50:00       59.107       48.515       46.472       32.873       39.299       36.299     1080.627     1544.437     1317.605        0.597        0.197       76.468       27.490        0.129      336.134        7.232      866.018
11/24/2013  12:51:00       63.187       18.612       49.536       45.812       65.499       48.592     2098.737     4290.172     2361.210        0.777        0.438       65.871       53.493        0.659      336.199        7.341      866.013
11/24/2013  12:52:00      126.400       96.004       39.877       68.669       60.234       59.186     4715.435     3628.106     3502.968        1.931        0.592      158.725       30.112        0.036      336.208        7.352      865.994
11/24/2013  12:53:00       46.441       85.228      102.247       67.585       56.145       44.172     4567.738     3152.254     1951.154        1.477        0.484       97.059       42.136        0.188      336.262        7.446      865.994
11/24/2013  12:54:00       52.569       61.118       49.193       59.065       40.473       39.382     3488.710     1638.044     1550.940        0.780        0.334       80.616       40.304        0.250      336.448        7.757      865.983
11/24/2013  12:55:00       53.905       41.744       32.223       45.595       46.514       44.061     2078.875     2163.539     1941.409        0.593        0.309       68.179       33.747        0.245      336.542        7.914      865.982
11/24/2013  12:56:00       69.518       87.556       94.698       65.088       61.990       46.151     4236.433     3842.805     2129.927        1.584        0.510      111.797       40.798        0.133      336.299        7.506      865.981
11/24/2013  12:57:00       63.219       28.741       58.648       45.756       35.768       26.487     2093.567     1279.330      701.581        0.617        0.204       69.446       14.846        0.046      336.356        7.603      865.983
11/24/2013  12:58:00       35.336       30.244        7.085       22.499       24.166       27.322      506.204      584.003      746.485        0.202        0.092       46.511       10.330        0.049      336.219        7.373      865.972
11/24/2013  12:59:00       56.079       81.322       76.988       49.696       60.005       55.182     2469.735     3600.658     3045.051        1.240        0.456       98.783       48.127        0.237      336.336        7.568      865.972
11/24/2013  13:00:00       72.601       82.106       75.511       72.094       56.673       52.841     5197.540     3211.800     2792.215        1.446        0.560      109.601       54.205        0.245      336.361        7.611      865.969
11/24/2013  13:01:00       90.152       83.670        6.794       40.561       26.954       37.508     1645.193      726.506     1406.853        0.948        0.189      122.997       24.811        0.041      336.247        7.420      865.960
11/24/2013  13:02:00       85.331       70.423       18.946       24.024       15.063       24.561      577.169      226.884      603.259        0.700        0.070      110.638       16.120        0.021      336.104        7.182      865.955
11/24/2013  13:03:00       58.001        5.011       16.511       39.709       43.826       28.829     1576.781     1920.729      831.099        0.399        0.216       58.217       13.084        0.051      336.364        7.616      865.949
11/24/2013  13:04:00      122.176       69.139       36.222       65.115       60.630       57.233     4239.970     3675.989     3275.666        1.610        0.560      140.383       31.115        0.049      336.237        7.403      865.937
11/24/2013  13:05:00       94.354       75.809       46.047       61.932       43.871       43.990     3835.572     1924.657     1935.147        1.223        0.385      121.036       30.132        0.062      336.315        7.534      865.941
11/24/2013  13:06:00      119.161       45.680       -0.729       60.025       45.824       31.117     3602.987     2099.832      968.286        1.148        0.334      127.616       22.693        0.032      336.285        7.484      865.947
11/24/2013  13:07:00       86.374       74.006        4.472       72.907       45.021       37.652     5315.430     2026.896     1417.637        1.086        0.438      113.742       26.988        0.056      336.432        7.730      865.936
11/24/2013  13:08:00       60.317       52.865       12.462       40.377       33.872       33.467     1630.272     1147.283     1120.041        0.524        0.195       80.205       23.100        0.083      336.455        7.769      865.941
11/24/2013  13:09:00       40.430       19.345       23.154       47.200       54.306       42.198     2227.809     2949.185     1780.703        0.475        0.348       44.820       29.475        0.432      336.641        8.081      865.948
11/24/2013  13:10:00      111.659      105.656       85.419       65.161       59.928       55.383     4246.007     3591.398     3067.228        2.091        0.545      153.724       51.822        0.114      336.336        7.568      865.946
11/24/2013  13:11:00       43.921       50.741       49.185       45.260       57.981       36.194     2048.478     3361.848     1310.031        0.682        0.336       67.110       31.283        0.217      336.412        7.696      865.944
11/24/2013  13:12:00        9.856       57.699       66.548       37.814       40.997       33.418     1429.915     1680.790     1116.794        0.604        0.211       58.534       30.236        0.267      336.699        8.177      865.944
11/24/2013  13:13:00       -1.743       29.469       44.598       31.664       34.035       27.948     1002.577     1158.380      781.101        0.290        0.147       29.521       10.005        0.115      336.824        8.384      865.949
11/24/2013  13:14:00      121.071      106.775       22.272       54.960       33.471       32.607     3020.576     1120.293     1063.201        1.588        0.260      161.429       19.640        0.015      336.215        7.367      865.952
11/24/2013  13:15:00       64.575       42.672       42.645       63.722       36.556       33.167     4060.508     1336.373     1100.043        0.715        0.325       77.400       28.570        0.136      336.652        8.096      865.962
11/24/2013  13:16:00      112.082       73.599       43.672       66.457       71.382       55.350     4416.570     5095.452     3063.634        1.623        0.629      134.087       50.542        0.142      336.489        7.823      865.962
11/24/2013  13:17:00       15.787       85.609      102.025       47.161       46.717       34.167     2224.133     2182.494     1167.385        1.178        0.279       87.052       24.367        0.078      336.569        7.959      865.967
11/24/2013  13:18:00       83.765       67.323       54.615       30.750       39.577       44.567      945.544     1566.333     1986.210        0.951        0.225      107.466       35.938        0.112      336.339        7.574      865.967
11/24/2013  13:19:00       58.739       43.369       79.265       35.232       35.160       28.451     1241.297     1236.255      809.435        0.745        0.164       73.015       16.961        0.054      336.511        7.862      865.967
11/24/2013  13:20:00       71.933       26.617        7.204       55.778       38.420       39.413     3111.140     1476.113     1553.394        0.604        0.307       76.700       23.171        0.091      336.534        7.901      865.969
11/24/2013  13:21:00       61.328       58.150       68.965       96.506       66.998       58.833     9313.343     4488.718     3461.302        1.458        0.863       84.514       62.683        0.550      336.702        8.182      865.963
11/24/2013  13:22:00       79.723       44.914       -8.958       83.343       60.023       20.140     6945.973     3602.701      405.617        0.970        0.548       91.504       28.325        0.096      336.352        7.596      865.988
11/24/2013  13:23:00       93.234       34.410        1.932       72.745       35.946       32.633     5291.797     1292.124     1064.924        0.876        0.382       99.381       14.302        0.021      336.461        7.778      865.991
11/24/2013  13:24:00       70.230       64.728        3.563       54.251       41.219       36.192     2943.225     1699.009     1309.874        0.754        0.298       95.509       25.399        0.071      336.494        7.832      866.001
11/24/2013  13:25:00       55.909       48.690       31.308       44.302       36.087       35.496     1962.679     1302.265     1259.940        0.550        0.226       74.138       26.516        0.128      336.756        8.272      866.003
11/24/2013  13:26:00       58.839       58.841       19.178       62.145       36.414       27.281     3862.054     1325.987      744.248        0.661        0.297       83.212       21.240        0.065      336.811        8.362      866.004
11/24/2013  13:27:00      110.414       44.665       34.963       63.879       36.947       44.548     4080.504     1365.054     1984.529        1.142        0.372      119.105       22.690        0.036      336.709        8.193      865.998
11/24/2013  13:28:00       54.809       42.538        3.243       45.622       35.168       23.440     2081.375     1236.810      549.437        0.435        0.193       69.379       20.665        0.089      336.533        7.899      865.997
11/24/2013  13:29:00       80.114       79.894        9.046       52.776       31.644       37.725     2785.286     1001.348     1423.162        0.905        0.260      113.143       20.491        0.033      336.601        8.013      865.998
11/24/2013  13:30:00       90.430       71.067        7.523       64.389       40.928       27.470     4145.916     1675.075      754.590        0.993        0.329      115.013       20.893        0.033      336.654        8.101      865.997
11/24/2013  13:31:00       72.625       84.114       52.333       77.160       44.316       61.639     5953.632     1963.884     3799.376        1.340        0.586      111.129       58.440        0.277      336.879        8.476      865.996
11/24/2013  13:32:00       17.730       25.745       82.796       37.699       94.748       47.672     1421.228     8977.124     2272.645        1.025        0.634       31.260       60.633        3.762      336.737        8.240      865.983
11/24/2013  13:33:00        4.479       23.528       43.787       34.242       41.349       39.758     1172.547     1709.720     1580.669        0.348        0.223       23.950       35.884        2.245      336.923        8.551      865.986
11/24/2013  13:34:00       27.402       45.256        8.250       43.004       28.021       30.124     1849.339      785.151      907.471        0.320        0.177       52.906       17.905        0.115      336.768        8.293      865.986
11/24/2013  13:35:00       97.776       46.623        4.614       52.004       22.923       30.977     2704.370      525.484      959.585        0.797        0.209      108.323       14.201        0.017      336.657        8.107      865.990
11/24/2013  13:36:00       24.436       55.338       35.425       51.929       44.836       35.679     2696.612     2010.302     1272.961        0.545        0.299       60.493       36.722        0.369      337.062        8.784      865.984
11/24/2013  13:37:00       26.458       52.395       32.662       47.965       31.817       36.343     2300.680     1012.298     1320.839        0.457        0.232       58.696       33.830        0.332      336.979        8.644      865.992
11/24/2013  13:38:00      113.269       66.491       20.500       33.737       29.540       28.855     1138.199      872.592      832.609        1.026        0.142      131.343       18.542        0.020      336.700        8.178      866.002
11/24/2013  13:39:00       50.021       51.558       37.005       56.263       57.614       56.741     3165.497     3319.334     3219.591        0.812        0.485       71.835       52.532        0.535      336.949        8.593      866.009
11/24/2013  13:40:00       35.491       97.769      101.284       39.130       39.423       24.338     1531.146     1554.183      592.346        1.238        0.184      104.011       26.650        0.066      336.756        8.272      866.003
11/24/2013  13:41:00       28.929       13.680       45.279       29.885       21.242       17.828      893.087      451.238      317.849        0.237        0.083       32.001       11.354        0.126      336.929        8.560      865.993
11/24/2013  13:42:00       10.101      -36.069       11.329       30.592       35.051       18.638      935.886     1228.546      347.368        0.202        0.126       37.457       17.611        0.221      336.905        8.521      865.983
11/24/2013  13:43:00        2.834       15.335       10.489       25.658       49.414       19.092      658.326     2441.747      364.487        0.191        0.173       15.595       17.914        1.320      337.144        8.921      865.989
11/24/2013  13:44:00       64.867       42.889       19.015       39.159       27.008       38.237     1533.462      729.444     1462.082        0.507        0.186       77.764       22.864        0.086      337.027        8.723      866.002
11/24/2013  13:45:00       71.361      117.685      137.458       82.090       73.070       48.881     6738.720     5339.191     2389.373        2.615        0.723      137.630       47.260        0.118      336.831        8.395      865.991
11/24/2013  13:46:00       66.226      104.701      103.957       61.843       65.341       50.505     3824.610     4269.467     2550.751        1.840        0.532      123.888       45.332        0.134      336.797        8.340      865.986
11/24/2013  13:47:00       12.145      102.329      132.467       48.015       73.876       47.778     2305.451     5457.603     2282.769        1.910        0.502      103.047       50.759        0.243      336.929        8.559      865.982
11/24/2013  13:48:00      107.991      116.073       82.071       44.264       40.388       46.894     1959.281     1631.197     2199.077        1.883        0.289      158.540       30.010        0.036      336.839        8.408      865.985
11/24/2013  13:49:00       74.115      143.196      116.855       59.062       43.278       31.497     3488.301     1872.957      992.051        2.300        0.318      161.240       25.932        0.026      336.817        8.371      865.980
11/24/2013  13:50:00       11.881       53.030       68.652       33.722       38.640       32.944     1137.183     1493.037     1085.314        0.569        0.186       54.345       28.049        0.266      336.929        8.559      865.975
11/24/2013  13:51:00       13.238       31.451       41.926       24.518       36.785       19.353      601.109     1353.104      374.546        0.263        0.116       34.123       13.271        0.151      337.157        8.940      865.970
11/24/2013  13:52:00       32.931       25.580       19.475       35.692       38.716       28.996     1273.940     1498.915      840.786        0.287        0.181       41.699       22.729        0.297      337.311        9.201      865.977
11/24/2013  13:53:00      106.505       71.722        2.806       63.128       37.038       36.221     3985.082     1371.799     1311.948        1.158        0.333      128.403       19.508        0.023      337.127        8.891      865.982
11/24/2013  13:54:00      105.102       90.561       -0.619       73.102       45.741       49.619     5343.873     2092.261     2462.013        1.457        0.495      138.736       31.944        0.053      336.951        8.597      865.986
11/24/2013  13:55:00       38.470       90.532       -2.240       43.954       59.675       44.221     1931.959     3561.130     1955.483        0.856        0.372       98.367       45.745        0.216      336.920        8.546      865.973
11/24/2013  13:56:00       26.702       31.424        1.832       31.803       39.042       24.941     1011.428     1524.272      622.064        0.243        0.158       41.237       18.913        0.210      336.990        8.661      865.967
11/24/2013  13:57:00       23.234       25.163       -5.631       25.062       25.483       18.735      628.082      649.364      351.006        0.142        0.081       34.249       13.862        0.164      337.069        8.793      865.965
11/24/2013  13:58:00        5.765       67.505       -3.048       20.663       32.315       15.186      426.973     1044.288      230.608        0.315        0.085       67.750       14.784        0.048      337.043        8.750      865.967
11/24/2013  13:59:00       12.876       98.546      -14.605       29.930       62.861       18.945      895.823     3951.523      358.902        0.765        0.260       99.383       25.386        0.065      336.966        8.622      865.966
11/24/2013  14:00:00      -23.555      168.361      -15.547       35.213       41.336       31.621     1239.962     1708.685      999.872        1.654        0.197      170.001       13.242        0.006      336.991        8.662      865.952
11/24/2013  14:01:00       74.329       42.841       12.934       93.613       66.209       31.495     8763.452     4383.672      991.958        1.083        0.707       85.792       26.623        0.096      337.315        9.206      865.954
11/24/2013  14:02:00      175.347      109.864       16.971       57.113       53.748       35.445     3261.867     2888.834     1256.346        2.525        0.370      206.922       18.222        0.008      336.976        8.636      865.970
11/24/2013  14:03:00      133.156       83.634       38.962       45.866       40.092       47.238     2103.667     1607.371     2231.383        1.609        0.297      157.242       26.248        0.028      337.086        8.821      865.987
11/24/2013  14:04:00       54.642       83.527      -11.942       35.728       43.665       32.732     1276.503     1906.619     1071.352        0.718        0.213       99.812       25.022        0.063      337.006        8.690      865.998
11/24/2013  14:05:00       73.258       39.830        7.966       39.985       33.949       29.800     1598.838     1152.558      888.025        0.533        0.182       83.385       20.706        0.062      337.109        8.859      865.999
11/24/2013  14:06:00       22.585       37.073       -6.605       35.916       40.977       26.455     1289.928     1679.080      699.856        0.280        0.183       43.411       12.638        0.085      337.276        9.141      866.002
11/24/2013  14:07:00        8.220      -13.755        7.150       18.869       20.354       21.734      356.045      414.289      472.351        0.078        0.062       16.023       18.121        1.279      337.224        9.053      865.994
11/24/2013  14:08:00       35.076       27.020        9.630       22.368       16.954       14.176      500.337      287.450      200.964        0.152        0.049       44.277        8.856        0.040      337.335        9.239      865.983
11/24/2013  14:09:00       60.648       33.716       14.307       32.934       31.972       29.141     1084.629     1022.219      849.196        0.399        0.148       69.390       18.459        0.071      337.341        9.249      865.979
11/24/2013  14:10:00       67.662       52.801       15.600       54.299       37.944       39.120     2948.427     1439.752     1530.395        0.676        0.296       85.826       25.448        0.088      337.267        9.125      865.978
11/24/2013  14:11:00       99.152       83.831        8.938       41.389       39.682       37.559     1713.028     1574.660     1410.692        1.082        0.235      129.841       25.259        0.038      337.097        8.840      865.987
11/24/2013  14:12:00       27.407       78.852       -2.098       40.505       43.414       30.677     1640.629     1884.807      941.072        0.572        0.223       83.480       26.506        0.101      337.093        8.833      865.997
11/24/2013  14:13:00       -6.297       64.903       -4.350       26.646       46.295       26.209      710.026     2143.247      686.892        0.390        0.177       65.207       22.786        0.122      337.168        8.962      865.990
11/24/2013  14:14:00       32.647       69.016        1.127       42.218       60.174       35.180     1782.321     3620.868     1237.667        0.623        0.332       76.348       32.033        0.176      337.182        8.982      865.980
11/24/2013  14:15:00       54.595       62.968       -4.568       50.675       42.314       27.107     2567.991     1790.461      734.807        0.603        0.255       83.341       17.574        0.044      337.036        8.738      865.985
11/24/2013  14:16:00      -19.949      138.260      -22.102       18.238       33.317       13.261      332.621     1110.015      175.855        1.081        0.081      139.692        9.012        0.004      336.932        8.563      865.993
11/24/2013  14:17:00       -7.370      108.706      -20.189       25.852       31.873       17.462      668.309     1015.905      304.919        0.713        0.099      108.955       15.294        0.020      337.119        8.878      865.988
11/24/2013  14:18:00        1.949       48.882       -2.633       30.890       28.992       18.349      954.187      840.531      336.672        0.227        0.107       48.921       13.544        0.077      337.203        9.019      865.986
11/24/2013  14:19:00      -12.540       96.769      -12.797       23.536       35.068       22.635      553.947     1229.766      512.359        0.599        0.115       97.578       17.419        0.032      337.238        9.077      865.987
11/24/2013  14:20:00      -18.622       41.690       -6.720       24.001       41.688       23.002      576.062     1737.926      529.095        0.249        0.142       45.661       10.861        0.057      337.413        9.369      865.980
11/24/2013  14:21:00      -31.247      126.905      -18.537       20.794       36.542       22.107      432.371     1335.332      488.740        0.984        0.113      130.695       13.190        0.010      337.139        8.910      865.968
11/24/2013  14:22:00      -15.114       71.996      -14.190       22.730       28.457       19.318      516.640      809.799      373.167        0.366        0.085       73.566        8.251        0.013      337.172        8.967      865.955
11/24/2013  14:23:00       19.736       38.951        7.653       23.626       15.657       22.558      558.168      245.140      508.863        0.164        0.066       43.665       16.294        0.139      337.257        9.110      865.956
11/24/2013  14:24:00       69.029       63.983       27.952       22.318       23.300       22.718      498.114      542.879      516.110        0.560        0.078       94.121       14.335        0.023      337.177        8.974      865.965
11/24/2013  14:25:00       33.711       41.037        0.100       25.658       24.278       17.690      658.335      589.415      312.952        0.219        0.078       53.109        8.763        0.027      337.254        9.104      865.977
11/24/2013  14:26:00      119.112       80.234       30.677       41.976       26.793       35.301     1761.968      717.863     1246.184        1.265        0.186      143.614       13.344        0.009      337.119        8.877      865.975
11/24/2013  14:27:00      141.599       93.817       47.154       30.341       29.961       25.804      920.564      897.686      665.865        1.678        0.124      169.859       16.889        0.010      337.203        9.018      865.962
11/24/2013  14:28:00       44.750       76.582       67.140       48.146       33.926       34.380     2318.001     1151.001     1182.016        0.851        0.233       88.698       25.139        0.080      337.347        9.260      865.962
11/24/2013  14:29:00       85.914       82.240       46.067       59.003       30.500       52.408     3481.329      930.239     2746.610        1.171        0.358      118.932       45.284        0.145      337.245        9.089      865.956
11/24/2013  14:30:00       18.660        6.736       22.550       28.813       55.907       22.850      830.172     3125.552      522.110        0.269        0.224       19.839       26.892        1.837      337.564        9.623      865.946
11/24/2013  14:31:00       41.234      -40.625       -2.186       36.120       66.839       33.014     1304.639     4467.400     1089.902        0.511        0.343       57.885       33.330        0.332      337.485        9.491      865.942
11/24/2013  14:32:00       30.389      -20.639       -0.505       32.486       52.099       32.635     1055.354     2714.335     1065.020        0.309        0.242       36.735       24.184        0.433      337.491        9.502      865.952
11/24/2013  14:33:00       49.447      -86.905        0.953       66.685       72.322       46.525     4446.933     5230.419     2164.603        1.092        0.592       99.988       45.770        0.210      337.520        9.549      865.950
11/24/2013  14:34:00       73.369      -97.914        6.156       47.796       75.034       45.423     2284.492     5630.125     2063.206        1.249        0.499      122.352       49.024        0.161      337.500        9.515      865.934
11/24/2013  14:35:00       47.782      -46.663        7.180       43.454       59.091       38.050     1888.279     3491.775     1447.804        0.567        0.341       66.787       40.414        0.366      337.338        9.244      865.937
11/24/2013  14:36:00       49.265      -27.333       24.681       47.606       68.931       34.692     2266.288     4751.441     1203.528        0.600        0.411       56.339       38.040        0.456      337.425        9.390      865.937
11/24/2013  14:37:00       57.623      -98.533        1.049       32.028       40.202       32.227     1025.824     1616.227     1038.606        0.835        0.184      114.145       25.357        0.049      337.316        9.210      865.944
11/24/2013  14:38:00       30.154      -64.149       14.742       30.242       66.396       25.716      914.570     4408.375      661.328        0.561        0.299       70.883       27.639        0.152      337.534        9.572      865.941
11/24/2013  14:39:00       46.219       12.574       16.582       32.571       31.655       28.842     1060.898     1002.054      831.884        0.273        0.145       47.899       20.103        0.176      337.432        9.403      865.941
11/24/2013  14:40:00       80.198      133.453      102.902       62.153       53.044       40.292     3863.028     2813.654     1623.432        2.156        0.415      155.697       36.133        0.054      337.286        9.156      865.941
11/24/2013  14:41:00       98.953       87.765       69.243       49.483       45.231       43.759     2448.537     2045.817     1914.888        1.435        0.320      132.267       25.035        0.036      337.216        9.042      865.956
11/24/2013  14:42:00       82.213       39.470        1.421       40.117       21.779       29.452     1609.338      474.332      867.391        0.563        0.148       91.197       13.981        0.024      337.312        9.203      865.961
11/24/2013  14:43:00       22.990       35.839       21.438       52.740       27.224       26.573     2781.547      741.164      706.117        0.325        0.211       42.579       19.934        0.219      337.486        9.493      865.959
11/24/2013  14:44:00       77.335       18.820        9.561       26.492       47.123       23.602      701.800     2220.619      557.068        0.495        0.174       79.592       16.565        0.043      337.225        9.055      865.954
11/24/2013  14:45:00       48.210       31.215        7.147       43.254       32.309       23.526     1870.894     1043.842      553.487        0.341        0.173       57.433       22.560        0.154      337.315        9.206      865.946
11/24/2013  14:46:00       14.257       51.802        3.518       35.966       47.374       25.661     1293.529     2244.309      658.491        0.355        0.210       53.728       18.312        0.116      337.382        9.319      865.949
11/24/2013  14:47:00       51.927       40.770        0.662       28.310       37.404       19.966      801.477     1399.050      398.646        0.348        0.130       66.020       11.127        0.028      337.279        9.146      865.960
11/24/2013  14:48:00       29.676       70.161       -8.436       18.384       24.599       15.122      337.957      605.097      228.682        0.352        0.059       76.179       10.398        0.019      337.227        9.061      865.964
11/24/2013  14:49:00       -6.181       28.554       -9.258       25.013       16.998        8.143      625.673      288.930       66.315        0.096        0.049       29.215        5.114        0.031      337.304        9.188      865.971
11/24/2013  14:50:00      -48.044       60.973       -9.167       23.259       20.276       19.946      540.965      411.100      397.826        0.373        0.067       77.627       10.854        0.020      337.384        9.321      865.972
11/24/2013  14:51:00      -65.333      -17.724       -3.374       25.169       42.609       21.865      633.499     1815.491      478.080        0.376        0.146       67.695       16.075        0.056      337.599        9.682      865.975
11/24/2013  14:52:00      -15.290       38.086        7.499       23.541       41.992       19.492      554.165     1763.345      379.952        0.222        0.135       41.041       15.890        0.150      337.817       10.047      865.984
11/24/2013  14:53:00      -29.005       59.733       -1.800       25.457       19.112       19.919      648.059      365.280      396.758        0.291        0.071       66.403       14.435        0.047      337.450        9.432      865.998
11/24/2013  14:54:00      -27.900       47.072       -8.655       19.718       26.099       16.540      388.785      681.171      273.579        0.221        0.067       54.719       13.788        0.063      337.476        9.476      866.011
11/24/2013  14:55:00      -22.116       38.808      -19.167       19.429       27.189       13.355      377.499      739.262      178.344        0.183        0.065       44.668        4.496        0.010      337.433        9.404      866.016
11/24/2013  14:56:00      -12.436      -10.353      -14.590       20.612       19.043       17.601      424.873      362.625      309.809        0.079        0.055       16.182       11.950        0.545      337.543        9.588      866.027
11/24/2013  14:57:00      -10.147       -7.920       -1.425       18.871        8.716       10.054      356.115       75.964      101.080        0.035        0.027       12.872        4.011        0.097      337.909       10.202      866.032
11/24/2013  14:58:00       49.732      -19.498       -9.837       23.466       17.825       18.247      550.657      317.717      332.946        0.208        0.060       53.418       15.615        0.085      337.453        9.437      866.038
11/24/2013  14:59:00       13.755        6.110       22.959       29.501       26.166       25.945      870.307      684.665      673.128        0.149        0.111       15.051       22.541        2.243      337.619        9.715      866.037
11/24/2013  15:00:00       18.932      -80.008      -16.195       29.131       34.068       27.457      848.635     1160.633      753.912        0.489        0.138       82.217       23.559        0.082      337.679        9.815      866.030
11/24/2013  15:01:00       24.847      -16.557       31.356       24.401       18.398       20.728      595.386      338.479      429.642        0.162        0.068       29.858       14.516        0.236      337.879       10.151      866.023
11/24/2013  15:02:00       24.232      -25.336       22.919       29.010       32.234       25.853      841.586     1039.032      668.354        0.215        0.127       35.058       22.266        0.403      337.832       10.073      866.015
11/24/2013  15:03:00       67.871      -80.825      -16.186       53.459       45.082       41.243     2857.890     2032.406     1700.998        0.899        0.330      105.542       32.737        0.096      337.583        9.654      866.009
11/24/2013  15:04:00       68.895      -97.441      -10.988       26.618       34.538       19.610      708.530     1192.873      384.542        0.832        0.114      119.336       15.076        0.016      337.429        9.397      866.013
11/24/2013  15:05:00       84.503     -123.147      -31.925       32.775       57.728       19.335     1074.228     3332.559      373.856        1.405        0.239      149.352       26.280        0.031      337.367        9.294      866.011
11/24/2013  15:06:00       51.025      -56.937      -14.666       29.727       34.858       19.439      883.713     1215.050      377.872        0.427        0.124       76.455       15.975        0.044      337.403        9.353      866.031
11/24/2013  15:07:00       27.890      -47.960       -5.755       18.494       18.359       15.750      342.046      337.057      248.069        0.202        0.046       55.480        5.587        0.010      337.479        9.481      866.044
11/24/2013  15:08:00       29.273        5.887       15.265       26.453       27.242       22.571      699.774      742.136      509.468        0.154        0.098       29.859       21.308        0.509      337.533        9.571      866.060
11/24/2013  15:09:00      102.663       77.343       59.301       67.106       41.394       50.220     4503.161     1713.446     2522.071        1.439        0.437      128.536       41.400        0.104      337.455        9.439      866.065
11/24/2013  15:10:00       86.369      106.370       75.674       55.477       49.669       51.774     3077.663     2466.976     2680.535        1.636        0.411      137.019       38.507        0.079      337.429        9.397      866.075
11/24/2013  15:11:00      109.787       74.143       45.977       38.048       36.454       49.392     1447.614     1328.879     2439.522        1.244        0.261      132.478       34.033        0.066      337.483        9.488      866.086
11/24/2013  15:12:00       55.162       71.760       54.712       33.119       38.929       35.674     1096.852     1515.454     1272.613        0.753        0.194       90.511       26.117        0.083      337.508        9.530      866.084
11/24/2013  15:13:00       63.877       90.367       69.787       27.601       32.126       28.432      761.837     1032.087      808.373        0.986        0.130      110.664       17.152        0.024      337.545        9.592      866.087
11/24/2013  15:14:00       91.137       61.987       19.638       31.449       36.556       42.962      989.037     1336.370     1845.746        0.835        0.209      110.220       33.887        0.095      337.403        9.352      866.090
11/24/2013  15:15:00       31.954       40.556        0.697       24.940       18.526       11.352      622.000      343.196      128.872        0.188        0.055       51.632        8.679        0.028      337.396        9.341      866.089
11/24/2013  15:16:00        1.724       -1.607       -3.943       11.608       13.265        7.719      134.749      175.954       59.580        0.020        0.019        2.357        6.706        8.098      337.603        9.689      866.085
11/24/2013  15:17:00       14.674        5.413       -1.674       13.240       17.244       10.269      175.286      297.355      105.446        0.041        0.029       15.640        8.332        0.284      337.591        9.667      866.086
11/24/2013  15:18:00       50.969       -9.510       -6.305       32.482       42.309       14.258     1055.112     1790.076      203.292        0.289        0.152       51.848       18.055        0.121      337.471        9.468      866.085
11/24/2013  15:19:00       51.501        2.810       27.333       46.360       35.393       26.860     2149.292     1252.655      721.459        0.376        0.206       51.577       30.452        0.349      337.544        9.588      866.077
11/24/2013  15:20:00       67.098      -95.306       -1.032       27.663       55.258       27.436      765.256     3053.499      752.747        0.908        0.229      116.556       28.129        0.058      337.565        9.624      866.064
11/24/2013  15:21:00       20.472       13.029       11.382       28.149       49.026       23.882      792.353     2403.592      570.348        0.224        0.188       24.267       16.094        0.440      337.673        9.807      866.065
11/24/2013  15:22:00       12.317       10.151        3.797       33.559       41.603       29.965     1126.181     1730.795      897.924        0.201        0.188       15.961       25.616        2.576      337.586        9.660      866.061
11/24/2013  15:23:00       25.143       69.933       67.936       39.433       41.564       35.760     1554.960     1727.583     1278.749        0.735        0.228       74.315       33.455        0.203      337.573        9.639      866.073
11/24/2013  15:24:00      143.233       73.004       25.991       54.743       30.346       39.871     2996.791      920.876     1589.731        1.601        0.275      160.765       18.562        0.013      337.454        9.439      866.072
11/24/2013  15:25:00      105.369       46.436       13.356       48.781       34.998       29.923     2379.623     1224.870      895.363        0.897        0.225      115.147       19.563        0.029      337.442        9.418      866.080
11/24/2013  15:26:00      129.208       28.404       -4.996       64.074       40.044       30.029     4105.475     1603.502      901.744        1.207        0.331      132.293       20.532        0.024      337.402        9.353      866.081
11/24/2013  15:27:00       83.088       51.230       33.603       24.313       27.157       22.414      591.135      737.507      502.367        0.624        0.092       97.612       15.509        0.025      337.462        9.453      866.081
11/24/2013  15:28:00       47.757       34.459        0.972       26.790       15.723       22.857      717.729      247.200      522.454        0.248        0.074       58.891        7.211        0.015      337.483        9.487      866.087
11/24/2013  15:29:00       14.913       39.781       -8.738       15.642       14.039        9.235      244.686      197.086       85.281        0.120        0.026       42.485        6.620        0.024      337.517        9.544      866.094
11/24/2013  15:30:00       22.110       -8.368       -3.100       13.878       25.614        8.290      192.591      656.071       68.718        0.074        0.046       23.641        8.421        0.127      337.487        9.495      866.104
11/24/2013  15:31:00       92.131     -108.698       -8.287       32.769       32.051       23.798     1073.786     1027.279      566.361        1.152        0.133      142.490       13.877        0.009      337.559        9.614      866.097
11/24/2013  15:32:00       52.826      -38.742        5.837       32.819       53.374       31.697     1077.090     2848.799     1004.689        0.463        0.247       65.510       26.837        0.168      337.552        9.602      866.103
11/24/2013  15:33:00       27.108        6.508       13.887       26.265       23.352       17.370      689.876      545.334      301.711        0.125        0.077       27.878       14.886        0.285      337.622        9.720      866.107
11/24/2013  15:34:00       35.843      -29.119       10.646       61.467       54.324       25.464     3778.195     2951.067      648.432        0.481        0.369       46.180       33.744        0.534      337.708        9.864      866.111
11/24/2013  15:35:00       16.204        5.680       19.328       29.493       26.026       20.007      869.861      677.331      400.287        0.131        0.097       17.171       25.508        2.207      337.688        9.831      866.125
11/24/2013  15:36:00       37.974       43.561       51.998       40.293       31.908       27.006     1623.550     1018.149      729.318        0.471        0.169       57.789       16.269        0.079      337.609        9.698      866.136
11/24/2013  15:37:00       72.353       66.503       78.394       49.203       38.676       38.386     2420.910     1495.831     1473.463        1.060        0.270       98.273       30.839        0.098      337.598        9.680      866.145
11/24/2013  15:38:00       72.360       69.198       67.980       59.822       33.872       42.234     3578.620     1147.311     1783.742        1.058        0.325      100.122       38.699        0.149      337.562        9.618      866.157
11/24/2013  15:39:00       45.910       54.292       42.275       40.770       42.386       37.547     1662.204     1796.549     1409.797        0.585        0.243       71.101       34.823        0.240      337.534        9.574      866.165
11/24/2013  15:40:00       34.334        7.703       21.481       33.017       37.719       24.446     1090.097     1422.724      597.611        0.240        0.156       35.188        8.214        0.054      337.570        9.633      866.162
11/24/2013  15:41:00       13.743       28.589       54.907       35.521       51.831       30.307     1261.772     2686.456      918.509        0.444        0.243       31.721       32.972        1.080      337.663        9.789      866.154
11/24/2013  15:42:00       68.996       64.671       49.595       50.130       52.933       40.956     2513.056     2801.905     1677.362        0.920        0.350       94.566       34.981        0.137      337.492        9.501      866.152
11/24/2013  15:43:00      104.728       84.124       42.842       64.083       33.146       35.748     4106.666     1098.678     1277.910        1.318        0.324      134.331       38.076        0.080      337.505        9.525      866.144
11/24/2013  15:44:00       27.962       48.787       41.801       28.256       28.344       25.599      798.408      803.371      655.292        0.358        0.113       56.232       17.095        0.092      337.588        9.662      866.131
11/24/2013  15:45:00       57.747       38.594        9.016       26.863       20.322       22.172      721.640      413.002      491.584        0.327        0.081       69.457       12.792        0.034      337.523        9.553      866.131
11/24/2013  15:46:00       72.749       55.131        5.271       31.311       26.387       20.584      980.387      696.277      423.702        0.523        0.105       91.279        9.026        0.010      337.424        9.387      866.136
11/24/2013  15:47:00       38.697       30.190        7.926       33.505       26.955       16.000     1122.569      726.562      256.013        0.229        0.105       49.080       10.803        0.048      337.430        9.398      866.134
11/24/2013  15:48:00       71.613       53.024       17.336       39.737       25.158       27.129     1579.022      632.939      735.979        0.559        0.147       89.107       23.132        0.067      337.425        9.392      866.145
11/24/2013  15:49:00       87.938       64.761       35.315       29.769       24.173       28.185      886.218      584.345      794.371        0.772        0.113      109.211       17.601        0.026      337.477        9.477      866.155
11/24/2013  15:50:00       71.260       47.529       55.720       38.859       37.373       33.568     1510.053     1396.722     1126.838        0.724        0.202       85.656       29.297        0.117      337.492        9.502      866.158
11/24/2013  15:51:00       71.182       56.772       75.319       45.111       50.159       36.357     2035.045     2515.893     1321.838        0.992        0.294       91.049       33.580        0.136      337.483        9.487      866.152
11/24/2013  15:52:00       33.313       73.191       81.012       42.089       51.727       47.001     1771.475     2675.689     2209.132        0.984        0.333       80.415       43.105        0.287      337.518        9.546      866.148
11/24/2013  15:53:00       68.306       48.293       26.227       33.822       22.831       33.385     1143.932      521.270     1114.545        0.523        0.139       83.653       22.683        0.074      337.543        9.587      866.155
11/24/2013  15:54:00       31.899       56.640       64.571       36.787       34.887       29.162     1353.301     1217.122      850.447        0.591        0.171       65.005       24.698        0.144      337.521        9.552      866.158
11/24/2013  15:55:00       56.459       50.266       50.207       26.709       24.112       21.531      713.353      581.403      463.603        0.500        0.088       75.594       18.787        0.062      337.483        9.487      866.171
11/24/2013  15:56:00       37.061       36.337       47.538       39.679       34.092       29.357     1574.454     1162.278      861.804        0.428        0.180       51.903       25.469        0.241      337.495        9.508      866.171
11/24/2013  15:57:00       13.212       55.170       61.781       23.048       30.194       14.655      531.194      911.677      214.768        0.435        0.083       56.730       14.163        0.062      337.558        9.615      866.176
11/24/2013  15:58:00       55.205       71.135       51.025       36.235       26.617       23.630     1312.948      708.441      558.375        0.665        0.129       90.043       20.698        0.053      337.502        9.520      866.172
11/24/2013  15:59:00       63.796       40.667       16.191       20.480       17.153       16.348      419.444      294.231      267.254        0.348        0.049       75.656       11.127        0.022      337.499        9.514      866.171
11/24/2013  16:00:00       61.651       32.117       19.949       26.339       23.879       18.142      693.719      570.195      329.135        0.341        0.080       69.515       14.399        0.043      337.457        9.444      866.170
11/24/2013  16:01:00       55.453       36.033       20.233       26.232       17.628       15.863      688.116      310.734      251.643        0.302        0.063       66.132       12.986        0.039      337.424        9.389      866.170
11/24/2013  16:02:00       33.393       21.096       30.210       24.281       15.277       12.978      589.583      233.376      168.435        0.173        0.050       39.498        8.902        0.051      337.430        9.398      866.167
11/24/2013  16:03:00       56.449       -5.494        7.343       43.802       22.735       21.844     1918.580      516.882      477.171        0.309        0.146       56.715       13.944        0.060      337.464        9.456      866.165
11/24/2013  16:04:00       57.065       41.329        5.473       24.004       12.209       14.844      576.215      149.068      220.358        0.297        0.047       70.459        8.314        0.014      337.436        9.408      866.162
11/24/2013  16:05:00       37.995       30.107        3.356       18.890       16.583       15.268      356.824      274.997      233.103        0.161        0.043       48.477        9.832        0.041      337.394        9.338      866.167
11/24/2013  16:06:00       81.033       54.296        9.618       26.888       18.484       21.567      722.989      341.664      465.122        0.557        0.076       97.542        9.228        0.009      337.418        9.379      866.175
11/24/2013  16:07:00       97.139       46.017       16.419       26.575       33.804       24.533      706.209     1142.680      601.886        0.714        0.123      107.488       16.404        0.023      337.379        9.313      866.192
11/24/2013  16:08:00       79.091       48.254       17.331       22.232       21.388       18.720      494.242      457.463      350.435        0.509        0.065       92.650       15.308        0.027      337.385        9.323      866.213
11/24/2013  16:09:00       84.280       45.726        5.054       16.597       14.642       18.894      275.446      214.399      356.991        0.503        0.042       95.886       11.990        0.016      337.451        9.432      866.222
11/24/2013  16:10:00       62.549       36.300       11.648       14.570       17.164       14.904      212.287      294.603      222.118        0.305        0.036       72.319        7.755        0.011      337.385        9.321      866.219
11/24/2013  16:11:00       53.047       30.920        3.866       12.473       10.224        7.591      155.578      104.522       57.629        0.205        0.016       61.401        7.120        0.013      337.451        9.434      866.210
11/24/2013  16:12:00       36.734       26.256        3.165       14.186       10.797        7.391      201.233      116.567       54.630        0.121        0.019       45.152        3.826        0.007      337.492        9.503      866.208
11/24/2013  16:13:00       21.903       15.980        3.281       12.424        9.398        7.966      154.368       88.323       63.451        0.053        0.015       27.113        7.382        0.074      337.469        9.464      866.196
11/24/2013  16:14:00       58.703       36.312        6.586       13.630        8.898        8.685      185.773       79.179       75.424        0.257        0.017       69.026        5.119        0.005      337.434        9.403      866.203
11/24/2013  16:15:00       80.110       39.657       13.772       19.598       16.640       13.490      384.097      276.877      181.993        0.451        0.042       89.388       10.030        0.013      337.334        9.238      866.214
11/24/2013  16:16:00      110.846       40.725       12.414       31.644       23.938       22.229     1001.330      573.011      494.122        0.808        0.103      118.091       10.824        0.008      337.356        9.274      866.219
11/24/2013  16:17:00       94.917       52.019       20.218       32.448       23.849       19.902     1052.855      568.779      396.106        0.707        0.101      108.237       15.316        0.020      337.287        9.159      866.224
11/24/2013  16:18:00       81.535       40.667       24.127       25.599       25.940       16.845      655.299      672.875      283.753        0.525        0.081       91.114        9.036        0.010      337.236        9.075      866.232
11/24/2013  16:19:00       80.537       51.141       28.239       24.320       16.630       17.127      591.482      276.557      293.323        0.553        0.058       95.402        8.923        0.009      337.223        9.050      866.229
11/24/2013  16:20:00       69.845       58.812       18.398       24.404       15.386       16.897      595.550      236.738      285.509        0.490        0.056       91.308       13.393        0.022      337.185        8.985      866.225
11/24/2013  16:21:00       75.907       38.308       20.688       20.366       18.305       13.358      414.755      335.073      178.444        0.429        0.046       85.026        7.755        0.008      337.171        8.964      866.223
11/24/2013  16:22:00       49.614       20.704       14.677       20.694       15.674       14.147      428.230      245.689      200.129        0.199        0.044       53.761        9.360        0.030      337.107        8.855      866.230
11/24/2013  16:23:00       68.493       27.200       13.518       23.639       16.339       15.864      558.821      266.969      251.654        0.335        0.054       73.696       11.732        0.025      337.161        8.948      866.230
11/24/2013  16:24:00       57.395       37.558       18.534       24.841       21.162       19.677      617.096      447.811      387.184        0.325        0.073       68.591       14.531        0.045      337.167        8.958      866.240
11/24/2013  16:25:00       78.376       43.769       25.460       21.169       20.260       19.698      448.111      410.483      388.011        0.498        0.062       89.770        6.507        0.005      337.202        9.017      866.261
11/24/2013  16:26:00       82.452       46.857       12.605       21.363       17.901       14.307      456.379      320.443      204.682        0.507        0.049       94.836        8.618        0.008      337.197        9.009      866.287
11/24/2013  16:27:00       68.989       37.120        6.517       25.505       13.024       11.364      650.521      169.632      129.137        0.356        0.047       78.341        9.899        0.016      337.161        8.947      866.304
11/24/2013  16:28:00       63.694       44.029       12.358       15.582       11.342        9.742      242.811      128.641       94.911        0.331        0.023       77.431        5.968        0.006      337.218        9.045      866.307
11/24/2013  16:29:00       34.217       30.123        0.361       23.199       17.903       10.800      538.173      320.530      116.635        0.153        0.049       45.587        9.110        0.040      337.160        8.946      866.297
11/24/2013  16:30:00       10.625       35.815       -6.412       18.117       21.809       12.124      328.218      475.625      146.996        0.119        0.048       37.357        9.445        0.064      337.120        8.879      866.295
11/24/2013  16:31:00       20.727       44.208       -6.948       19.410       31.962       13.798      376.738     1021.578      190.380        0.201        0.079       48.826        9.136        0.035      337.152        8.935      866.299
11/24/2013  16:32:00       24.931      114.353      -18.492       24.907       33.174       16.636      620.356     1100.535      276.741        0.802        0.100      117.039       14.501        0.015      337.191        8.999      866.304
11/24/2013  16:33:00       25.534       93.315      -10.385       23.397       35.848       25.175      547.425     1285.057      633.802        0.597        0.123       96.745       21.675        0.050      337.050        8.762      866.310
11/24/2013  16:34:00       24.574      116.591      -20.031       22.760       28.281       19.450      518.007      799.809      378.305        0.815        0.085      119.152       16.227        0.019      337.094        8.836      866.314
11/24/2013  16:35:00       -0.717      140.170      -23.656       26.134       29.058       13.617      682.979      844.389      185.429        1.096        0.086      140.172       13.096        0.009      337.106        8.856      866.320
11/24/2013  16:36:00       11.348       91.664      -10.610       27.161       35.218       19.511      737.738     1240.292      380.666        0.550        0.118       92.364       20.331        0.048      336.953        8.600      866.328
11/24/2013  16:37:00        9.967      105.462      -21.119       11.897       37.719       10.998      141.529     1422.689      120.955        0.668        0.084      105.932       15.082        0.020      336.978        8.640      866.326
11/24/2013  16:38:00        0.381       99.954      -17.928       19.149       21.141       10.459      366.703      446.922      109.397        0.562        0.046       99.955        6.493        0.004      336.968        8.624      866.342
11/24/2013  16:39:00      -10.329      104.678      -17.469       19.535       20.237       10.752      381.617      409.520      115.599        0.614        0.045      105.187        4.890        0.002      336.949        8.593      866.343
11/24/2013  16:40:00      -19.071      108.205      -17.440       22.660       15.985       11.367      513.497      255.520      129.210        0.664        0.045      109.873        7.898        0.005      336.954        8.601      866.344
11/24/2013  16:41:00      -55.519       71.144      -13.851       25.150       28.079       11.918      632.534      788.420      142.032        0.495        0.078       90.243        8.999        0.010      336.985        8.654      866.332
11/24/2013  16:42:00      -49.893       55.885      -19.960       24.367       25.509       10.548      593.735      650.723      111.263        0.368        0.068       74.916        9.467        0.016      336.990        8.661      866.335
11/24/2013  16:43:00      -48.382       42.275      -14.521       13.922       28.885       11.866      193.811      834.322      140.794        0.275        0.058       64.249       14.908        0.054      336.983        8.650      866.335
11/24/2013  16:44:00      -36.277       40.372       -4.028       20.841       31.410       19.779      434.347      986.581      391.222        0.239        0.091       54.277       16.274        0.090      336.910        8.528      866.350
11/24/2013  16:45:00      -27.534       45.274      -14.539       27.921       22.643       12.089      779.593      512.719      146.153        0.223        0.072       52.989        8.363        0.025      336.928        8.558      866.372
11/24/2013  16:46:00      -45.134       85.608      -15.938       30.037       23.522       15.637      902.202      553.307      244.503        0.566        0.085       96.777       13.484        0.019      336.886        8.488      866.390
11/24/2013  16:47:00      -54.223       65.002      -12.675       27.040       31.537       16.524      731.152      994.611      273.056        0.466        0.100       84.648       17.626        0.043      336.771        8.296      866.401
11/24/2013  16:48:00      -53.362       51.053      -16.584       19.712       33.775       14.956      388.566     1140.770      223.689        0.374        0.088       73.850       12.023        0.027      336.856        8.438      866.399
11/24/2013  16:49:00      -49.347       17.640       -7.089       24.083       22.281       13.547      579.999      496.432      183.511        0.203        0.063       52.405       14.358        0.075      336.734        8.237      866.390
11/24/2013  16:50:00      -40.349       -8.486       -6.527       16.746       13.638        8.299      280.426      186.006       68.880        0.114        0.027       41.232        7.324        0.032      336.570        7.961      866.381
11/24/2013  16:51:00      -56.962       10.244       -9.970       29.290       16.369       14.907      857.892      267.940      222.212        0.240        0.067       57.876       14.993        0.067      336.366        7.619      866.382
11/24/2013  16:52:00      -66.673       12.721      -15.668       17.249       20.240       12.594      297.529      409.671      158.619        0.286        0.043       67.876       10.621        0.024      336.398        7.673      866.390
11/24/2013  16:53:00      -73.713        9.137      -12.491       36.714       14.621       18.582     1347.950      213.777      345.279        0.379        0.095       74.277       21.278        0.082      336.280        7.477      866.401
11/24/2013  16:54:00      -84.801        7.893      -15.169       20.463       21.189       13.183      418.749      448.968      173.778        0.426        0.052       85.168        8.117        0.009      336.288        7.490      866.417
11/24/2013  16:55:00      -81.065        6.334       -1.496       35.119       18.410       20.246     1233.355      338.912      409.902        0.430        0.099       81.312       22.578        0.077      336.179        7.306      866.427
11/24/2013  16:56:00      -93.670        4.998      -13.772       28.447       23.007       17.335      809.249      529.327      300.516        0.531        0.082       93.803       11.148        0.014      336.132        7.227      866.448
11/24/2013  16:57:00     -112.620        8.402      -18.192       26.172       22.428       16.626      684.981      503.029      276.413        0.727        0.073      112.933       16.964        0.023      336.108        7.188      866.460
11/24/2013  16:58:00      -88.649       -6.114      -17.533       29.666       21.994       23.812      880.087      483.756      566.995        0.507        0.097       88.860       17.541        0.039      336.010        7.024      866.460
11/24/2013  16:59:00      -98.586       -4.598      -21.443       32.732       25.186       21.665     1071.400      634.354      469.374        0.619        0.109       98.693       20.547        0.043      335.951        6.927      866.461
11/24/2013  17:00:00     -104.841       -2.927      -14.242       32.194       35.982       23.276     1036.484     1294.724      541.769        0.704        0.144      104.882       10.615        0.010      335.809        6.690      866.481
11/24/2013  17:01:00     -117.249        8.898      -19.471       42.029       30.975       24.079     1766.441      959.430      579.784        0.875        0.165      117.586       12.977        0.012      335.848        6.756      866.505
11/24/2013  17:02:00     -127.253        1.742      -17.267       35.603       31.705       21.772     1267.546     1005.238      474.040        0.962        0.137      127.265       15.505        0.015      335.740        6.575      866.525
11/24/2013  17:03:00     -104.712        3.916      -15.891       47.418       38.178       23.024     2248.489     1457.593      530.124        0.773        0.212      104.785       20.003        0.036      335.665        6.451      866.537
11/24/2013  17:04:00     -102.767        2.170      -17.452       45.869       45.209       26.681     2103.952     2043.870      711.865        0.786        0.243      102.790       19.031        0.034      335.585        6.317      866.535
11/24/2013  17:05:00     -122.022       -7.973      -17.642       34.736       39.289       27.542     1206.574     1543.611      758.540        0.939        0.175      122.283       20.755        0.029      335.516        6.202      866.538
11/24/2013  17:06:00     -108.432       -4.008      -10.949       37.985       31.400       24.152     1442.840      985.966      583.314        0.745        0.151      108.506       18.874        0.030      335.491        6.160      866.542
11/24/2013  17:07:00     -108.154       -6.341       -7.466       32.709       31.545       27.743     1069.857      995.062      769.687        0.731        0.142      108.340       22.373        0.043      335.430        6.059      866.567
11/24/2013  17:08:00     -109.801      -10.734      -15.408       40.967       31.045       21.239     1678.270      963.795      451.091        0.775        0.155      110.324       18.605        0.028      335.473        6.130      866.594
11/24/2013  17:09:00      -83.469       -6.459        7.260       47.277       37.834       27.770     2235.113     1431.448      771.167        0.575        0.222       83.719       23.177        0.077      335.333        5.895      866.609
11/24/2013  17:10:00      -99.840       -1.369       -6.850       42.307       27.003       20.216     1789.862      729.139      408.704        0.647        0.146       99.849       20.629        0.043      335.338        5.905      866.620
11/24/2013  17:11:00      -87.920      -16.241       -5.519       37.601       39.211       19.521     1413.846     1537.507      381.082        0.568        0.167       89.408       18.833        0.044      335.432        6.062      866.631
11/24/2013  17:12:00     -125.041        2.439      -14.637       45.071       28.993       22.890     2031.388      840.612      523.973        0.963        0.170      125.065       24.252        0.038      335.338        5.905      866.639
11/24/2013  17:13:00      -96.873       -8.818       -9.317       40.623       30.848       22.364     1650.192      951.591      500.167        0.632        0.155       97.273       23.545        0.059      335.314        5.865      866.650
11/24/2013  17:14:00     -101.485       -4.132      -11.909       41.427       25.550       20.550     1716.206      652.815      422.301        0.662        0.140      101.569       22.828        0.051      335.314        5.866      866.661
11/24/2013  17:15:00      -98.811      -13.925      -10.892       42.254       28.888       18.707     1785.435      834.489      349.946        0.652        0.148       99.788       19.188        0.037      335.244        5.749      866.660
11/24/2013  17:16:00     -108.416      -14.000      -12.863       44.295       21.372       20.299     1962.083      456.753      412.051        0.747        0.142      109.317       23.603        0.047      335.220        5.709      866.669
11/24/2013  17:17:00      -84.631       -7.748       -9.030       48.972       30.670       22.204     2398.252      940.661      493.004        0.557        0.192       84.985       26.204        0.095      335.231        5.728      866.676
11/24/2013  17:18:00     -102.425        4.712      -10.421       39.169       30.557       25.055     1534.174      933.730      627.731        0.686        0.155      102.533       25.055        0.060      335.155        5.601      866.693
11/24/2013  17:19:00      -98.657       -4.891       -9.856       40.104       29.122       20.713     1608.300      848.079      429.044        0.637        0.144       98.778       17.337        0.031      335.178        5.639      866.717
11/24/2013  17:20:00     -112.409       -7.053      -14.319       35.338       24.454       16.578     1248.763      597.975      274.841        0.751        0.106      112.630       16.740        0.022      335.187        5.653      866.743
11/24/2013  17:21:00      -78.432      -25.668       -6.011       25.061       23.206       15.262      628.059      538.531      232.928        0.412        0.070       82.526       13.218        0.026      335.198        5.673      866.770
11/24/2013  17:22:00      -99.098      -20.438      -10.892       25.275       28.902       13.142      638.824      835.331      172.707        0.600        0.082      101.184       11.002        0.012      335.136        5.571      866.792
11/24/2013  17:23:00      -87.045      -12.926      -18.036       25.815       21.979       15.666      666.420      483.072      245.421        0.473        0.070       88.000       10.825        0.015      335.073        5.465      866.824
11/24/2013  17:24:00      -94.668      -21.516      -14.735       32.036       18.973       18.360     1026.291      359.964      337.072        0.568        0.086       97.082       14.093        0.021      335.056        5.437      866.833
11/24/2013  17:25:00      -39.031      -31.821      -10.827       23.158       12.571       10.963      536.311      158.021      120.196        0.173        0.041       50.359       11.613        0.053      335.088        5.490      866.849
11/24/2013  17:26:00      -29.732      -37.920      -10.370       22.135       13.231       13.266      489.974      175.058      175.982        0.164        0.042       48.186       10.987        0.052      335.060        5.442      866.861
11/24/2013  17:27:00      -29.726      -19.709       -4.141       26.786       19.118        9.968      717.516      365.493       99.357        0.124        0.059       35.666       11.098        0.097      335.103        5.516      866.878
11/24/2013  17:28:00      -73.590      -45.432      -12.558       11.304       16.264        7.959      127.787      264.520       63.349        0.405        0.023       86.485        5.091        0.003      335.239        5.740      866.891
11/24/2013  17:29:00      -76.010      -27.463      -14.687       15.550       11.954        7.511      241.814      142.908       56.415        0.359        0.022       80.819        7.502        0.009      335.297        5.836      866.912
11/24/2013  17:30:00      -79.706      -29.613      -14.394       12.076       14.357        8.902      145.822      206.116       79.252        0.393        0.022       85.029        5.466        0.004      335.313        5.863      866.941
11/24/2013  17:31:00      -63.529      -17.895       -4.923       16.917       18.854       12.589      286.196      355.467      158.481        0.259        0.040       66.002        9.823        0.022      335.368        5.955      866.953
11/24/2013  17:32:00      -69.258      -25.499       -8.124        8.492        8.663        8.559       72.108       75.052       73.262        0.287        0.011       73.803        4.475        0.004      335.409        6.022      866.975
11/24/2013  17:33:00      -59.869      -30.807       -8.696       11.355       12.157        9.038      128.945      147.783       81.683        0.248        0.018       67.331        6.609        0.010      335.312        5.862      866.980
11/24/2013  17:34:00      -69.107      -15.457       -8.099       11.570       10.050        7.021      133.867      101.009       49.294        0.268        0.014       70.815        3.461        0.002      335.316        5.868      866.994
11/24/2013  17:35:00      -78.720      -33.849      -13.404       13.653       14.401        8.101      186.393      207.377       65.630        0.399        0.023       85.689        6.132        0.005      335.401        6.009      866.991
11/24/2013  17:36:00      -79.105      -35.181       -8.756        9.489        9.175        8.094       90.050       84.189       65.519        0.391        0.012       86.576        5.348        0.004      335.314        5.864      866.999
11/24/2013  17:37:00      -90.638      -17.807      -14.555       13.402       12.801        9.618      179.611      163.863       92.499        0.459        0.022       92.371        6.012        0.004      335.272        5.795      867.005
11/24/2013  17:38:00     -105.601      -24.479      -12.662       25.675       17.184       13.265      659.229      295.299      175.955        0.652        0.057      108.401       12.707        0.014      335.226        5.718      867.008
11/24/2013  17:39:00     -103.192      -20.364      -13.393       29.564       14.500       12.541      874.055      210.259      157.279        0.624        0.062      105.182       13.629        0.017      335.101        5.513      867.006
11/24/2013  17:40:00     -105.460      -16.569      -10.843       22.940       21.588       15.723      526.255      466.027      247.200        0.638        0.062      106.753       12.063        0.013      335.004        5.350      867.023
11/24/2013  17:41:00     -127.321      -37.457      -17.142       21.533       22.055       12.843      463.662      486.409      164.946        0.951        0.056      132.717        8.881        0.004      334.996        5.339      867.032
11/24/2013  17:42:00      -91.559      -33.010       -2.563       31.511       23.121       16.052      992.928      534.603      257.662        0.563        0.089       97.328       16.080        0.027      334.860        5.113      867.044
11/24/2013  17:43:00     -108.552      -25.459      -10.026       22.789       17.884       11.495      519.336      319.824      132.133        0.675        0.049      111.498       11.919        0.011      334.915        5.203      867.069
11/24/2013  17:44:00      -92.675      -38.277       -6.793       13.942       20.865       12.777      194.386      435.342      163.245        0.545        0.040      100.269       10.040        0.010      334.955        5.268      867.100
11/24/2013  17:45:00      -75.906      -33.348       -2.886       23.864       16.233       14.685      569.505      263.517      215.659        0.397        0.052       82.909       13.182        0.025      334.861        5.113      867.125
11/24/2013  17:46:00      -90.451      -34.523      -11.743       12.990       13.008        9.956      168.730      169.199       99.119        0.497        0.022       96.816        8.326        0.007      334.873        5.134      867.150
11/24/2013  17:47:00      -99.557      -41.187      -14.444       12.206       12.639        9.077      148.983      159.750       82.389        0.610        0.020      107.741        4.423        0.002      334.951        5.263      867.156
11/24/2013  17:48:00     -121.566      -40.228      -22.607       14.209       12.235        9.002      201.898      149.705       81.041        0.867        0.022      128.049        9.751        0.006      334.966        5.287      867.159
11/24/2013  17:49:00     -111.367      -32.586      -17.201       12.219        9.723        7.887      149.293       94.543       62.208        0.703        0.015      116.037        5.266        0.002      334.875        5.136      867.162
11/24/2013  17:50:00     -103.290      -40.188      -17.887        6.948        8.028        6.031       48.279       64.442       36.373        0.638        0.007      110.832        3.132        0.001      334.917        5.206      867.165
11/24/2013  17:51:00      -94.963      -42.331      -11.548       10.046       11.081        9.259      100.931      122.778       85.727        0.563        0.015      103.970        4.823        0.002      334.877        5.139      867.169
11/24/2013  17:52:00     -112.127      -46.807      -10.996       14.483       12.101        9.307      209.747      146.431       86.620        0.766        0.022      121.504        6.483        0.003      334.929        5.225      867.170
11/24/2013  17:53:00      -97.181      -50.945       -3.577       16.689       15.437       10.638      278.532      238.310      113.164        0.634        0.032      109.725        8.779        0.006      334.837        5.073      867.185
11/24/2013  17:54:00      -93.569      -31.396      -12.972       17.742       16.016       11.682      314.761      256.504      136.461        0.531        0.035       98.696        8.242        0.007      334.899        5.177      867.196
11/24/2013  17:55:00      -79.957      -33.404       -9.326       22.313       16.890       15.097      497.891      285.261      227.913        0.430        0.051       86.654       11.912        0.019      334.870        5.129      867.204
11/24/2013  17:56:00      -67.800      -29.678      -10.467       14.891       16.287       10.480      221.749      265.260      109.838        0.309        0.030       74.011        6.952        0.009      334.899        5.176      867.221
11/24/2013  17:57:00      -77.974      -16.496      -12.543       17.108       19.486       11.986      292.699      379.689      143.656        0.366        0.041       79.700        7.421        0.009      334.945        5.253      867.240
11/24/2013  17:58:00      -54.289      -27.691       -5.689       17.351       12.835       11.812      301.069      164.732      139.522        0.218        0.030       60.943        7.723        0.016      334.889        5.161      867.259
11/24/2013  17:59:00      -46.964      -19.027       -2.281       21.340       14.569       14.785      455.382      212.270      218.587        0.173        0.044       50.672       12.671        0.063      334.927        5.222      867.286
11/24/2013  18:00:00      -38.392      -17.203       -9.948       12.033        9.737        7.952      144.801       94.802       63.236        0.109        0.015       42.070        4.490        0.011      334.933        5.233      867.301
11/24/2013  18:01:00      -45.631      -19.741       -4.370       14.191       14.419       11.304      201.384      207.913      127.784        0.151        0.027       49.718        6.174        0.015      334.956        5.271      867.326
11/24/2013  18:02:00      -60.071      -25.998      -14.807       14.192       12.349        9.080      201.413      152.505       82.439        0.247        0.022       65.456        6.551        0.010      334.921        5.214      867.337
11/24/2013  18:03:00      -52.528      -20.244      -15.454       12.180       18.584       10.132      148.360      345.383      102.664        0.200        0.030       56.293        3.475        0.004      335.126        5.554      867.351
11/24/2013  18:04:00      -69.193      -21.443      -14.766       11.841       14.488       11.680      140.201      209.891      136.418        0.298        0.024       72.439        9.174        0.016      334.951        5.263      867.356
11/24/2013  18:05:00      -58.004      -32.779      -10.581       12.873       20.876       10.050      165.708      435.787      100.994        0.263        0.035       66.625        6.760        0.010      334.924        5.218      867.354
11/24/2013  18:06:00      -65.276      -38.253      -17.669       10.613       13.926        8.029      112.626      193.944       64.468        0.320        0.019       75.659        5.726        0.006      334.909        5.193      867.374
11/24/2013  18:07:00      -64.871      -23.275      -10.513       10.431       16.906        8.411      108.814      285.809       70.746        0.266        0.023       68.920        2.904        0.002      334.964        5.283      867.388
11/24/2013  18:08:00      -57.604      -13.489      -12.492        5.583        8.795        5.965       31.165       77.349       35.576        0.190        0.007       59.163        3.856        0.004      335.290        5.824      867.413
11/24/2013  18:09:00      -57.619       -5.762      -17.046       10.199       13.958        8.156      104.023      194.828       66.519        0.200        0.018       57.907        7.123        0.015      335.301        5.845      867.428
11/24/2013  18:10:00      -55.407       -9.087      -12.279       12.890       12.065       10.425      166.151      145.567      108.670        0.186        0.021       56.147        8.569        0.023      335.344        5.917      867.447
11/24/2013  18:11:00      -66.187      -29.352      -13.949        8.200        9.988        6.651       67.244       99.767       44.241        0.282        0.011       72.403        6.724        0.009      334.783        4.983      867.459
11/24/2013  18:12:00      -78.649      -37.421      -14.996        5.953        9.861        6.061       35.433       97.249       36.733        0.399        0.008       87.098        3.974        0.002      334.792        5.000      867.464
11/24/2013  18:13:00      -80.285      -46.376      -11.887       17.612       14.804       11.195      310.187      219.167      125.322        0.470        0.033       92.717        7.441        0.006      334.755        4.937      867.466
11/24/2013  18:14:00      -82.198      -43.508      -19.881       15.762       13.211       11.115      248.429      174.538      123.545        0.480        0.027       93.002        7.383        0.006      334.690        4.830      867.455
11/24/2013  18:15:00      -97.180      -31.682      -18.848       20.831       15.520       11.136      433.927      240.873      124.021        0.580        0.040      102.214        8.816        0.007      334.773        4.967      867.463
11/24/2013  18:16:00     -106.731      -37.844      -16.455       16.174       18.376       11.547      261.613      337.666      133.341        0.691        0.037      113.242        4.921        0.002      334.640        4.745      867.483
11/24/2013  18:17:00      -76.350      -49.375      -17.646       15.141       16.586       12.950      229.238      275.097      167.693        0.463        0.034       90.924        2.935        0.001      334.679        4.811      867.523
11/24/2013  18:18:00      -63.898      -48.940      -15.301       20.625       21.973        8.740      425.384      482.819       76.393        0.385        0.049       80.486        6.242        0.006      334.708        4.859      867.562
11/24/2013  18:19:00      -86.189      -35.078      -10.349        7.434       15.877        7.664       55.260      252.071       58.731        0.457        0.018       93.054        8.465        0.008      334.627        4.725      867.596
11/24/2013  18:20:00      -75.734      -41.635       -2.727       12.351       11.716        9.489      152.539      137.268       90.039        0.393        0.019       86.424        6.914        0.006      334.523        4.552      867.604
11/24/2013  18:21:00      -37.097      -27.777        5.616       17.750       10.811       12.170      315.073      116.887      148.115        0.138        0.029       46.344       10.498        0.051      334.421        4.383      867.618
11/24/2013  18:22:00      -45.780      -27.111       -3.061       15.936       13.624       10.067      253.954      185.608      101.353        0.169        0.027       53.205        7.831        0.022      334.508        4.528      867.621
11/24/2013  18:23:00      -53.176      -38.639       -5.746       13.177       10.507        7.733      173.634      110.406       59.806        0.235        0.017       65.731        4.580        0.005      334.587        4.658      867.622
11/24/2013  18:24:00      -71.575      -48.036       -7.176       19.752       18.248       14.176      390.153      332.983      200.955        0.420        0.046       86.200       10.274        0.014      334.582        4.649      867.617
11/24/2013  18:25:00      -72.948      -52.963      -12.576       24.435       18.485       13.524      597.048      341.711      182.896        0.470        0.056       90.147        9.135        0.010      334.489        4.495      867.620
11/24/2013  18:26:00      -91.140      -18.714      -12.238       15.742       18.631       11.227      247.821      347.098      126.055        0.476        0.036       93.042        7.429        0.006      334.361        4.283      867.640
11/24/2013  18:27:00      -83.242       -7.816      -11.797       10.412       14.929        9.541      108.402      222.873       91.031        0.378        0.021       83.608        4.827        0.003      334.417        4.376      867.658
11/24/2013  18:28:00     -102.537      -17.181       -7.920       14.965       20.572       12.183      223.965      423.199      148.414        0.583        0.040      103.967        6.928        0.004      334.424        4.388      867.666
11/24/2013  18:29:00     -105.373      -50.088      -10.664       14.165        7.375        8.152      200.661       54.391       66.449        0.702        0.016      116.672        7.505        0.004      334.421        4.383      867.664
11/24/2013  18:30:00     -109.197      -48.826       -5.912       20.028       12.502        9.610      401.112      156.294       92.353        0.750        0.032      119.616       11.601        0.009      334.396        4.342      867.671
11/24/2013  18:31:00     -116.174      -29.425       -4.837       25.428       15.585       15.454      646.584      242.898      238.821        0.776        0.056      119.843       16.302        0.019      334.273        4.138      867.671
11/24/2013  18:32:00     -105.415      -27.465       -8.567       29.087       17.104       13.032      846.070      292.539      169.838        0.662        0.065      108.934       13.097        0.014      334.254        4.106      867.690
11/24/2013  18:33:00      -90.370      -23.981       -4.390       29.133       21.418       14.567      848.736      458.738      212.208        0.514        0.076       93.498       14.155        0.023      334.238        4.080      867.701
11/24/2013  18:34:00      -75.278      -18.452        0.736       28.223       18.824       15.028      796.553      354.340      225.833        0.369        0.069       77.506       13.543        0.031      334.154        3.940      867.713
11/24/2013  18:35:00      -98.848      -20.080       -1.711       31.815       19.858       14.939     1012.173      394.321      223.164        0.590        0.081      100.867       12.100        0.014      334.204        4.023      867.703
11/24/2013  18:36:00      -74.634      -25.730       -0.057       27.798       21.581       14.707      772.738      465.749      216.284        0.384        0.073       78.945       13.459        0.029      334.128        3.896      867.698
11/24/2013  18:37:00     -112.851      -21.071       -8.964       26.764       14.831       12.751      716.289      219.965      162.596        0.718        0.055      114.801       12.268        0.011      334.078        3.813      867.702
11/24/2013  18:38:00     -117.841      -26.771      -13.705       14.523       12.566       11.922      210.903      157.915      142.127        0.765        0.026      120.844        7.897        0.004      334.117        3.879      867.711
11/24/2013  18:39:00     -107.643      -39.435      -11.281       24.049       22.809       15.134      578.361      520.270      229.029        0.730        0.066      114.640        6.262        0.003      334.071        3.801      867.721
11/24/2013  18:40:00     -107.595      -38.408       -4.744       20.057       18.776       13.962      402.290      352.556      194.933        0.701        0.047      114.245       10.016        0.008      333.995        3.677      867.728
11/24/2013  18:41:00     -104.361      -30.077      -15.742       16.469       14.589        9.693      271.217      212.851       93.951        0.631        0.029      108.609        4.915        0.002      334.025        3.727      867.743
11/24/2013  18:42:00     -103.349      -35.845       -3.678       21.923       15.800       11.464      480.637      249.655      131.433        0.642        0.043      109.389       11.167        0.010      334.014        3.707      867.739
11/24/2013  18:43:00     -103.668      -42.749      -17.496       14.583       13.668       14.456      212.673      186.826      208.982        0.674        0.030      112.136        9.025        0.006      333.929        3.567      867.749
11/24/2013  18:44:00     -111.477      -34.973       -8.409       23.299       19.867       14.875      542.850      394.714      221.273        0.744        0.058      116.834       12.121        0.011      333.967        3.629      867.755
11/24/2013  18:45:00     -110.363      -44.051       -7.840       18.701       17.039       11.014      349.718      290.321      121.298        0.747        0.038      118.830        7.975        0.005      334.048        3.763      867.764
11/24/2013  18:46:00     -106.975      -31.196      -14.688       16.149       12.566        7.558      260.790      157.906       57.123        0.655        0.024      111.431        2.623        0.001      334.056        3.775      867.783
11/24/2013  18:47:00     -110.583      -34.509      -16.557       12.111       11.474        9.075      146.666      131.662       82.354        0.703        0.018      115.842        6.443        0.003      334.084        3.822      867.782
11/24/2013  18:48:00     -111.057      -25.563      -17.877       17.583       15.765       13.107      309.156      248.542      171.785        0.702        0.036      113.961        9.305        0.007      334.156        3.943      867.782
11/24/2013  18:49:00     -112.289      -30.462      -16.259       12.278       13.147       10.497      150.738      172.844      110.187        0.712        0.022      116.348        6.714        0.003      334.140        3.916      867.770
11/24/2013  18:50:00     -103.530      -15.843      -17.580       14.487       13.430        8.245      209.872      180.368       67.981        0.587        0.023      104.735        2.637        0.001      334.086        3.826      867.776
11/24/2013  18:51:00     -108.841      -21.006      -12.427       12.400        9.009        6.801      153.764       81.154       46.259        0.636        0.014      110.849        4.854        0.002      334.116        3.877      867.786
11/24/2013  18:52:00     -119.564      -27.590      -18.132       10.349       10.329        8.311      107.094      106.690       69.070        0.783        0.014      122.706        4.017        0.001      334.069        3.799      867.785
11/24/2013  18:53:00     -125.784      -35.308      -14.042       24.457       12.529       13.935      598.126      156.983      194.184        0.911        0.047      130.645       12.451        0.009      334.010        3.700      867.773
11/24/2013  18:54:00     -145.521      -26.031      -17.297       16.160       14.914       10.550      261.152      222.436      111.312        1.137        0.030      147.831        8.427        0.003      333.915        3.543      867.774
11/24/2013  18:55:00     -146.701      -23.957      -15.150       22.733       14.793       15.027      516.805      218.837      225.798        1.164        0.048      148.644       13.834        0.009      333.858        3.448      867.783
11/24/2013  18:56:00     -136.888      -30.457      -19.004       22.453       15.426       13.452      504.156      237.956      180.959        1.047        0.046      140.236       12.392        0.008      333.842        3.420      867.780
11/24/2013  18:57:00     -118.021      -33.494      -13.920       24.648       18.463       14.942      607.505      340.896      223.259        0.821        0.059      122.682       13.050        0.011      333.729        3.234      867.799
11/24/2013  18:58:00     -111.292      -27.309      -14.672       24.434       18.149       16.495      597.029      329.385      272.084        0.727        0.060      114.594       13.486        0.014      333.668        3.133      867.809
11/24/2013  18:59:00     -110.346       -2.783      -12.748       32.611       28.646       20.800     1063.453      820.610      432.645        0.733        0.116      110.381       16.731        0.023      333.560        2.953      867.816
11/24/2013  19:00:00     -136.897       -4.987      -16.803       35.597       29.308       20.186     1267.161      858.951      407.484        1.079        0.127      136.987       14.769        0.012      333.520        2.888      867.828
11/24/2013  19:01:00     -117.364      -20.249       -7.386       45.122       28.326       21.371     2035.976      802.359      456.735        0.877        0.165      119.098       22.173        0.035      333.416        2.716      867.815
11/24/2013  19:02:00     -113.510       -4.047       -8.067       58.418       35.232       19.844     3412.678     1241.306      393.800        0.901        0.252      113.582       23.215        0.042      333.330        2.574      867.831
11/24/2013  19:03:00      -95.938        6.100      -12.778       38.444       33.696       22.390     1477.918     1135.444      501.290        0.626        0.156       96.131       11.911        0.015      333.369        2.639      867.850
11/24/2013  19:04:00      -85.020      -13.620       -6.507       40.626       28.976       18.192     1650.465      839.602      330.944        0.514        0.141       86.104       18.668        0.047      333.326        2.568      867.866
11/24/2013  19:05:00      -55.693      -16.972       -4.446       46.694       28.893       26.867     2180.312      834.805      721.838        0.357        0.187       58.221       25.332        0.189      333.330        2.573      867.889
11/24/2013  19:06:00      -53.591       -7.424       -8.224       55.326       23.647       20.412     3060.941      559.175      416.649        0.351        0.202       54.103       22.482        0.173      333.321        2.557      867.908
11/24/2013  19:07:00      -86.399       -5.207       -7.974       53.862       31.917       20.628     2901.073     1018.703      425.518        0.595        0.217       86.556       20.182        0.054      333.299        2.524      867.935
11/24/2013  19:08:00      -87.157      -34.923      -10.678       26.793       26.132       13.785      717.855      682.873      190.013        0.526        0.080       93.893        8.932        0.009      333.310        2.541      867.931
11/24/2013  19:09:00     -107.439      -33.757      -11.089       28.912       25.331       18.333      835.901      641.638      336.093        0.731        0.091      112.617       11.014        0.010      333.313        2.547      867.933
11/24/2013  19:10:00      -78.104      -31.641      -13.048       26.155       24.461       17.503      684.095      598.358      306.343        0.443        0.079       84.270       11.702        0.019      333.242        2.427      867.944
11/24/2013  19:11:00     -117.234      -32.386      -17.158       22.060       21.127       12.583      486.653      446.334      158.324        0.809        0.055      121.625        4.798        0.002      333.278        2.488      867.939
11/24/2013  19:12:00      -83.784      -34.124       -0.914       31.353       26.021       22.665      982.990      677.068      513.705        0.518        0.109       90.467       19.611        0.047      333.265        2.466      867.957
11/24/2013  19:13:00      -89.098      -19.699      -16.486       35.114       24.495       14.292     1233.005      600.026      204.255        0.532        0.102       91.250        6.346        0.005      333.320        2.558      867.958
11/24/2013  19:14:00      -74.270      -33.903      -16.575       18.784       19.367       19.091      352.836      375.086      364.469        0.402        0.055       81.642        4.200        0.003      333.328        2.570      867.969
11/24/2013  19:15:00      -92.077      -29.428      -21.592       18.468       23.563       13.835      341.078      555.220      191.395        0.545        0.054       96.665        9.483        0.010      333.325        2.566      867.967
11/24/2013  19:16:00     -117.135      -22.365      -15.159       20.838       31.857       16.334      434.234     1014.846      266.792        0.808        0.086      119.251       13.028        0.012      333.285        2.499      867.968
11/24/2013  19:17:00     -109.895      -23.042      -18.860       17.693       20.798       15.365      313.056      432.575      236.083        0.697        0.049      112.285        8.813        0.006      333.228        2.405      867.960
11/24/2013  19:18:00     -112.573      -10.046      -18.422       24.695       32.676       18.280      609.850     1067.707      334.165        0.756        0.101      113.020        9.400        0.007      333.191        2.343      867.956
11/24/2013  19:19:00      -85.613      -34.675       -7.794       33.455       32.656       16.366     1119.268     1066.383      267.835        0.552        0.123       92.369       11.185        0.015      333.239        2.424      867.958
11/24/2013  19:20:00      -71.386      -18.224      -14.805       37.280       28.016       22.335     1389.824      784.883      498.841        0.416        0.134       73.675       14.575        0.039      333.314        2.547      867.968
11/24/2013  19:21:00      -69.862       -7.862       -9.497       46.785       34.880       22.393     2188.827     1216.593      501.426        0.447        0.195       70.303       16.078        0.052      333.287        2.502      867.998
11/24/2013  19:22:00      -91.581       -8.112      -18.343       43.880       35.570       23.313     1925.466     1265.253      543.486        0.626        0.187       91.940       22.157        0.058      333.251        2.443      868.011
11/24/2013  19:23:00     -124.141      -14.841      -24.832       42.224       32.895       19.876     1782.857     1082.078      395.052        0.975        0.163      125.025       15.338        0.015      333.254        2.448      868.015
11/24/2013  19:24:00      -93.027      -15.530      -14.838       39.326       41.245       21.698     1546.554     1701.169      470.821        0.642        0.186       94.314       20.310        0.046      333.234        2.414      868.010
11/24/2013  19:25:00      -82.915      -18.595      -13.909       55.951       41.871       26.234     3130.558     1753.205      688.216        0.649        0.279       84.974       22.681        0.071      333.118        2.224      867.989
11/24/2013  19:26:00     -100.143        4.737      -15.371       49.321       39.743       27.615     2432.566     1579.534      762.568        0.753        0.239      100.255       22.309        0.050      333.193        2.347      867.991
11/24/2013  19:27:00      -93.633       15.155       -7.225       47.188       42.308       26.967     2226.677     1789.993      727.245        0.690        0.237       94.852       24.353        0.066      333.235        2.416      867.986
11/24/2013  19:28:00      -98.398       35.686      -12.047       48.823       44.082       31.031     2383.716     1943.260      962.914        0.819        0.264      104.669       19.400        0.034      333.307        2.536      868.003
11/24/2013  19:29:00     -110.038       44.616      -17.777       49.304       38.271       30.997     2430.854     1464.688      960.834        0.963        0.243      118.739       27.097        0.052      333.296        2.518      868.010
11/24/2013  19:30:00     -112.562       -4.299       -8.951       46.131       33.099       23.975     2128.027     1095.544      574.810        0.828        0.190      112.644       17.694        0.025      333.239        2.423      868.029
11/24/2013  19:31:00      -57.442        0.869        3.709       39.953       46.956       23.943     1596.237     2204.829      573.260        0.384        0.219       57.448       20.738        0.130      333.152        2.278      868.043
11/24/2013  19:32:00      -79.824       -8.299       -7.950       36.662       33.463       19.774     1344.105     1119.755      391.012        0.468        0.143       80.254       12.839        0.026      333.113        2.215      868.043
11/24/2013  19:33:00      -94.579      -21.763       -1.186       30.031       39.718       21.795      901.844     1577.498      475.007        0.619        0.148       97.050       14.351        0.022      333.174        2.316      868.043
11/24/2013  19:34:00     -123.468        0.904      -23.798       24.987       28.471       17.822      624.348      810.594      317.627        0.878        0.088      123.472       15.517        0.016      333.215        2.384      868.039
11/24/2013  19:35:00      -87.428      -24.539      -14.435       29.148       20.292       19.038      849.610      411.785      362.455        0.504        0.081       90.807       10.791        0.014      333.222        2.394      868.038
11/24/2013  19:36:00     -110.061      -31.058      -11.363       28.455       22.489       16.073      809.670      505.740      258.354        0.739        0.079      114.359        5.927        0.003      333.195        2.350      868.028
11/24/2013  19:37:00      -97.366      -33.473       -4.003       23.175       29.980       17.318      537.079      898.797      299.910        0.618        0.087      102.959        9.204        0.008      333.202        2.363      868.018
11/24/2013  19:38:00      -64.988      -28.568        1.265       29.526       20.655       18.014      871.783      426.611      324.506        0.333        0.081       70.990       17.703        0.062      333.267        2.470      868.015
11/24/2013  19:39:00      -78.718      -41.483       -7.070       20.479       22.531       13.524      419.402      507.638      182.896        0.454        0.055       88.979        7.395        0.007      333.297        2.518      868.016
11/24/2013  19:40:00      -74.812      -28.130       -5.121       24.611       14.282       10.948      605.721      203.976      119.860        0.367        0.046       79.926        7.161        0.008      333.326        2.566      868.034
11/24/2013  19:41:00      -93.804      -22.786       -7.958       21.982       24.513       15.950      483.189      600.873      254.416        0.536        0.067       96.532       13.946        0.021      333.352        2.611      868.044
11/24/2013  19:42:00      -49.798      -28.111        1.532       36.816       23.551       14.976     1355.408      554.631      224.275        0.270        0.107       57.185       14.449        0.064      333.354        2.612      868.067
11/24/2013  19:43:00      -67.912      -52.338        2.330       44.483       30.374       19.902     1978.764      922.570      396.074        0.533        0.165       85.740       20.723        0.058      333.452        2.776      868.064
11/24/2013  19:44:00     -103.547      -51.424        1.569       42.028       27.284       23.726     1766.360      744.395      562.916        0.822        0.154      115.613       15.091        0.017      333.420        2.722      868.061
11/24/2013  19:45:00     -117.729      -54.324       -1.225       49.228       31.103       25.422     2423.347      967.395      646.297        1.042        0.202      129.658       27.649        0.045      333.411        2.706      868.060
11/24/2013  19:46:00     -106.556      -55.849        2.197       38.815       22.692       20.615     1506.572      514.943      424.965        0.846        0.122      120.305       12.605        0.011      333.310        2.540      868.053
11/24/2013  19:47:00     -119.466      -59.909        1.228       46.521       37.181       24.298     2164.205     1382.463      590.415        1.100        0.207      133.646       25.614        0.037      333.322        2.561      868.051
11/24/2013  19:48:00     -123.907      -68.773       -5.194       40.426       34.020       19.327     1634.298     1157.371      373.521        1.164        0.158      141.713       13.272        0.009      333.330        2.575      868.058
11/24/2013  19:49:00     -125.339      -79.743       -6.348       43.391       26.819       25.472     1882.763      719.237      648.836        1.268        0.163      148.556       22.402        0.023      333.317        2.552      868.069
11/24/2013  19:50:00     -134.016      -89.202       -2.052       41.093       30.503       23.702     1688.632      930.447      561.785        1.455        0.159      160.988       22.282        0.019      333.314        2.548      868.093
11/24/2013  19:51:00     -105.601      -72.772       -3.741       55.959       37.576       26.671     3131.364     1411.951      711.335        1.086        0.263      128.247       28.375        0.049      333.268        2.471      868.103
11/24/2013  19:52:00     -137.288      -60.220      -13.407       34.314       26.965       15.000     1177.455      727.128      224.999        1.239        0.106      149.915       14.220        0.009      333.274        2.481      868.105
11/24/2013  19:53:00     -134.508      -53.427       -2.434       35.059       30.635       19.213     1229.145      938.494      369.133        1.174        0.127      144.730       19.893        0.019      333.267        2.470      868.116
11/24/2013  19:54:00     -119.677      -51.086        4.096       44.651       28.610       23.491     1993.674      818.553      551.827        1.016        0.168      130.124       20.158        0.024      333.218        2.389      868.114
11/24/2013  19:55:00     -149.383      -56.337       -4.827       30.967       23.151       19.765      958.970      535.969      390.638        1.370        0.094      159.653       16.269        0.010      333.253        2.447      868.127
11/24/2013  19:56:00     -135.586      -62.916       -1.082       34.337       26.333       18.407     1179.054      693.429      338.807        1.228        0.111      149.472       15.654        0.011      333.209        2.375      868.156
11/24/2013  19:57:00     -127.630      -57.785      -12.416       25.203       25.129       17.849      635.191      631.446      318.603        1.068        0.079      140.102       13.805        0.010      333.200        2.358      868.178
11/24/2013  19:58:00     -108.621      -69.943       -6.622       31.169       24.474       17.626      971.522      598.957      310.660        0.931        0.094      129.192        3.008        0.001      333.183        2.330      868.187
11/24/2013  19:59:00     -104.402      -72.006       -0.190       43.262       30.054       22.665     1871.604      903.269      513.722        0.969        0.164      126.825       20.258        0.026      333.177        2.321      868.176
11/24/2013  20:00:00     -131.714      -55.702       -9.940       32.144       22.100       19.922     1033.230      488.412      396.881        1.123        0.096      143.008       16.613        0.013      333.131        2.243      868.160
11/24/2013  20:01:00     -123.484      -35.542       -6.962       30.072       23.814       14.009      904.303      567.098      196.256        0.911        0.083      128.498       13.344        0.011      333.082        2.166      868.144
11/24/2013  20:02:00     -150.655      -45.242        1.342       41.965       25.718       23.164     1761.057      661.415      536.572        1.385        0.148      157.301       21.556        0.019      333.061        2.129      868.128
11/24/2013  20:03:00     -142.940      -48.418        0.252       28.859       25.822       14.580      832.867      666.784      212.578        1.224        0.086      150.918       13.525        0.008      333.025        2.071      868.132
11/24/2013  20:04:00     -142.148      -69.123       -9.573       28.574       17.687       17.132      816.473      312.835      293.493        1.325        0.071      158.063       14.070        0.008      332.995        2.023      868.148
11/24/2013  20:05:00      -97.755      -44.202      -17.690       27.010       18.669       19.490      729.521      348.529      379.860        0.664        0.073      107.284        4.409        0.002      332.962        1.966      868.172
11/24/2013  20:06:00     -107.984      -37.014       -9.769       25.087       16.897       11.697      629.340      285.510      136.821        0.709        0.053      114.152        6.148        0.003      332.908        1.878      868.183
11/24/2013  20:07:00      -89.898      -24.550       -2.546       34.359       28.073       18.032     1180.574      788.098      325.157        0.549        0.115       93.190       19.022        0.042      332.873        1.819      868.195
11/24/2013  20:08:00     -108.160        2.926       -5.793       49.206       28.669       26.264     2421.212      821.908      689.802        0.784        0.197      108.199       25.091        0.054      332.886        1.841      868.214
11/24/2013  20:09:00      -68.496        5.337       -2.968       67.191       38.610       29.938     4514.591     1490.737      896.285        0.581        0.345       68.703       34.509        0.252      332.834        1.754      868.230
11/24/2013  20:10:00      -68.399       18.636      -13.121       52.780       36.009       24.511     2785.732     1296.675      600.775        0.494        0.234       70.892       14.722        0.043      332.945        1.938      868.241
11/24/2013  20:11:00      -99.822       -5.930      -12.050       47.626       34.073       25.171     2268.201     1160.966      633.567        0.710        0.203       99.998       23.586        0.056      333.003        2.035      868.251
11/24/2013  20:12:00      -34.251      -17.622       -5.772       14.795       18.144       13.343      218.895      329.194      178.035        0.112        0.036       38.519        8.094        0.044      332.936        1.924      868.269
11/24/2013  20:13:00      -45.029      -11.815      -14.114       17.204        9.712       10.647      295.962       94.321      113.368        0.143        0.025       46.554        9.068        0.038      333.021        2.064      868.278
11/24/2013  20:14:00      -34.954      -27.630       -1.344       19.620       15.505       13.004      384.932      240.406      169.098        0.139        0.040       44.555        9.064        0.041      333.048        2.108      868.278
11/24/2013  20:15:00      -29.970      -24.882        2.907       18.661       11.925       11.676      348.221      142.200      136.340        0.108        0.031       38.952       10.483        0.072      333.129        2.242      868.276
11/24/2013  20:16:00      -33.911      -18.913       -6.461       18.563        9.943       12.157      344.572       98.869      147.792        0.107        0.030       38.829        4.284        0.012      333.172        2.314      868.292
11/24/2013  20:17:00      -23.051      -13.272        0.523       10.969        9.973        6.558      120.312       99.456       43.013        0.049        0.013       26.599        3.806        0.020      333.014        2.053      868.299
11/24/2013  20:18:00       -8.481      -10.717       -3.210        8.421        8.174        5.948       70.916       66.817       35.375        0.019        0.009       13.667        4.366        0.102      333.063        2.133      868.306
11/24/2013  20:19:00        2.972      -18.542       -3.908        5.447        6.432        5.059       29.672       41.371       25.591        0.023        0.005       18.779        3.109        0.027      333.060        2.131      868.322
11/24/2013  20:20:00      -29.524      -17.962       -4.515       18.126        7.698        7.249      328.565       59.255       52.545        0.083        0.022       34.558        3.819        0.012      333.086        2.173      868.338
11/24/2013  20:21:00      -45.431      -32.016       -5.054        6.206       10.983        6.838       38.520      120.619       46.763        0.166        0.010       55.579        5.399        0.009      332.991        2.013      868.336
11/24/2013  20:22:00      -55.706      -25.986       -7.266        9.999        8.873        7.188       99.975       78.731       51.668        0.203        0.012       61.469        3.854        0.004      332.905        1.872      868.341
11/24/2013  20:23:00      -56.023      -25.264      -11.491        9.513       13.211        9.310       90.498      174.533       86.679        0.213        0.018       61.456        3.529        0.003      332.899        1.863      868.350
11/24/2013  20:24:00      -48.888       -5.410       -6.443       14.448        9.722        7.288      208.755       94.516       53.114        0.141        0.018       49.187        4.142        0.007      332.939        1.929      868.365
11/24/2013  20:25:00      -28.962      -15.400       -3.605        6.770        8.637        7.602       45.836       74.597       57.785        0.063        0.009       32.801        2.909        0.008      332.969        1.978      868.371
11/24/2013  20:26:00      -30.272      -20.585       -9.717       16.523       15.585       11.411      273.019      242.902      130.208        0.104        0.032       36.607        7.073        0.037      332.946        1.941      868.376
11/24/2013  20:27:00      -36.130       27.827       -8.992       29.680       47.350       17.252      880.913     2241.987      297.638        0.279        0.171       45.604       17.349        0.145      333.214        2.381      868.378
11/24/2013  20:28:00      -39.081       10.917       -7.921       28.385       21.106       16.971      805.713      445.459      288.007        0.162        0.077       40.577       13.377        0.109      333.080        2.161      868.374
11/24/2013  20:29:00      -43.439      -25.134       -5.881       25.401       30.740       11.804      645.198      944.962      139.340        0.214        0.086       50.186       13.748        0.075      332.919        1.895      868.364
11/24/2013  20:30:00      -43.979       -8.944       -4.245       30.103       29.186       19.212      906.165      851.811      369.111        0.208        0.106       44.879       18.130        0.163      332.924        1.904      868.365
11/24/2013  20:31:00      -58.421       -6.740      -11.912       19.635       13.237        9.534      385.522      175.226       90.901        0.213        0.033       58.809        6.028        0.011      332.603        1.374      868.378
11/24/2013  20:32:00      -68.887       -8.775      -12.095       19.497       15.112       11.659      380.130      228.373      135.941        0.286        0.037       69.443       11.225        0.026      332.558        1.298      868.386
11/24/2013  20:33:00      -90.489      -19.854      -19.405       18.632       11.598       10.541      347.169      134.505      111.113        0.478        0.030       92.641        6.823        0.005      332.589        1.348      868.388
11/24/2013  20:34:00      -77.808      -17.688      -16.222       22.409       20.888       18.830      502.183      436.302      354.560        0.396        0.065       79.793       11.184        0.020      332.606        1.377      868.390
11/24/2013  20:35:00      -76.328      -28.227      -13.754       19.200       18.391       11.145      368.623      338.240      124.201        0.382        0.042       81.381        6.518        0.006      332.611        1.386      868.403
11/24/2013  20:36:00      -84.176      -13.561      -17.533       13.139       13.693        9.532      172.622      187.494       90.856        0.401        0.023       85.261        8.208        0.009      332.585        1.343      868.409
11/24/2013  20:37:00      -98.511      -14.899      -18.859       16.548       14.727       11.792      273.841      216.896      139.057        0.546        0.031       99.631        5.459        0.003      332.555        1.294      868.397
11/24/2013  20:38:00      -88.514      -26.239      -14.227       19.564       15.600       16.043      382.749      243.347      257.366        0.480        0.044       92.321       13.559        0.022      332.527        1.248      868.386
11/24/2013  20:39:00      -70.242      -35.506      -13.560       15.184       15.186        9.372      230.563      230.602       87.840        0.346        0.027       78.706        6.461        0.007      332.543        1.273      868.380
11/24/2013  20:40:00      -83.524      -43.363      -18.071       16.530       14.901       16.194      273.236      222.048      262.231        0.497        0.038       94.109       13.906        0.022      332.549        1.283      868.385
11/24/2013  20:41:00      -76.486      -40.393       -9.191       13.891       18.843       13.607      192.964      355.042      185.153        0.415        0.037       86.497        8.863        0.010      332.595        1.359      868.372
11/24/2013  20:42:00      -97.064      -43.787      -17.752       18.394       19.859       13.173      338.346      394.389      173.531        0.628        0.045      106.484        5.986        0.003      332.557        1.298      868.354
11/24/2013  20:43:00      -96.666      -34.113      -16.220       18.179       19.689       16.410      330.470      387.641      269.284        0.588        0.049      102.509        9.086        0.008      332.549        1.283      868.350
11/24/2013  20:44:00      -90.523      -40.317      -20.442       17.040       14.338       11.242      290.350      205.581      126.388        0.543        0.031       99.095        8.733        0.008      332.540        1.267      868.349
11/24/2013  20:45:00      -99.870      -26.383       -9.481       13.129       21.186       13.320      172.361      448.832      177.434        0.578        0.040      103.296        3.128        0.001      332.530        1.252      868.353
11/24/2013  20:46:00      -89.582      -29.942      -13.137       15.706       20.175       16.931      246.690      407.016      286.675        0.502        0.047       94.454       10.505        0.012      332.496        1.197      868.358
11/24/2013  20:47:00      -74.036      -45.705      -19.215       22.377       20.260       15.842      500.724      410.469      250.958        0.455        0.058       87.007       11.362        0.017      332.587        1.347      868.372
11/24/2013  20:48:00      -88.033      -29.613       -3.646       29.014       28.839       17.139      841.835      831.714      293.737        0.530        0.098       92.880        9.998        0.012      332.496        1.198      868.367
11/24/2013  20:49:00     -116.972      -21.708      -13.362       20.952       21.702       22.009      438.978      470.985      484.403        0.786        0.070      118.969        5.338        0.002      332.411        1.056      868.358
11/24/2013  20:50:00     -135.620      -34.155      -14.517       23.353       24.620       17.548      545.375      606.130      307.947        1.061        0.073      139.855       11.980        0.007      332.357        0.967      868.359
11/24/2013  20:51:00     -111.032      -21.194       -6.092       41.844       33.147       23.554     1750.950     1098.733      554.813        0.811        0.170      113.036       24.278        0.046      332.267        0.818      868.370
11/24/2013  20:52:00     -140.879      -23.188      -10.929       36.476       22.341       20.139     1330.533      499.123      405.583        1.137        0.112      142.775       16.030        0.013      332.295        0.863      868.374
11/24/2013  20:53:00     -100.199      -46.428       -5.578       25.320       26.975       17.964      641.090      727.653      322.698        0.696        0.085      110.433        9.002        0.007      332.351        0.958      868.381
11/24/2013  20:54:00     -115.789      -59.037      -22.959       19.786       23.320       17.425      391.477      543.804      303.614        0.933        0.062      129.971        9.507        0.005      332.392        1.024      868.375
11/24/2013  20:55:00     -101.478      -50.048      -14.494       26.768       26.469       12.747      716.505      700.630      162.488        0.730        0.079      113.148        2.843        0.001      332.346        0.948      868.380
11/24/2013  20:56:00     -109.400      -65.997      -14.066       20.218       25.617       17.306      408.772      656.241      299.489        0.894        0.068      127.765       15.930        0.016      332.357        0.967      868.373
11/24/2013  20:57:00      -79.464      -51.713       -9.725       48.672       28.067       18.975     2368.965      787.757      360.042        0.630        0.176       94.809       16.904        0.032      332.348        0.952      868.374
11/24/2013  20:58:00      -12.401      -27.028        4.972       33.472       22.962       18.355     1120.377      527.246      336.921        0.145        0.099       29.737       17.856        0.361      332.302        0.875      868.393
11/24/2013  20:59:00      -52.918      -30.135       -9.931       30.950       20.711       17.558      957.906      428.948      308.293        0.275        0.085       60.896       15.492        0.065      332.385        1.012      868.404
11/24/2013  21:00:00      -99.989      -40.878      -13.036       23.796       15.345        9.651      566.243      235.484       93.134        0.637        0.045      108.023        5.701        0.003      332.384        1.011      868.396
11/24/2013  21:01:00     -115.958      -25.263      -14.502       13.213       12.545       12.249      174.579      157.368      150.033        0.739        0.024      118.678        7.635        0.004      332.491        1.187      868.385
11/24/2013  21:02:00     -130.755      -54.175      -16.097       26.358       21.448       14.275      694.761      460.015      203.780        1.082        0.068      141.534       12.058        0.007      332.508        1.214      868.377
11/24/2013  21:03:00     -108.679      -45.805       -8.000       24.679       15.695       11.558      609.068      246.326      133.592        0.748        0.049      117.937        8.542        0.005      332.502        1.205      868.354
11/24/2013  21:04:00     -104.771      -32.584      -12.427       11.845       12.792       10.638      140.307      163.632      113.177        0.631        0.021      109.721        4.668        0.002      332.460        1.135      868.348
11/24/2013  21:05:00      -87.930      -46.379      -11.003       18.338       15.371       11.041      336.278      236.256      121.904        0.535        0.035       99.412        5.768        0.003      332.395        1.029      868.354
11/24/2013  21:06:00      -72.085      -45.369       -4.859       26.229       17.771       17.745      687.966      315.810      314.883        0.430        0.066       85.174        9.462        0.012      332.378        1.002      868.378
11/24/2013  21:07:00      -78.008      -46.543        2.355       41.264       27.753       17.150     1702.740      770.243      294.133        0.551        0.138       90.837       17.976        0.039      332.299        0.872      868.392
11/24/2013  21:08:00      -61.661      -31.680       -1.153       36.271       19.125       17.392     1315.611      365.776      302.470        0.340        0.099       69.323       17.952        0.067      332.278        0.836      868.401
11/24/2013  21:09:00     -125.409      -60.600      -13.076       15.489       15.204       12.587      239.909      231.175      158.430        1.010        0.031      139.283        9.288        0.004      332.351        0.957      868.408
11/24/2013  21:10:00     -110.887      -58.390      -17.085       14.610       14.484       10.669      213.464      209.793      113.818        0.827        0.027      125.321        2.216        0.000      332.312        0.892      868.422
11/24/2013  21:11:00     -103.642      -44.253      -12.852        8.013       14.526        9.210       64.204      211.013       84.825        0.661        0.018      112.694        6.693        0.004      332.299        0.871      868.437
11/24/2013  21:12:00      -93.524      -42.022      -12.903       10.928       13.127        9.174      119.419      172.308       84.157        0.553        0.019      102.531        3.454        0.001      332.345        0.945      868.451
11/24/2013  21:13:00     -100.960      -45.607       -3.990       14.862       14.302        8.135      220.876      204.536       66.177        0.639        0.025      110.783        4.175        0.001      332.362        0.974      868.459
11/24/2013  21:14:00      -94.607      -44.723       -3.638       19.300       14.403       13.617      372.503      207.454      185.431        0.586        0.038      104.646       10.156        0.009      332.295        0.865      868.453
11/24/2013  21:15:00     -110.555      -46.838       -2.816       29.696       15.117       14.952      881.828      228.525      223.565        0.788        0.067      120.067       11.419        0.009      332.325        0.913      868.444
11/24/2013  21:16:00     -124.563      -64.522      -10.322       22.820       17.585       12.033      520.744      309.242      144.803        1.038        0.049      140.282        9.911        0.005      332.389        1.021      868.445
11/24/2013  21:17:00     -128.820      -54.200      -15.084       17.619       19.592       11.254      310.437      383.856      126.661        1.029        0.041      139.758        4.937        0.001      332.433        1.092      868.457
11/24/2013  21:18:00     -119.416      -37.906      -13.857       10.721       11.244       10.047      114.950      126.426      100.944        0.812        0.017      125.288        7.372        0.003      332.379        1.003      868.462
11/24/2013  21:19:00     -108.416      -36.272       -8.841       13.808       19.650       12.147      190.672      386.105      147.540        0.694        0.036      114.323        5.321        0.002      332.419        1.068      868.477
11/24/2013  21:20:00      -94.947      -36.199       -9.565       12.131       14.319        8.786      147.173      205.044       77.197        0.542        0.021      101.614        3.080        0.001      332.389        1.019      868.503
11/24/2013  21:21:00     -115.544      -28.055      -11.150       18.874       13.704       10.427      356.233      187.805      108.717        0.746        0.033      118.901        6.577        0.003      332.371        0.990      868.508
11/24/2013  21:22:00     -136.130      -24.671      -18.851       15.592       12.933       12.316      243.098      167.256      151.690        1.003        0.028      138.347       10.572        0.006      332.293        0.860      868.504
11/24/2013  21:23:00     -143.566      -20.188      -23.603        8.141       11.177        6.917       66.268      124.921       47.844        1.091        0.012      144.979        6.219        0.002      332.288        0.853      868.504
11/24/2013  21:24:00     -141.775      -15.752      -20.443       21.940       14.260       13.576      481.375      203.354      184.298        1.082        0.043      142.647        9.660        0.005      332.189        0.690      868.521
11/24/2013  21:25:00     -133.885      -14.411      -18.408       24.738       13.616       14.848      611.955      185.391      220.470        0.974        0.051      134.658       14.920        0.012      332.204        0.716      868.535
11/24/2013  21:26:00     -138.833      -17.378      -20.368       24.139       13.870       17.070      582.714      192.388      291.395        1.053        0.053      139.916       14.414        0.011      332.193        0.696      868.549
11/24/2013  21:27:00     -102.574      -19.103      -10.314       30.635       19.180       18.637      938.485      367.886      347.342        0.632        0.083      104.337       18.084        0.030      332.135        0.601      868.561
11/24/2013  21:28:00      -95.751      -27.055      -19.666       17.556       14.494       13.650      308.216      210.081      186.328        0.550        0.035       99.500       11.202        0.013      332.088        0.522      868.568
11/24/2013  21:29:00     -123.579      -27.384      -13.394       25.783       17.659       10.786      664.772      311.825      116.348        0.865        0.055      126.577       11.160        0.008      332.117        0.571      868.576
11/24/2013  21:30:00     -133.725      -35.535      -19.418       15.360       13.373        9.847      235.931      178.830       96.971        1.002        0.026      138.365        7.484        0.003      332.095        0.536      868.581
11/24/2013  21:31:00     -105.650      -65.505      -14.923       24.590       25.520       16.905      604.690      651.269      285.772        0.861        0.077      124.309       12.684        0.010      332.105        0.551      868.575
11/24/2013  21:32:00      -68.777      -63.715       -0.469       47.675       28.824       31.862     2272.861      830.798     1015.176        0.645        0.206       93.754       25.371        0.073      332.052        0.464      868.565
11/24/2013  21:33:00     -110.084      -74.467      -10.730       38.812       33.467       24.034     1506.363     1120.050      577.635        1.049        0.160      132.905       17.882        0.018      331.983        0.349      868.559
11/24/2013  21:34:00     -144.113      -52.923      -15.391       43.856       34.121       23.538     1923.315     1164.214      554.020        1.372        0.182      153.523       13.942        0.008      331.991        0.362      868.562
11/24/2013  21:35:00     -128.036      -25.619       -4.899       59.202       46.957       24.936     3504.888     2204.984      621.789        1.170        0.317      130.574       24.979        0.037      331.890        0.198      868.577
11/24/2013  21:36:00      -70.941      -29.775       -3.996       30.458       36.314       18.701      927.690     1318.725      349.712        0.427        0.130       76.936       15.738        0.042      331.921        0.249      868.598
11/24/2013  21:37:00      -53.187       -5.553       -2.667       43.936       42.663       22.931     1930.337     1820.150      525.821        0.357        0.214       53.476       21.082        0.155      331.919        0.245      868.626
11/24/2013  21:38:00      -76.064      -33.199       -2.092       52.925       36.433       24.588     2801.084     1327.350      604.547        0.581        0.237       82.993       16.494        0.039      331.887        0.191      868.621
11/24/2013  21:39:00     -168.505      -11.504      -11.805       51.379       37.685       23.784     2639.847     1420.184      565.699        1.664        0.231      168.897       17.699        0.011      331.908        0.227      868.595
11/24/2013  21:40:00     -171.002      -25.477      -17.778       42.627       42.851       23.179     1817.071     1836.240      537.252        1.720        0.210      172.889       21.788        0.016      331.906        0.223      868.560
11/24/2013  21:41:00     -148.828      -44.175       -7.452       56.110       38.065       29.656     3148.308     1448.943      879.491        1.482        0.274      155.246       25.999        0.028      331.845        0.122      868.546
11/24/2013  21:42:00     -173.152      -21.864      -18.468       31.476       37.068       22.220      990.763     1374.038      493.709        1.683        0.143      174.527       14.796        0.007      331.869        0.163      868.541
11/24/2013  21:43:00     -120.895      -54.006      -14.804       55.591       38.170       27.169     3090.343     1456.945      738.153        1.152        0.264      132.410       27.330        0.043      331.878        0.177      868.551
11/24/2013  21:44:00     -104.779      -25.427       -5.971       50.124       36.814       19.977     2512.435     1355.259      399.096        0.796        0.213      107.820       23.577        0.048      331.918        0.242      868.588
11/24/2013  21:45:00      -91.584      -66.078       -1.262       26.110       40.309       20.525      681.736     1624.824      421.270        0.774        0.136      112.933       14.729        0.017      331.885        0.189      868.622
11/24/2013  21:46:00      -99.777      -43.374       -6.464       44.802       30.630       17.304     2007.255      938.189      299.424        0.756        0.162      108.797       17.505        0.026      331.888        0.193      868.631
11/24/2013  21:47:00     -114.182      -25.642       -8.595       37.047       38.396       18.633     1372.453     1474.236      347.199        0.848        0.160      117.026       19.319        0.027      331.918        0.243      868.628
11/24/2013  21:48:00     -137.898      -33.326      -13.037       39.063       38.936       19.273     1525.909     1515.999      371.455        1.185        0.171      141.868       17.011        0.014      331.885        0.188      868.604
11/24/2013  21:49:00     -123.010      -23.667       -9.572       61.835       44.500       28.385     3823.614     1980.210      805.688        1.120        0.330      125.266       30.385        0.059      331.864        0.153      868.574
11/24/2013  21:50:00      -45.281        2.656        5.181       58.607       37.507       27.586     3434.741     1406.749      760.969        0.384        0.280       45.359       29.798        0.432      331.834        0.104      868.562
11/24/2013  21:51:00     -129.905       14.596       -2.989       66.456       49.189       28.446     4416.399     2419.554      809.173        1.237        0.382      130.722       30.432        0.054      331.965        0.320      868.574
11/24/2013  21:52:00     -119.069      -15.143       -6.642       49.262       39.951       26.736     2426.706     1596.104      714.819        0.959        0.237      120.028       26.159        0.047      331.900        0.213      868.593
11/24/2013  21:53:00      -93.108      -11.333       -5.246       52.018       46.239       20.567     2705.922     2138.066      423.014        0.705        0.263       93.796       12.375        0.017      331.881        0.181      868.600
11/24/2013  21:54:00      -96.520      -34.824       -6.960       66.293       29.171       18.871     4394.801      850.951      356.126        0.809        0.280      102.610       20.282        0.039      331.955        0.305      868.609
11/24/2013  21:55:00      -58.396      -27.917       -8.283       33.632       26.402       13.900     1131.083      697.045      193.218        0.314        0.101       64.726       10.638        0.027      331.914        0.237      868.625
11/24/2013  21:56:00      -75.089      -41.130      -20.235       17.689       20.598       15.569      312.911      424.265      242.386        0.436        0.049       85.615        7.538        0.008      331.912        0.233      868.637
11/24/2013  21:57:00      -61.444      -35.845       -1.334       22.213       33.658       16.900      493.410     1132.841      285.619        0.349        0.096       71.136        6.728        0.009      331.907        0.224      868.639
11/24/2013  21:58:00      -91.951      -30.691      -11.823       24.955       22.862       14.640      622.747      522.682      214.333        0.545        0.068       96.938        4.134        0.002      332.009        0.393      868.653
11/24/2013  21:59:00      -93.811      -44.363       -3.919       20.868       25.960       18.302      435.477      673.906      334.946        0.611        0.072      103.771       15.056        0.021      331.967        0.324      868.665
11/24/2013  22:00:00      -72.759      -53.949      -16.231       37.562       33.281       21.606     1410.886     1107.652      466.799        0.573        0.149       90.578       21.431        0.056      332.005        0.387      868.658
11/24/2013  22:01:00     -111.257      -55.549      -16.977       26.673       21.321       14.694      711.463      454.576      215.911        0.857        0.069      124.354       14.350        0.013      331.989        0.360      868.654
11/24/2013  22:02:00     -116.509      -77.590      -19.696       24.350       20.261       15.278      592.918      410.504      233.403        1.061        0.062      139.981        8.803        0.004      331.931        0.264      868.660
11/24/2013  22:03:00      -93.364      -55.744       -3.417       42.090       23.782       22.850     1771.532      565.584      522.101        0.735        0.143      108.739       19.387        0.032      331.907        0.224      868.685
11/24/2013  22:04:00     -150.984      -45.885      -13.515       20.477       19.487       15.223      419.307      379.730      231.752        1.306        0.052      157.803       11.193        0.005      331.891        0.200      868.694
11/24/2013  22:05:00     -132.987      -38.882       -3.569       25.181       16.236       16.713      634.094      263.603      279.320        1.019        0.059      138.554       13.980        0.010      331.901        0.213      868.702
11/24/2013  22:06:00     -113.436      -26.279       -9.509       49.295       20.253       20.264     2430.007      410.187      410.614        0.845        0.163      116.440       22.021        0.036      331.951        0.297      868.719
11/24/2013  22:07:00     -110.421      -40.512      -14.690       17.950       13.794       13.530      322.209      190.270      183.059        0.737        0.035      117.618        9.114        0.006      331.983        0.349      868.728
11/24/2013  22:08:00      -95.692      -32.465      -16.001       20.598       16.057       15.890      424.271      257.836      252.506        0.570        0.047      101.049       10.795        0.011      331.962        0.315      868.731
11/24/2013  22:09:00      -78.449      -62.398       -8.279       22.814       24.148       17.875      520.466      583.132      319.520        0.577        0.071      100.238       13.710        0.019      331.978        0.340      868.737
11/24/2013  22:10:00      -51.374      -46.586       -4.190       32.210       28.602       14.033     1037.494      818.101      196.911        0.344        0.103       69.351       18.015        0.067      331.900        0.213      868.758
11/24/2013  22:11:00      -95.285      -51.520      -10.866       33.495       33.428       21.325     1121.905     1117.438      454.762        0.727        0.135      108.322       19.856        0.034      331.936        0.271      868.762
11/24/2013  22:12:00     -112.934      -48.085      -13.403       17.709       14.198       11.985      313.608      201.580      143.643        0.795        0.033      122.745        8.977        0.005      331.922        0.248      868.753
11/24/2013  22:13:00      -85.689      -46.725      -10.205       18.852       19.735       13.401      355.413      389.469      179.584        0.528        0.046       97.600       10.807        0.012      331.869        0.162      868.745
11/24/2013  22:14:00     -108.754      -47.420      -17.646       17.416       14.052        8.944      303.312      197.457       79.992        0.748        0.029      118.643        6.058        0.003      331.903        0.219      868.723
11/24/2013  22:15:00     -118.046      -47.846      -13.993       13.001       15.851       10.814      169.021      251.260      116.935        0.848        0.027      127.373        5.124        0.002      331.908        0.225      868.702
11/24/2013  22:16:00     -124.639      -47.074       -8.322       20.117       17.937       11.029      404.694      321.747      121.647        0.933        0.042      133.233       10.236        0.006      331.909        0.228      868.699
11/24/2013  22:17:00     -127.178      -46.878      -15.467       11.371       12.423        9.064      129.289      154.326       82.148        0.949        0.018      135.542        6.853        0.003      331.864        0.154      868.708
11/24/2013  22:18:00     -114.997      -55.385      -14.395       12.798       14.019        8.882      163.787      196.531       78.895        0.847        0.022      127.639        5.915        0.002      331.892        0.200      868.729
11/24/2013  22:19:00     -109.138      -57.892      -15.312       13.706       16.008        8.819      187.851      256.255       77.781        0.801        0.026      123.542        8.070        0.004      331.873        0.168      868.760
11/24/2013  22:20:00      -85.813      -58.351      -17.704       14.898       19.357       12.870      221.957      374.701      165.646        0.592        0.038      103.772        3.751        0.001      331.875        0.173      868.772
11/24/2013  22:21:00     -101.731      -35.317      -15.293       17.936       17.233       13.861      321.706      296.974      192.118        0.632        0.041      107.687       11.271        0.011      331.834        0.105      868.769
11/24/2013  22:22:00      -89.434      -47.675       -8.846       15.603       14.508       11.589      243.460      210.488      134.314        0.547        0.029      101.347        3.383        0.001      331.823        0.085      868.757
11/24/2013  22:23:00      -64.264      -44.642       -7.295       21.389       20.045       15.764      457.506      401.812      248.496        0.364        0.055       78.248       12.848        0.027      331.839        0.113      868.761
11/24/2013  22:24:00      -69.583      -32.985      -10.362       20.582       20.664       16.866      423.614      427.006      284.452        0.359        0.057       77.005       13.993        0.033      331.812        0.067      868.771
11/24/2013  22:25:00      -87.606      -32.196      -14.735       20.040       14.155       12.005      401.597      200.372      144.122        0.484        0.037       93.335        6.236        0.004      331.865        0.156      868.788
11/24/2013  22:26:00      -92.226      -32.551      -21.808       25.913       23.340       17.898      671.468      544.761      320.343        0.579        0.077       97.802        9.561        0.010      331.852        0.134      868.807
11/24/2013  22:27:00      -90.390      -36.785      -15.983       24.330       25.563       15.849      591.968      653.472      251.194        0.564        0.075       97.589        9.762        0.010      331.846        0.124      868.823
11/24/2013  22:28:00      -73.688      -52.300      -19.566       32.957       24.241       16.245     1086.164      587.629      263.900        0.524        0.097       90.361        9.675        0.011      331.910        0.230      868.841
11/24/2013  22:29:00      -57.331      -60.186       -4.772       29.943       23.381       18.014      896.596      546.668      324.515        0.435        0.088       83.122       11.679        0.020      331.876        0.174      868.845
11/24/2013  22:30:00      -99.425      -49.036      -17.399       21.359       15.052       11.380      456.201      226.573      129.509        0.670        0.041      110.860        6.668        0.004      331.854        0.137      868.846
11/24/2013  22:31:00     -118.314      -50.873      -12.079       21.101       19.313       14.952      445.251      372.995      223.568        0.889        0.052      128.787       12.294        0.009      331.819        0.081      868.836
11/24/2013  22:32:00      -97.358      -35.460       -7.347       24.522       19.201       19.120      601.325      368.691      365.591        0.606        0.067      103.615       11.590        0.013      331.901        0.215      868.811
11/24/2013  22:33:00     -108.036      -45.374      -16.590       19.894       19.794       12.866      395.756      391.796      165.537        0.748        0.048      117.177        8.104        0.005      331.867        0.159      868.788
11/24/2013  22:34:00      -95.709      -54.267       -9.580       32.158       21.825       16.669     1034.143      476.351      277.843        0.699        0.089      110.024       12.540        0.013      331.852        0.135      868.788
11/24/2013  22:35:00     -113.929      -59.838      -11.635       12.608       16.614       12.885      158.963      276.039      166.034        0.865        0.030      128.687        9.100        0.005      331.832        0.101      868.804
11/24/2013  22:36:00     -106.393      -49.298       -9.396       12.988       17.829       12.569      168.678      317.884      157.981        0.724        0.032      117.259        3.786        0.001      331.826        0.091      868.818
11/24/2013  22:37:00     -106.739      -59.486       -5.296       14.537       17.125       13.428      211.328      293.267      180.318        0.782        0.034      122.195        6.835        0.003      331.793        0.040      868.834
11/24/2013  22:38:00     -109.381      -67.389       -6.255       18.313       18.048       14.792      335.354      325.739      218.796        0.871        0.044      128.474        6.825        0.003      331.762       -0.013      868.834
11/24/2013  22:39:00      -79.276      -66.994       -5.897       30.499       26.501       21.919      930.169      702.294      480.426        0.646        0.106      103.792       13.928        0.018      331.749       -0.034      868.838
11/24/2013  22:40:00      -97.650      -65.382       -5.176       26.908       22.095       16.211      724.015      488.177      262.790        0.766        0.074      117.517        9.223        0.006      331.681       -0.146      868.853
11/24/2013  22:41:00     -104.561      -63.571      -11.633       29.059       18.939       16.846      844.445      358.692      283.778        0.830        0.074      122.370        9.769        0.006      331.691       -0.131      868.859
11/24/2013  22:42:00     -106.966      -63.455       -3.569       37.578       31.224       20.591     1412.114      974.962      424.008        0.915        0.141      124.372       13.557        0.012      331.629       -0.232      868.860
11/24/2013  22:43:00     -108.175      -60.563       -4.238       39.188       25.326       23.270     1535.701      641.422      541.478        0.905        0.136      123.975       22.479        0.033      331.588       -0.300      868.866
11/24/2013  22:44:00     -114.132      -52.742       -3.680       27.253       20.915       17.842      742.732      437.426      318.321        0.866        0.075      125.729       11.698        0.009      331.599       -0.282      868.874
11/24/2013  22:45:00     -104.081      -39.565        3.097       27.218       21.658       19.669      740.798      469.070      386.874        0.700        0.080      111.348       15.974        0.021      331.618       -0.250      868.889
11/24/2013  22:46:00     -100.982      -53.172       -8.098       30.526       22.673       17.462      931.827      514.077      304.918        0.742        0.088      114.126       16.406        0.021      331.665       -0.173      868.891
11/24/2013  22:47:00     -130.442      -68.547       -8.804       25.151       19.709       19.134      632.563      388.447      366.099        1.159        0.069      147.356       12.114        0.007      331.712       -0.095      868.895
11/24/2013  22:48:00     -116.857      -64.996       -8.220       21.577       21.738       14.519      465.579      472.521      210.793        0.955        0.057      133.716       10.759        0.006      331.688       -0.132      868.890
11/24/2013  22:49:00     -117.643      -45.428        0.653       29.133       30.516       18.355      848.736      931.225      336.920        0.901        0.106      126.109       16.668        0.017      331.659       -0.184      868.881
11/24/2013  22:50:00      -98.207      -46.396       -5.304       20.542       20.059       13.418      421.984      402.345      180.055        0.641        0.050      108.615       10.772        0.010      331.664       -0.175      868.892
11/24/2013  22:51:00     -104.767      -63.274       -5.494       28.208       13.587       13.108      795.676      184.600      171.813        0.808        0.058      122.391       13.469        0.012      331.783        0.021      868.910
11/24/2013  22:52:00     -100.526      -54.527       -4.784       38.327       23.908       17.554     1468.955      571.578      308.130        0.772        0.117      114.362       12.890        0.013      331.762       -0.014      868.923
11/24/2013  22:53:00      -61.705      -46.911        3.804       35.328       21.408       16.972     1248.054      458.302      288.035        0.401        0.100       77.512       17.094        0.049      331.703       -0.112      868.947
11/24/2013  22:54:00     -102.014      -61.773       -4.012       31.624       19.223       13.982     1000.065      369.531      195.488        0.790        0.078      119.259        4.360        0.001      331.761       -0.016      868.953
11/24/2013  22:55:00      -94.748      -57.715      -10.221       26.218       20.943       14.775      687.397      438.630      218.290        0.688        0.067      110.942        9.936        0.008      331.773        0.004      868.964
11/24/2013  22:56:00      -88.314      -34.397       -6.026       33.630       16.853       16.333     1130.986      284.018      266.778        0.535        0.084       94.776       15.948        0.028      331.685       -0.141      868.954
11/24/2013  22:57:00     -118.846      -55.404      -14.499       15.773       22.660       12.924      248.783      513.484      167.037        0.917        0.046      131.125        8.188        0.004      331.641       -0.213      868.931
11/24/2013  22:58:00     -141.454      -49.796      -10.372       19.378       17.625       13.410      375.513      310.636      179.819        1.173        0.043      149.963        7.516        0.003      331.639       -0.214      868.920
11/24/2013  22:59:00     -117.081      -42.738       -5.124       20.226       18.690       14.498      409.101      349.313      210.205        0.826        0.048      124.637       11.887        0.009      331.619       -0.247      868.936
11/24/2013  23:00:00     -118.612      -42.082      -12.727       12.555       16.061       10.956      157.639      257.961      120.044        0.827        0.027      125.856        5.969        0.002      331.594       -0.291      868.965
11/24/2013  23:01:00     -103.401      -43.087      -11.860       12.647       12.915       10.141      159.942      166.791      102.835        0.656        0.021      112.019        6.324        0.003      331.581       -0.313      868.988
11/24/2013  23:02:00      -99.824      -40.728      -18.835       17.335       13.540        8.466      300.497      183.328       71.669        0.627        0.028      107.813        4.043        0.001      331.576       -0.320      869.002
11/24/2013  23:03:00     -111.295      -55.774      -18.959        9.944       13.584        7.267       98.874      184.515       52.814        0.810        0.017      124.488        4.456        0.001      331.528       -0.399      868.991
11/24/2013  23:04:00     -109.801      -46.564      -18.904        8.921        9.261        9.464       79.581       85.766       89.568        0.742        0.013      119.267        5.134        0.002      331.513       -0.424      868.958
11/24/2013  23:05:00      -98.055      -41.893      -18.711       17.433       15.810       11.859      303.899      249.956      140.639        0.621        0.035      106.629        5.545        0.003      331.502       -0.441      868.930
11/24/2013  23:06:00      -89.414      -32.026      -17.203       19.441       17.777       15.223      377.956      316.031      231.733        0.512        0.046       94.977        9.347        0.010      331.483       -0.473      868.932
11/24/2013  23:07:00     -106.626      -17.672      -20.084       28.776       19.070       10.861      828.067      363.647      117.967        0.670        0.065      108.081        4.219        0.002      331.463       -0.505      868.951
11/24/2013  23:08:00      -87.675      -13.015      -18.376       34.554       14.327       16.552     1194.012      205.257      273.984        0.493        0.084       88.636       17.529        0.039      331.435       -0.551      868.982
11/24/2013  23:09:00      -77.412      -22.318      -11.535       25.322       19.645       13.097      641.186      385.918      171.527        0.391        0.060       80.565        7.636        0.009      331.466       -0.500      869.000
11/24/2013  23:10:00      -88.659      -25.648      -15.073       27.125       26.123       16.381      735.774      682.420      268.350        0.522        0.084       92.295        5.885        0.004      331.438       -0.548      869.000
11/24/2013  23:11:00      -91.281      -34.185      -11.946       25.114       21.985       16.419      630.721      483.346      269.571        0.551        0.069       97.472        6.848        0.005      331.483       -0.474      868.987
11/24/2013  23:12:00      -96.995      -13.203      -12.980       29.196       27.785       16.508      852.423      772.010      272.525        0.582        0.095       97.889       13.179        0.018      331.438       -0.546      868.987
11/24/2013  23:13:00      -90.174       -9.165      -13.821       30.060       25.491       16.426      903.574      649.779      269.820        0.511        0.091       90.638       17.610        0.038      331.423       -0.573      868.994
11/24/2013  23:14:00      -88.351      -14.475      -11.392       28.626       22.775       14.303      819.471      518.682      204.568        0.484        0.077       89.529       12.815        0.020      331.443       -0.540      869.011
11/24/2013  23:15:00      -68.097      -27.982      -14.455       20.140       23.001       12.388      405.619      529.054      153.451        0.336        0.054       73.622       11.747        0.025      331.506       -0.436      869.032
11/24/2013  23:16:00      -46.490      -19.108       -3.775       14.182       16.862        9.534      201.129      284.330       90.903        0.156        0.029       50.264        5.812        0.013      331.504       -0.438      869.050
11/24/2013  23:17:00      -90.377       -4.032      -12.230       18.014       18.204       11.242      324.500      331.400      126.390        0.456        0.039       90.467        7.632        0.007      331.478       -0.481      869.049
11/24/2013  23:18:00      -98.539      -12.480      -16.277       19.158       15.795       12.390      367.016      249.484      153.503        0.545        0.039       99.326        6.150        0.004      331.506       -0.437      869.036
11/24/2013  23:19:00      -94.036      -13.350      -10.149       24.084       22.107       14.774      580.045      488.701      218.277        0.521        0.064       94.979       11.796        0.015      331.443       -0.541      869.027
11/24/2013  23:20:00     -102.014      -28.360      -10.237       24.680       23.287       16.788      609.120      542.278      281.836        0.637        0.072      105.883       12.885        0.015      331.444       -0.537      869.025
11/24/2013  23:21:00      -81.028      -32.440      -11.603       15.203       25.568       14.863      231.145      653.711      220.922        0.443        0.055       87.281       13.300        0.023      331.476       -0.485      869.033
11/24/2013  23:22:00      -67.540      -21.955      -14.661       13.759        9.953        8.758      189.297       99.069       76.702        0.281        0.018       71.019        6.349        0.008      331.449       -0.529      869.037
11/24/2013  23:23:00      -75.659      -18.227      -14.594       16.840       15.314       12.042      283.593      234.511      145.008        0.347        0.033       77.823        8.082        0.011      331.437       -0.550      869.031
11/24/2013  23:24:00      -94.095      -12.784      -16.856       13.611       10.840        9.041      185.249      117.514       81.741        0.484        0.019       94.959        6.139        0.004      331.459       -0.513      869.039
11/24/2013  23:25:00      -92.251      -14.597      -16.453       19.298       16.982        9.198      372.410      288.377       84.600        0.487        0.037       93.398        3.290        0.001      331.429       -0.563      869.048
11/24/2013  23:26:00      -80.775      -14.812      -12.650       11.078       11.144        8.500      122.729      124.196       72.247        0.361        0.016       82.122        5.038        0.004      331.449       -0.530      869.052
11/24/2013  23:27:00      -88.456       -1.933      -16.855       11.443        9.808        8.932      130.940       96.193       79.784        0.421        0.015       88.477        4.098        0.002      331.480       -0.478      869.044
11/24/2013  23:28:00      -72.861      -13.182      -11.713       12.887       10.648        7.989      166.068      113.376       63.831        0.298        0.017       74.044        4.614        0.004      331.459       -0.513      869.032
11/24/2013  23:29:00      -88.753      -14.945       -9.693       20.920       12.112       12.319      437.631      146.691      151.746        0.447        0.037       90.003        8.457        0.009      331.412       -0.590      869.015
11/24/2013  23:30:00      -92.299      -21.792      -13.573       13.058       14.740       12.557      170.510      217.276      157.680        0.486        0.027       94.837        9.672        0.010      331.422       -0.572      869.010
11/24/2013  23:31:00      -99.765      -16.676      -12.167       10.867       12.306        9.970      118.089      151.439       99.395        0.537        0.018      101.149        5.329        0.003      331.368       -0.663      869.001
11/24/2013  23:32:00      -86.767      -20.767      -10.746       10.524       10.174        8.771      110.753      103.506       76.930        0.418        0.015       89.218        4.409        0.002      331.333       -0.718      869.007
11/24/2013  23:33:00      -67.952      -30.870       -9.582       15.421       20.851       12.133      237.822      434.746      147.203        0.324        0.041       74.636        8.868        0.014      331.361       -0.674      869.022
11/24/2013  23:34:00      -80.793      -47.339      -10.925       11.771       19.030       12.901      138.553      362.141      166.433        0.478        0.033       93.641        7.200        0.006      331.352       -0.688      869.039
11/24/2013  23:35:00      -93.710      -26.230      -11.182       14.152       12.032        9.826      200.270      144.761       96.547        0.502        0.022       97.312        7.098        0.005      331.381       -0.642      869.035
11/24/2013  23:36:00      -95.428      -29.407      -11.291       10.503        8.777        8.095      110.310       77.036       65.527        0.518        0.013       99.856        2.829        0.001      331.421       -0.574      869.027
11/24/2013  23:37:00     -102.963      -24.756      -11.839       16.478       11.872       10.986      271.515      140.938      120.694        0.594        0.027      105.897        6.485        0.004      331.432       -0.559      869.023
11/24/2013  23:38:00      -97.162      -32.921       -7.642       12.249       13.416        9.863      150.037      179.984       97.288        0.550        0.021      102.588        7.074        0.005      331.436       -0.550      869.020
11/24/2013  23:39:00      -88.332      -33.062       -9.534       11.508       12.269       10.470      132.433      150.519      109.626        0.469        0.020       94.316        6.598        0.005      331.393       -0.623      869.037
11/24/2013  23:40:00      -61.523      -29.366       -7.362       22.836       15.651       12.124      521.477      244.952      146.983        0.281        0.046       68.172        8.336        0.015      331.355       -0.683      869.069
11/24/2013  23:41:00      -64.806      -28.499      -10.280       15.586       10.458       10.085      242.911      109.371      101.717        0.279        0.023       70.796        7.213        0.010      331.345       -0.701      869.097
11/24/2013  23:42:00      -57.719      -29.645        0.813       21.232       11.403       13.505      450.802      130.019      182.381        0.249        0.038       64.887       10.580        0.027      331.395       -0.619      869.119
11/24/2013  23:43:00      -72.731      -34.043       -8.107       19.792       14.196        9.885      391.724      201.524       97.711        0.360        0.035       80.304        5.264        0.004      331.355       -0.683      869.119
11/24/2013  23:44:00      -71.064      -31.832       -6.133       20.508       18.253       13.909      420.564      333.167      193.454        0.352        0.047       77.867       10.676        0.019      331.331       -0.724      869.108
11/24/2013  23:45:00      -82.968      -55.204      -10.275       29.538       18.672       10.921      872.474      348.633      119.261        0.569        0.067       99.655        4.604        0.002      331.319       -0.741      869.090
11/24/2013  23:46:00      -89.970      -52.915       -6.556       32.420       18.614       12.858     1051.058      346.492      165.319        0.625        0.078      104.377        8.283        0.006      331.234       -0.881      869.073
11/24/2013  23:47:00     -103.577      -48.734       -5.820       40.786       18.692       17.211     1663.478      349.386      296.214        0.772        0.115      114.469       20.587        0.032      331.224       -0.899      869.042
11/24/2013  23:48:00     -109.071      -49.892       -8.566       21.631       20.002       12.737      467.905      400.091      162.239        0.774        0.052      119.941        7.652        0.004      331.225       -0.897      869.023
11/24/2013  23:49:00      -80.156      -54.204       -4.029       24.811       18.041       17.398      615.603      325.486      302.674        0.531        0.062       96.763       13.023        0.018      331.221       -0.903      869.032
11/24/2013  23:50:00      -61.648      -30.049       -0.487       34.434       20.931       14.119     1185.688      438.124      199.340        0.326        0.091       68.581       12.261        0.032      331.213       -0.915      869.044
11/24/2013  23:51:00      -79.781      -33.806       -4.087       15.908       19.115       12.304      253.067      365.397      151.378        0.415        0.038       86.648        9.208        0.011      331.264       -0.831      869.046
11/24/2013  23:52:00      -87.786      -37.445       -2.663       15.523       10.625       10.711      240.973      112.883      114.733        0.479        0.023       95.438        8.656        0.008      331.265       -0.830      869.044
11/24/2013  23:53:00      -88.230      -22.302       -3.822       15.378       14.862        9.403      236.474      220.878       88.411        0.442        0.027       91.005        7.936        0.008      331.269       -0.824      869.048
11/24/2013  23:54:00      -91.327      -35.178       -6.814       23.748       27.566       14.138      563.961      759.878      199.877        0.557        0.076       97.868       13.066        0.018      331.244       -0.865      869.056
11/24/2013  23:55:00      -99.310      -20.088       -6.152       26.415       20.668       13.633      697.758      427.174      185.868        0.581        0.066      101.322       11.457        0.013      331.214       -0.914      869.057
11/24/2013  23:56:00     -122.682      -54.003       -8.047       18.827       13.688       15.171      354.448      187.353      230.146        0.940        0.039      134.042       12.357        0.008      331.268       -0.825      869.050
11/24/2013  23:57:00     -121.169      -33.903       -8.728       22.731       19.955       15.233      516.694      398.191      232.048        0.853        0.057      125.823       11.124        0.008      331.199       -0.940      869.035
11/24/2013  23:58:00     -142.295      -36.716       -3.950       34.101       20.728       16.565     1162.896      429.637      274.396        1.174        0.093      146.956       17.006        0.013      331.174       -0.982      869.027
11/24/2013  23:59:00     -140.449      -43.190       -2.572       25.420       25.526       13.611      646.169      651.571      185.252        1.154        0.074      146.939       13.130        0.008      331.167       -0.992      869.020
